| time (UTC) | temp F | wind direction | speed knots | gust knots | rain 1hr in | rain 24hr in | rain mn in | humidity % | barometer mb |
| 20260507070940 | 49 | 281 | 0.0 | 4.3 | 0.00 | 0.19 | 0.00 | 88 | 1005.1 |
| 20260507070834 | 49 | 281 | 0.0 | 4.3 | 0.00 | 0.19 | 0.00 | 89 | 1005.1 |
| 20260507070735 | 49 | 281 | 0.0 | 4.3 | 0.00 | 0.19 | 0.00 | 88 | 1004.9 |
| 20260507070636 | 49 | 79 | 0.0 | 4.3 | 0.00 | 0.19 | 0.00 | 88 | 1004.9 |
| 20260507070533 | 49 | 82 | 0.0 | 4.3 | 0.00 | 0.19 | 0.00 | 88 | 1005.1 |
| 20260507070433 | 49 | 80 | 0.9 | 4.3 | 0.00 | 0.19 | 0.00 | 88 | 1005.1 |
| 20260507070412 | 49 | 243 | 0.9 | 4.3 | 0.00 | 0.19 | 0.00 | 88 | 1005.1 |
| 20260507070325 | 49 | 291 | 0.9 | 4.3 | 0.00 | 0.19 | 0.00 | 88 | 1005.1 |
| 20260507070255 | 49 | 288 | 0.9 | 4.3 | 0.00 | 0.19 | 0.00 | 88 | 1005.1 |
| 20260507070126 | 49 | 243 | 0.9 | 4.3 | 0.00 | 0.19 | 0.00 | 88 | 1005.2 |
| 20260507070025 | 49 | 243 | 0.9 | 4.3 | 0.00 | 0.19 | 0.00 | 88 | 1005.1 |
| 20260507065925 | 49 | 291 | 0.9 | 4.3 | 0.00 | 0.19 | 0.00 | 88 | 1005.0 |
| 20260507065855 | 49 | 300 | 0.9 | 4.3 | 0.00 | 0.19 | 0.00 | 88 | 1004.9 |
| 20260507065822 | 49 | 280 | 0.9 | 4.3 | 0.00 | 0.19 | 0.00 | 88 | 1004.9 |
| 20260507065752 | 49 | 302 | 0.9 | 4.3 | 0.00 | 0.19 | 0.00 | 88 | 1004.9 |
| 20260507065620 | 49 | 316 | 0.9 | 4.3 | 0.00 | 0.19 | 0.00 | 88 | 1004.9 |
| 20260507065518 | 49 | 56 | 0.9 | 4.3 | 0.00 | 0.19 | 0.00 | 88 | 1005.1 |
| 20260507065419 | 49 | 262 | 0.9 | 4.3 | 0.00 | 0.19 | 0.00 | 88 | 1005.1 |
| 20260507065401 | 49 | 288 | 0.9 | 4.3 | 0.00 | 0.19 | 0.00 | 88 | 1005.2 |
| 20260507065317 | 49 | 64 | 0.9 | 4.3 | 0.00 | 0.19 | 0.00 | 88 | 1005.2 |
| 20260507065249 | 49 | 291 | 0.9 | 4.3 | 0.00 | 0.19 | 0.00 | 88 | 1005.2 |
| 20260507065118 | 49 | 288 | 0.9 | 4.3 | 0.00 | 0.19 | 0.00 | 88 | 1005.2 |
| 20260507065015 | 49 | 283 | 0.9 | 5.2 | 0.00 | 0.19 | 0.00 | 88 | 1005.1 |
| 20260507064913 | 49 | 283 | 0.9 | 5.2 | 0.00 | 0.19 | 0.00 | 88 | 1005.1 |
| 20260507064836 | 49 | 300 | 0.9 | 5.2 | 0.00 | 0.19 | 0.00 | 88 | 1004.9 |
| 20260507064826 | 49 | 278 | 0.9 | 5.2 | 0.00 | 0.19 | 0.00 | 88 | 1005.0 |
| 20260507064637 | 49 | 338 | 0.9 | 5.2 | 0.00 | 0.19 | 0.00 | 88 | 1004.9 |
| 20260507064610 | 49 | 341 | 0.9 | 5.2 | 0.00 | 0.19 | 0.00 | 88 | 1004.8 |
| 20260507064510 | 49 | 39 | 0.9 | 5.2 | 0.00 | 0.19 | 0.00 | 88 | 1004.8 |
| 20260507064408 | 49 | 286 | 0.9 | 5.2 | 0.00 | 0.19 | 0.00 | 88 | 1004.8 |
| 20260507064307 | 49 | 287 | 0.9 | 5.2 | 0.00 | 0.19 | 0.00 | 88 | 1004.9 |
| 20260507064206 | 49 | 83 | 0.9 | 5.2 | 0.00 | 0.19 | 0.00 | 88 | 1004.9 |
| 20260507064137 | 49 | 302 | 0.9 | 5.2 | 0.00 | 0.19 | 0.00 | 88 | 1004.9 |
| 20260507064104 | 49 | 246 | 0.9 | 5.2 | 0.00 | 0.19 | 0.00 | 88 | 1004.8 |
| 20260507064004 | 49 | 280 | 0.9 | 4.3 | 0.00 | 0.19 | 0.00 | 88 | 1004.7 |
| 20260507063903 | 49 | 79 | 0.9 | 4.3 | 0.00 | 0.19 | 0.00 | 88 | 1004.9 |
| 20260507063755 | 49 | 338 | 0.9 | 4.3 | 0.00 | 0.19 | 0.00 | 88 | 1004.9 |
| 20260507063655 | 49 | 305 | 0.0 | 4.3 | 0.00 | 0.19 | 0.00 | 88 | 1004.9 |
| 20260507063637 | 49 | 314 | 0.0 | 4.3 | 0.00 | 0.19 | 0.00 | 88 | 1004.9 |
| 20260507063555 | 49 | 293 | 0.9 | 4.3 | 0.00 | 0.19 | 0.00 | 88 | 1005.0 |
| 20260507063455 | 49 | 316 | 0.9 | 4.3 | 0.00 | 0.19 | 0.00 | 88 | 1005.1 |
| 20260507063356 | 49 | 300 | 0.9 | 4.3 | 0.00 | 0.19 | 0.00 | 88 | 1005.2 |
| 20260507063320 | 50 | 316 | 0.9 | 4.3 | 0.00 | 0.19 | 0.00 | 88 | 1005.1 |
| 20260507063308 | 49 | 316 | 0.9 | 4.3 | 0.00 | 0.19 | 0.00 | 88 | 1005.1 |
| 20260507063137 | 50 | 316 | 0.9 | 4.3 | 0.00 | 0.19 | 0.00 | 88 | 1005.1 |
| 20260507063055 | 49 | 319 | 0.9 | 4.3 | 0.00 | 0.19 | 0.00 | 88 | 1005.1 |
| 20260507062951 | 50 | 278 | 0.9 | 4.3 | 0.00 | 0.19 | 0.00 | 88 | 1005.1 |
| 20260507062931 | 50 | 278 | 0.9 | 4.3 | 0.00 | 0.19 | 0.00 | 88 | 1004.9 |
| 20260507062808 | 50 | 291 | 0.9 | 4.3 | 0.00 | 0.19 | 0.00 | 88 | 1004.9 |
| 20260507062635 | 49 | 291 | 0.9 | 4.3 | 0.00 | 0.19 | 0.00 | 88 | 1004.9 |
| 20260507062549 | 50 | 297 | 0.9 | 4.3 | 0.00 | 0.19 | 0.00 | 89 | 1005.0 |
| 20260507062450 | 50 | 283 | 0.9 | 3.5 | 0.00 | 0.19 | 0.00 | 89 | 1005.0 |
| 20260507062349 | 50 | 274 | 0.9 | 3.5 | 0.00 | 0.19 | 0.00 | 89 | 1004.8 |
| 20260507062249 | 50 | 283 | 0.9 | 3.5 | 0.00 | 0.19 | 0.00 | 89 | 1004.7 |
| 20260507062151 | 50 | 288 | 0.0 | 3.5 | 0.00 | 0.19 | 0.00 | 89 | 1004.6 |
| 20260507062137 | 50 | 291 | 0.0 | 3.5 | 0.00 | 0.19 | 0.00 | 89 | 1004.6 |
| 20260507062048 | 50 | 72 | 0.0 | 3.5 | 0.00 | 0.19 | 0.00 | 89 | 1004.7 |
| 20260507061947 | 50 | 74 | 0.0 | 3.5 | 0.00 | 0.19 | 0.00 | 89 | 1004.7 |
| 20260507061848 | 50 | 284 | 0.0 | 3.5 | 0.00 | 0.19 | 0.00 | 89 | 1004.6 |
| 20260507061748 | 50 | 10 | 0.0 | 3.5 | 0.00 | 0.19 | 0.00 | 89 | 1004.6 |
| 20260507061647 | 50 | 309 | 0.0 | 3.5 | 0.00 | 0.19 | 0.00 | 89 | 1004.7 |
| 20260507061637 | 50 | 277 | 0.0 | 2.6 | 0.00 | 0.19 | 0.00 | 89 | 1004.7 |
| 20260507061547 | 50 | 27 | 0.0 | 0.9 | 0.00 | 0.19 | 0.00 | 89 | 1004.9 |
| 20260507061445 | 50 | 34 | 0.0 | 1.7 | 0.00 | 0.19 | 0.00 | 89 | 1005.0 |
| 20260507061345 | 50 | 34 | 0.0 | 2.6 | 0.00 | 0.19 | 0.00 | 89 | 1004.9 |
| 20260507061244 | 50 | 33 | 0.0 | 2.6 | 0.00 | 0.19 | 0.00 | 89 | 1004.9 |
| 20260507061137 | 50 | 34 | 0.0 | 2.6 | 0.00 | 0.19 | 0.00 | 89 | 1004.9 |
| 20260507061041 | 50 | 34 | 0.0 | 2.6 | 0.00 | 0.19 | 0.00 | 89 | 1005.0 |
| 20260507060939 | 50 | 33 | 0.0 | 2.6 | 0.00 | 0.19 | 0.00 | 89 | 1005.1 |
| 20260507060922 | 50 | 51 | 0.0 | 2.6 | 0.00 | 0.19 | 0.00 | 89 | 1005.2 |
| 20260507060758 | 50 | 276 | 0.0 | 2.6 | 0.00 | 0.19 | 0.00 | 89 | 1005.2 |
| 20260507060637 | 49 | 275 | 0.0 | 2.6 | 0.00 | 0.19 | 0.00 | 89 | 1005.2 |
| 20260507060535 | 49 | 274 | 0.0 | 2.6 | 0.00 | 0.19 | 0.00 | 89 | 1005.2 |
| 20260507060435 | 49 | 251 | 0.0 | 2.6 | 0.00 | 0.19 | 0.00 | 89 | 1005.2 |
| 20260507060335 | 49 | 80 | 0.0 | 2.6 | 0.00 | 0.19 | 0.00 | 89 | 1005.0 |
| 20260507060235 | 49 | 81 | 0.0 | 2.6 | 0.00 | 0.19 | 0.00 | 89 | 1004.9 |
| 20260507060201 | 49 | 278 | 0.0 | 1.7 | 0.00 | 0.19 | 0.00 | 89 | 1004.9 |
| 20260507060148 | 49 | 278 | 0.0 | 1.7 | 0.00 | 0.19 | 0.00 | 89 | 1004.9 |
| 20260507055928 | 49 | 278 | 0.0 | 1.7 | 0.00 | 0.19 | 0.00 | 89 | 1005.0 |
| 20260507055830 | 49 | 302 | 0.0 | 0.9 | 0.00 | 0.19 | 0.00 | 89 | 1005.0 |
| 20260507055801 | 49 | 304 | 0.0 | 0.9 | 0.00 | 0.19 | 0.00 | 89 | 1005.0 |
| 20260507055751 | 49 | 304 | 0.0 | 0.9 | 0.00 | 0.19 | 0.00 | 89 | 1004.9 |
| 20260507055631 | 49 | 304 | 0.0 | 0.9 | 0.00 | 0.19 | 0.00 | 89 | 1005.0 |
| 20260507055607 | 49 | 304 | 0.0 | 0.9 | 0.00 | 0.19 | 0.00 | 89 | 1004.9 |
| 20260507055444 | 49 | 302 | 0.0 | 0.9 | 0.00 | 0.19 | 0.00 | 89 | 1004.9 |
| 20260507055320 | 49 | 319 | 0.0 | 0.9 | 0.00 | 0.19 | 0.00 | 89 | 1005.2 |
| 20260507055315 | 49 | 317 | 0.0 | 0.9 | 0.00 | 0.19 | 0.00 | 89 | 1005.3 |
| 20260507055305 | 49 | 302 | 0.0 | 0.9 | 0.00 | 0.19 | 0.00 | 89 | 1005.1 |
| 20260507055141 | 49 | 319 | 0.0 | 0.9 | 0.00 | 0.19 | 0.00 | 89 | 1005.2 |
| 20260507054924 | 49 | 318 | 0.0 | 0.9 | 0.00 | 0.19 | 0.00 | 89 | 1005.4 |
| 20260507054823 | 49 | 319 | 0.0 | 0.9 | 0.00 | 0.19 | 0.00 | 89 | 1005.5 |
| 20260507054723 | 49 | 319 | 0.0 | 0.9 | 0.00 | 0.19 | 0.00 | 89 | 1005.5 |
| 20260507054655 | 49 | 275 | 0.0 | 0.9 | 0.00 | 0.19 | 0.00 | 89 | 1005.5 |
| 20260507054645 | 49 | 319 | 0.0 | 0.9 | 0.00 | 0.19 | 0.00 | 89 | 1005.5 |
| 20260507054638 | 49 | 317 | 0.0 | 0.9 | 0.00 | 0.19 | 0.00 | 89 | 1005.5 |
| 20260507054419 | 49 | 273 | 0.0 | 0.9 | 0.00 | 0.19 | 0.00 | 89 | 1005.6 |
| 20260507054320 | 49 | 273 | 0.0 | 0.9 | 0.00 | 0.19 | 0.00 | 89 | 1005.5 |
| 20260507054217 | 49 | 273 | 0.0 | 0.9 | 0.00 | 0.19 | 0.00 | 89 | 1005.5 |
| 20260507054111 | 49 | 273 | 0.0 | 0.9 | 0.00 | 0.19 | 0.00 | 89 | 1005.5 |
| 20260507054104 | 49 | 273 | 0.0 | 0.9 | 0.00 | 0.19 | 0.00 | 89 | 1005.4 |
| 20260507054058 | 49 | 273 | 0.0 | 0.9 | 0.00 | 0.19 | 0.00 | 89 | 1005.3 |
| 20260507054045 | 49 | 273 | 0.0 | 0.9 | 0.00 | 0.19 | 0.00 | 89 | 1005.4 |
| 20260507053739 | 49 | 273 | 0.0 | 0.9 | 0.00 | 0.19 | 0.00 | 89 | 1005.2 |
| 20260507053728 | 49 | 273 | 0.0 | 0.9 | 0.00 | 0.19 | 0.00 | 89 | 1005.3 |
| 20260507053604 | 49 | 273 | 0.0 | 0.9 | 0.00 | 0.19 | 0.00 | 89 | 1005.2 |
| 20260507053510 | 49 | 273 | 0.0 | 0.9 | 0.00 | 0.19 | 0.00 | 89 | 1005.2 |
| 20260507053408 | 49 | 39 | 0.0 | 0.9 | 0.00 | 0.19 | 0.00 | 89 | 1005.2 |
| 20260507053306 | 49 | 39 | 0.0 | 0.9 | 0.00 | 0.19 | 0.00 | 89 | 1005.2 |
| 20260507053231 | 49 | 302 | 0.0 | 0.9 | 0.00 | 0.19 | 0.00 | 88 | 1005.2 |
| 20260507053223 | 49 | 302 | 0.0 | 0.9 | 0.00 | 0.19 | 0.00 | 88 | 1005.2 |
| 20260507053058 | 49 | 302 | 0.0 | 0.9 | 0.00 | 0.19 | 0.00 | 88 | 1005.2 |
| 20260507053003 | 49 | 303 | 0.0 | 1.7 | 0.00 | 0.19 | 0.00 | 88 | 1005.3 |
| 20260507052901 | 49 | 303 | 0.0 | 1.7 | 0.00 | 0.19 | 0.00 | 88 | 1005.3 |
| 20260507052801 | 49 | 294 | 0.0 | 1.7 | 0.00 | 0.19 | 0.00 | 88 | 1005.2 |
| 20260507052659 | 49 | 293 | 0.0 | 1.7 | 0.00 | 0.19 | 0.00 | 88 | 1005.2 |
| 20260507052600 | 49 | 293 | 0.0 | 1.7 | 0.00 | 0.19 | 0.00 | 88 | 1005.3 |
| 20260507052553 | 49 | 294 | 0.0 | 1.7 | 0.00 | 0.19 | 0.00 | 88 | 1005.3 |
| 20260507052458 | 50 | 294 | 0.0 | 1.7 | 0.00 | 0.19 | 0.00 | 88 | 1005.2 |
| 20260507052425 | 50 | 294 | 0.0 | 1.7 | 0.00 | 0.19 | 0.00 | 88 | 1005.3 |
| 20260507052421 | 50 | 293 | 0.0 | 1.7 | 0.00 | 0.19 | 0.00 | 88 | 1005.3 |
| 20260507052411 | 50 | 294 | 0.0 | 1.7 | 0.00 | 0.19 | 0.00 | 88 | 1005.3 |
| 20260507052211 | 50 | 294 | 0.0 | 1.7 | 0.00 | 0.19 | 0.00 | 88 | 1005.3 |
| 20260507052156 | 50 | 294 | 0.0 | 1.7 | 0.00 | 0.19 | 0.00 | 88 | 1005.3 |
| 20260507051950 | 50 | 276 | 0.0 | 2.6 | 0.00 | 0.19 | 0.00 | 88 | 1005.4 |
| 20260507051850 | 50 | 273 | 0.0 | 3.5 | 0.00 | 0.19 | 0.00 | 88 | 1005.4 |
| 20260507051758 | 50 | 297 | 0.0 | 3.5 | 0.00 | 0.19 | 0.00 | 87 | 1005.5 |
| 20260507051705 | 50 | 300 | 0.0 | 3.5 | 0.00 | 0.19 | 0.00 | 88 | 1005.5 |
| 20260507051648 | 50 | 300 | 0.0 | 3.5 | 0.00 | 0.19 | 0.00 | 87 | 1005.5 |
| 20260507051449 | 50 | 299 | 0.0 | 3.5 | 0.00 | 0.19 | 0.00 | 87 | 1005.4 |
| 20260507051348 | 50 | 300 | 0.0 | 3.5 | 0.00 | 0.19 | 0.00 | 87 | 1005.4 |
| 20260507051247 | 50 | 297 | 0.0 | 3.5 | 0.00 | 0.19 | 0.00 | 87 | 1005.4 |
| 20260507051146 | 50 | 300 | 0.0 | 3.5 | 0.00 | 0.19 | 0.00 | 87 | 1005.3 |
| 20260507051035 | 50 | 300 | 0.0 | 3.5 | 0.00 | 0.19 | 0.00 | 87 | 1005.3 |
| 20260507050946 | 50 | 300 | 0.0 | 3.5 | 0.00 | 0.19 | 0.00 | 87 | 1005.3 |
| 20260507050846 | 50 | 114 | 0.0 | 1.7 | 0.00 | 0.19 | 0.00 | 87 | 1005.3 |
| 20260507050746 | 50 | 115 | 0.0 | 1.7 | 0.00 | 0.19 | 0.00 | 87 | 1005.4 |
| 20260507050644 | 50 | 91 | 0.0 | 1.7 | 0.00 | 0.19 | 0.00 | 87 | 1005.4 |
| 20260507050528 | 50 | 302 | 0.0 | 1.7 | 0.00 | 0.19 | 0.00 | 87 | 1005.4 |
| 20260507050504 | 50 | 297 | 0.0 | 2.6 | 0.00 | 0.19 | 0.00 | 87 | 1005.4 |
| 20260507050455 | 50 | 297 | 0.0 | 2.6 | 0.00 | 0.19 | 0.00 | 87 | 1005.4 |
| 20260507050305 | 50 | 297 | 0.0 | 2.6 | 0.00 | 0.19 | 0.00 | 87 | 1005.5 |
| 20260507050256 | 50 | 297 | 0.0 | 2.6 | 0.00 | 0.19 | 0.00 | 87 | 1005.5 |
| 20260507050039 | 50 | 293 | 0.0 | 2.6 | 0.00 | 0.19 | 0.00 | 87 | 1005.5 |
| 20260507050026 | 50 | 294 | 0.9 | 2.6 | 0.00 | 0.19 | 0.00 | 87 | 1005.5 |
| 20260507045939 | 50 | 293 | 0.9 | 2.6 | 0.00 | 0.19 | 0.00 | 87 | 1005.5 |
| 20260507045839 | 50 | 288 | 0.9 | 4.3 | 0.00 | 0.19 | 0.00 | 87 | 1005.3 |
| 20260507045735 | 50 | 288 | 0.9 | 4.3 | 0.00 | 0.19 | 0.00 | 87 | 1005.3 |
| 20260507045633 | 50 | 288 | 0.9 | 6.1 | 0.00 | 0.19 | 0.00 | 87 | 1005.3 |
| 20260507045534 | 50 | 55 | 0.9 | 6.1 | 0.00 | 0.19 | 0.00 | 87 | 1005.2 |
| 20260507045525 | 50 | 56 | 0.9 | 6.1 | 0.00 | 0.19 | 0.00 | 87 | 1005.1 |
| 20260507045433 | 50 | 308 | 0.9 | 6.1 | 0.00 | 0.19 | 0.00 | 87 | 1005.1 |
| 20260507045334 | 50 | 310 | 0.9 | 6.1 | 0.00 | 0.19 | 0.00 | 87 | 1005.1 |
| 20260507045229 | 50 | 323 | 0.9 | 6.1 | 0.00 | 0.19 | 0.00 | 87 | 1005.1 |
| 20260507045126 | 50 | 281 | 0.9 | 6.1 | 0.00 | 0.19 | 0.00 | 87 | 1005.2 |
| 20260507045029 | 50 | 281 | 0.9 | 6.1 | 0.00 | 0.19 | 0.00 | 87 | 1005.2 |
| 20260507044928 | 50 | 274 | 0.9 | 6.1 | 0.00 | 0.19 | 0.00 | 87 | 1005.1 |
| 20260507044829 | 50 | 302 | 0.9 | 6.1 | 0.00 | 0.19 | 0.00 | 87 | 1005.0 |
| 20260507044723 | 50 | 354 | 0.9 | 6.1 | 0.00 | 0.19 | 0.00 | 87 | 1005.1 |
| 20260507044622 | 50 | 27 | 0.9 | 4.3 | 0.00 | 0.19 | 0.00 | 87 | 1005.1 |
| 20260507044520 | 50 | 274 | 0.9 | 4.3 | 0.00 | 0.19 | 0.00 | 87 | 1005.0 |
| 20260507044421 | 50 | 42 | 0.9 | 4.3 | 0.00 | 0.19 | 0.00 | 87 | 1005.0 |
| 20260507044322 | 50 | 38 | 0.9 | 4.3 | 0.00 | 0.19 | 0.00 | 86 | 1005.1 |
| 20260507044218 | 50 | 283 | 0.9 | 4.3 | 0.00 | 0.19 | 0.00 | 87 | 1005.1 |
| 20260507044116 | 50 | 281 | 0.9 | 4.3 | 0.00 | 0.19 | 0.00 | 87 | 1005.1 |
| 20260507044025 | 50 | 71 | 0.9 | 4.3 | 0.00 | 0.19 | 0.00 | 86 | 1005.2 |
| 20260507044015 | 50 | 22 | 0.9 | 4.3 | 0.00 | 0.19 | 0.00 | 86 | 1005.2 |
| 20260507043917 | 50 | 288 | 0.9 | 4.3 | 0.00 | 0.19 | 0.00 | 86 | 1005.2 |
| 20260507043835 | 50 | 284 | 0.9 | 4.3 | 0.00 | 0.19 | 0.00 | 87 | 1005.3 |
| 20260507043826 | 50 | 297 | 0.9 | 4.3 | 0.00 | 0.19 | 0.00 | 86 | 1005.2 |
| 20260507043610 | 50 | 285 | 0.9 | 4.3 | 0.00 | 0.19 | 0.00 | 87 | 1005.2 |
| 20260507043526 | 50 | 53 | 0.9 | 4.3 | 0.00 | 0.19 | 0.00 | 87 | 1005.2 |
| 20260507043509 | 50 | 47 | 0.0 | 4.3 | 0.00 | 0.19 | 0.00 | 87 | 1005.2 |
| 20260507043411 | 50 | 141 | 0.0 | 1.7 | 0.00 | 0.19 | 0.00 | 87 | 1005.2 |
| 20260507043308 | 50 | 288 | 0.0 | 1.7 | 0.00 | 0.19 | 0.00 | 87 | 1005.2 |
| 20260507043207 | 50 | 288 | 0.0 | 1.7 | 0.00 | 0.19 | 0.00 | 87 | 1005.3 |
| 20260507043104 | 50 | 288 | 0.0 | 1.7 | 0.00 | 0.19 | 0.00 | 87 | 1005.3 |
| 20260507043027 | 50 | 263 | 0.0 | 1.7 | 0.00 | 0.19 | 0.00 | 87 | 1005.4 |
| 20260507043003 | 50 | 267 | 0.0 | 1.7 | 0.00 | 0.19 | 0.00 | 87 | 1005.4 |
| 20260507042931 | 51 | 239 | 0.0 | 1.7 | 0.00 | 0.19 | 0.00 | 88 | 1005.4 |
| 20260507042921 | 50 | 267 | 0.0 | 1.7 | 0.00 | 0.19 | 0.00 | 87 | 1005.4 |
| 20260507042705 | 51 | 321 | 0.0 | 1.7 | 0.00 | 0.19 | 0.00 | 88 | 1005.4 |
| 20260507042601 | 51 | 315 | 0.0 | 1.7 | 0.00 | 0.19 | 0.00 | 88 | 1005.4 |
| 20260507042534 | 51 | 53 | 0.0 | 1.7 | 0.00 | 0.19 | 0.00 | 88 | 1005.4 |
| 20260507042527 | 51 | 25 | 0.0 | 1.7 | 0.00 | 0.19 | 0.00 | 88 | 1005.5 |
| 20260507042517 | 51 | 25 | 0.0 | 1.7 | 0.00 | 0.19 | 0.00 | 88 | 1005.5 |
| 20260507042258 | 51 | 53 | 0.0 | 1.7 | 0.00 | 0.19 | 0.00 | 88 | 1005.4 |
| 20260507042151 | 51 | 49 | 0.0 | 1.7 | 0.00 | 0.19 | 0.00 | 88 | 1005.5 |
| 20260507042052 | 51 | 8 | 0.0 | 1.7 | 0.00 | 0.19 | 0.00 | 89 | 1005.4 |
| 20260507042021 | 51 | 271 | 0.0 | 1.7 | 0.00 | 0.19 | 0.00 | 89 | 1005.5 |
| 20260507041952 | 51 | 321 | 0.0 | 1.7 | 0.00 | 0.19 | 0.00 | 89 | 1005.5 |
| 20260507041909 | 51 | 321 | 0.0 | 1.7 | 0.00 | 0.19 | 0.00 | 89 | 1005.5 |
| 20260507041855 | 51 | 271 | 0.9 | 1.7 | 0.00 | 0.19 | 0.00 | 89 | 1005.5 |
| 20260507041647 | 51 | 26 | 0.9 | 2.6 | 0.00 | 0.19 | 0.00 | 89 | 1005.4 |
| 20260507041631 | 51 | 277 | 0.9 | 2.6 | 0.00 | 0.19 | 0.00 | 89 | 1005.4 |
| 20260507041445 | 51 | 274 | 0.9 | 2.6 | 0.00 | 0.19 | 0.00 | 89 | 1005.5 |
| 20260507041345 | 51 | 267 | 0.0 | 2.6 | 0.00 | 0.19 | 0.00 | 89 | 1005.4 |
| 20260507041324 | 51 | 268 | 0.9 | 7.0 | 0.00 | 0.19 | 0.00 | 90 | 1005.4 |
| 20260507041320 | 51 | 268 | 0.9 | 7.0 | 0.00 | 0.19 | 0.00 | 90 | 1005.4 |
| 20260507041308 | 51 | 277 | 0.9 | 7.0 | 0.00 | 0.19 | 0.00 | 89 | 1005.4 |
| 20260507041254 | 51 | 61 | 0.9 | 7.0 | 0.00 | 0.19 | 0.00 | 90 | 1005.3 |
| 20260507041127 | 51 | 269 | 0.9 | 7.0 | 0.00 | 0.19 | 0.00 | 90 | 1005.4 |
| 20260507040853 | 51 | 131 | 0.9 | 7.0 | 0.00 | 0.19 | 0.00 | 90 | 1005.4 |
| 20260507040632 | 51 | 288 | 0.9 | 7.0 | 0.00 | 0.19 | 0.00 | 90 | 1005.3 |
| 20260507040604 | 51 | 288 | 0.9 | 7.0 | 0.00 | 0.19 | 0.00 | 90 | 1005.2 |
| 20260507040544 | 51 | 288 | 0.9 | 7.0 | 0.00 | 0.19 | 0.00 | 90 | 1005.2 |
| 20260507040332 | 51 | 285 | 0.9 | 7.0 | 0.00 | 0.19 | 0.00 | 90 | 1005.2 |
| 20260507040232 | 51 | 101 | 0.0 | 3.5 | 0.00 | 0.19 | 0.00 | 90 | 1005.2 |
| 20260507040214 | 51 | 263 | 0.0 | 3.5 | 0.01 | 0.19 | 0.00 | 91 | 1005.1 |
| 20260507040041 | 52 | 297 | 0.0 | 7.0 | 0.01 | 0.19 | 0.00 | 91 | 1005.1 |
| 20260507035827 | 52 | 302 | 0.0 | 7.0 | 0.01 | 0.19 | 0.19 | 91 | 1005.0 |
| 20260507035727 | 52 | 302 | 0.0 | 7.0 | 0.01 | 0.19 | 0.19 | 91 | 1005.0 |
| 20260507035654 | 52 | 282 | 0.9 | 7.0 | 0.01 | 0.19 | 0.19 | 91 | 1005.0 |
| 20260507035645 | 52 | 283 | 0.9 | 7.0 | 0.01 | 0.19 | 0.19 | 91 | 1005.0 |
| 20260507035514 | 52 | 282 | 0.9 | 7.0 | 0.01 | 0.19 | 0.19 | 91 | 1005.0 |
| 20260507035427 | 52 | 36 | 0.9 | 7.0 | 0.01 | 0.19 | 0.19 | 91 | 1004.9 |
| 20260507035327 | 52 | 291 | 0.9 | 7.0 | 0.02 | 0.19 | 0.19 | 91 | 1004.9 |
| 20260507035315 | 52 | 291 | 0.9 | 7.0 | 0.02 | 0.19 | 0.19 | 91 | 1004.9 |
| 20260507035311 | 52 | 30 | 0.9 | 3.5 | 0.03 | 0.19 | 0.19 | 91 | 1004.9 |
| 20260507035300 | 52 | 291 | 0.9 | 7.0 | 0.02 | 0.19 | 0.19 | 91 | 1004.9 |
| 20260507035014 | 52 | 30 | 0.9 | 3.5 | 0.03 | 0.19 | 0.19 | 91 | 1004.9 |
| 20260507034928 | 52 | 271 | 0.9 | 3.5 | 0.03 | 0.19 | 0.19 | 91 | 1004.9 |
| 20260507034829 | 52 | 18 | 0.9 | 4.3 | 0.03 | 0.19 | 0.19 | 91 | 1004.9 |
| 20260507034727 | 52 | 323 | 0.9 | 4.3 | 0.03 | 0.19 | 0.19 | 91 | 1005.0 |
| 20260507034652 | 52 | 277 | 0.9 | 6.1 | 0.03 | 0.19 | 0.19 | 91 | 1004.9 |
| 20260507034643 | 52 | 285 | 0.9 | 5.2 | 0.03 | 0.19 | 0.19 | 91 | 1004.9 |
| 20260507034516 | 52 | 276 | 0.9 | 6.1 | 0.03 | 0.19 | 0.19 | 91 | 1004.9 |
| 20260507034427 | 52 | 276 | 0.9 | 6.1 | 0.03 | 0.19 | 0.19 | 91 | 1004.9 |
| 20260507034328 | 52 | 288 | 0.9 | 6.1 | 0.03 | 0.19 | 0.19 | 91 | 1004.9 |
| 20260507034250 | 52 | 68 | 1.7 | 6.1 | 0.03 | 0.19 | 0.19 | 91 | 1005.1 |
| 20260507034241 | 52 | 294 | 1.7 | 6.1 | 0.03 | 0.19 | 0.19 | 91 | 1005.0 |
| 20260507034026 | 52 | 309 | 1.7 | 6.1 | 0.03 | 0.19 | 0.19 | 91 | 1005.1 |
| 20260507034016 | 53 | 309 | 1.7 | 6.1 | 0.03 | 0.19 | 0.19 | 91 | 1005.1 |
| 20260507034011 | 53 | 299 | 0.9 | 4.3 | 0.03 | 0.19 | 0.19 | 91 | 1004.9 |
| 20260507033958 | 53 | 299 | 1.7 | 6.1 | 0.03 | 0.19 | 0.19 | 91 | 1005.0 |
| 20260507033834 | 53 | 270 | 1.7 | 6.1 | 0.03 | 0.19 | 0.19 | 91 | 1005.0 |
| 20260507033819 | 53 | 41 | 0.9 | 6.1 | 0.03 | 0.19 | 0.19 | 91 | 1005.0 |
| 20260507033702 | 53 | 46 | 0.9 | 4.3 | 0.03 | 0.19 | 0.19 | 91 | 1004.7 |
| 20260507033649 | 53 | 307 | 0.9 | 6.1 | 0.03 | 0.19 | 0.19 | 91 | 1004.9 |
| 20260507033634 | 53 | 281 | 0.9 | 4.3 | 0.03 | 0.19 | 0.19 | 91 | 1004.9 |
| 20260507033625 | 53 | 276 | 0.9 | 4.3 | 0.03 | 0.19 | 0.19 | 91 | 1004.9 |
| 20260507033014 | 53 | 257 | 0.9 | 3.5 | 0.03 | 0.19 | 0.19 | 91 | 1004.7 |
| 20260507032925 | 53 | 285 | 0.9 | 5.2 | 0.03 | 0.19 | 0.19 | 91 | 1004.7 |
| 20260507032824 | 53 | 285 | 0.9 | 6.1 | 0.03 | 0.19 | 0.19 | 92 | 1004.7 |
| 20260507032724 | 53 | 243 | 0.9 | 6.1 | 0.03 | 0.19 | 0.19 | 91 | 1004.7 |
| 20260507032623 | 53 | 243 | 0.9 | 6.1 | 0.03 | 0.19 | 0.19 | 91 | 1004.8 |
| 20260507032514 | 53 | 283 | 0.9 | 6.1 | 0.03 | 0.19 | 0.19 | 91 | 1004.8 |
| 20260507032424 | 53 | 284 | 0.9 | 6.1 | 0.03 | 0.19 | 0.19 | 91 | 1004.8 |
| 20260507032323 | 53 | 283 | 0.9 | 6.1 | 0.03 | 0.19 | 0.19 | 91 | 1004.8 |
| 20260507032224 | 54 | 91 | 0.9 | 6.1 | 0.03 | 0.19 | 0.19 | 91 | 1004.7 |
| 20260507032123 | 54 | 285 | 0.9 | 6.1 | 0.03 | 0.19 | 0.19 | 91 | 1004.7 |
| 20260507032024 | 54 | 242 | 0.9 | 6.1 | 0.03 | 0.19 | 0.19 | 91 | 1004.7 |
| 20260507032014 | 54 | 273 | 0.9 | 6.1 | 0.03 | 0.19 | 0.19 | 91 | 1004.7 |
| 20260507031923 | 54 | 294 | 0.9 | 6.1 | 0.03 | 0.19 | 0.19 | 91 | 1004.7 |
| 20260507031850 | 54 | 50 | 0.9 | 3.5 | 0.03 | 0.19 | 0.19 | 91 | 1004.7 |
| 20260507031840 | 54 | 46 | 0.9 | 3.5 | 0.03 | 0.19 | 0.19 | 91 | 1004.7 |
| 20260507031621 | 54 | 297 | 0.9 | 4.3 | 0.03 | 0.19 | 0.19 | 91 | 1004.7 |
| 20260507031524 | 54 | 50 | 1.7 | 5.2 | 0.03 | 0.19 | 0.19 | 91 | 1004.7 |
| 20260507031515 | 54 | 25 | 1.7 | 5.2 | 0.03 | 0.19 | 0.19 | 91 | 1004.7 |
| 20260507031421 | 54 | 297 | 0.9 | 5.2 | 0.03 | 0.19 | 0.19 | 91 | 1004.7 |
| 20260507031321 | 54 | 58 | 0.9 | 5.2 | 0.03 | 0.19 | 0.19 | 91 | 1004.7 |
| 20260507031221 | 55 | 314 | 0.9 | 5.2 | 0.03 | 0.19 | 0.19 | 91 | 1004.6 |
| 20260507031122 | 55 | 42 | 0.9 | 5.2 | 0.03 | 0.19 | 0.19 | 91 | 1004.5 |
| 20260507031022 | 55 | 351 | 0.9 | 5.2 | 0.03 | 0.19 | 0.19 | 91 | 1004.5 |
| 20260507031014 | 55 | 352 | 0.9 | 5.2 | 0.03 | 0.19 | 0.19 | 91 | 1004.5 |
| 20260507030920 | 55 | 297 | 0.9 | 5.2 | 0.03 | 0.19 | 0.19 | 91 | 1004.4 |
| 20260507030821 | 55 | 269 | 0.9 | 5.2 | 0.03 | 0.19 | 0.19 | 91 | 1004.4 |
| 20260507030749 | 55 | 57 | 0.9 | 5.2 | 0.03 | 0.19 | 0.19 | 91 | 1004.4 |
| 20260507030737 | 55 | 308 | 0.9 | 5.2 | 0.03 | 0.19 | 0.19 | 91 | 1004.4 |
| 20260507030516 | 55 | 299 | 0.9 | 4.3 | 0.03 | 0.19 | 0.19 | 91 | 1004.3 |
| 20260507030422 | 56 | 264 | 0.9 | 4.3 | 0.03 | 0.19 | 0.19 | 91 | 1004.3 |
| 20260507030348 | 56 | 302 | 0.9 | 4.3 | 0.03 | 0.19 | 0.19 | 91 | 1004.3 |
| 20260507030337 | 56 | 264 | 0.9 | 4.3 | 0.03 | 0.19 | 0.19 | 91 | 1004.3 |
| 20260507030123 | 56 | 88 | 0.9 | 4.3 | 0.02 | 0.18 | 0.19 | 91 | 1004.4 |
| 20260507030024 | 56 | 303 | 0.9 | 4.3 | 0.02 | 0.18 | 0.18 | 90 | 1004.3 |
| 20260507030016 | 56 | 304 | 0.9 | 4.3 | 0.02 | 0.18 | 0.18 | 90 | 1004.3 |
| 20260507025921 | 56 | 291 | 0.9 | 3.5 | 0.02 | 0.18 | 0.18 | 90 | 1004.3 |
| 20260507025824 | 56 | 285 | 0.9 | 3.5 | 0.02 | 0.18 | 0.18 | 90 | 1004.4 |
| 20260507025717 | 56 | 287 | 0.9 | 3.5 | 0.02 | 0.18 | 0.18 | 90 | 1004.3 |
| 20260507025649 | 56 | 72 | 0.9 | 6.1 | 0.02 | 0.18 | 0.18 | 90 | 1004.4 |
| 20260507025639 | 56 | 85 | 0.9 | 6.1 | 0.02 | 0.18 | 0.18 | 90 | 1004.4 |
| 20260507025518 | 56 | 72 | 0.9 | 6.1 | 0.02 | 0.18 | 0.18 | 90 | 1004.4 |
| 20260507025416 | 56 | 314 | 0.9 | 6.1 | 0.02 | 0.18 | 0.18 | 90 | 1004.4 |
| 20260507025315 | 57 | 293 | 0.9 | 6.1 | 0.01 | 0.17 | 0.17 | 90 | 1004.5 |
| 20260507025251 | 57 | 33 | 0.9 | 7.0 | 0.00 | 0.16 | 0.17 | 90 | 1004.4 |
| 20260507025243 | 57 | 38 | 0.9 | 7.0 | 0.00 | 0.16 | 0.16 | 90 | 1004.5 |
| 20260507025239 | 57 | 291 | 0.9 | 7.0 | 0.00 | 0.16 | 0.16 | 91 | 1004.5 |
| 20260507025229 | 57 | 263 | 0.9 | 7.0 | 0.01 | 0.17 | 0.17 | 90 | 1004.5 |
| 20260507025212 | 57 | 67 | 0.9 | 7.0 | 0.01 | 0.17 | 0.17 | 90 | 1004.4 |
| 20260507025051 | 57 | 33 | 0.9 | 7.0 | 0.00 | 0.16 | 0.17 | 90 | 1004.4 |
| 20260507024916 | 57 | 316 | 0.9 | 7.0 | 0.00 | 0.16 | 0.16 | 90 | 1004.5 |
| 20260507024754 | 57 | 344 | 0.9 | 7.0 | 0.00 | 0.16 | 0.16 | 90 | 1004.6 |
| 20260507024622 | 57 | 233 | 0.9 | 7.0 | 0.00 | 0.16 | 0.16 | 91 | 1004.5 |
| 20260507024439 | 57 | 264 | 0.9 | 7.0 | 0.00 | 0.16 | 0.16 | 91 | 1004.5 |
| 20260507024430 | 57 | 66 | 0.9 | 7.0 | 0.00 | 0.16 | 0.16 | 91 | 1004.5 |
| 20260507024244 | 58 | 135 | 0.0 | 4.3 | 0.00 | 0.16 | 0.16 | 92 | 1004.3 |
| 20260507024234 | 58 | 272 | 0.0 | 7.0 | 0.00 | 0.16 | 0.16 | 92 | 1004.5 |
| 20260507024017 | 58 | 30 | 0.0 | 4.3 | 0.00 | 0.16 | 0.16 | 92 | 1004.3 |
| 20260507023917 | 58 | 340 | 0.9 | 5.2 | 0.00 | 0.16 | 0.16 | 92 | 1004.4 |
| 20260507023811 | 58 | 91 | 0.9 | 5.2 | 0.00 | 0.16 | 0.16 | 92 | 1004.3 |
| 20260507023740 | 58 | 288 | 0.0 | 5.2 | 0.00 | 0.16 | 0.16 | 92 | 1004.4 |
| 20260507023729 | 58 | 46 | 0.9 | 5.2 | 0.00 | 0.16 | 0.16 | 92 | 1004.3 |
| 20260507023511 | 58 | 308 | 0.9 | 5.2 | 0.00 | 0.16 | 0.16 | 92 | 1004.3 |
| 20260507023412 | 58 | 308 | 0.9 | 5.2 | 0.00 | 0.16 | 0.16 | 92 | 1004.3 |
| 20260507023313 | 58 | 307 | 0.9 | 5.2 | 0.00 | 0.16 | 0.16 | 92 | 1004.2 |
| 20260507023236 | 58 | 290 | 0.9 | 5.2 | 0.00 | 0.16 | 0.16 | 92 | 1004.2 |
| 20260507023227 | 58 | 308 | 0.9 | 5.2 | 0.00 | 0.16 | 0.16 | 92 | 1004.2 |
| 20260507023018 | 58 | 300 | 0.0 | 5.2 | 0.00 | 0.16 | 0.16 | 92 | 1004.1 |
| 20260507023012 | 58 | 299 | 0.0 | 5.2 | 0.00 | 0.16 | 0.16 | 92 | 1004.1 |
| 20260507022921 | 58 | 46 | 0.0 | 3.5 | 0.00 | 0.16 | 0.16 | 93 | 1004.1 |
| 20260507022912 | 58 | 355 | 0.0 | 3.5 | 0.00 | 0.16 | 0.16 | 93 | 1004.1 |
| 20260507022902 | 58 | 12 | 0.0 | 3.5 | 0.00 | 0.16 | 0.16 | 93 | 1004.1 |
| 20260507022855 | 58 | 345 | 0.0 | 3.5 | 0.00 | 0.16 | 0.16 | 93 | 1004.1 |
| 20260507022845 | 58 | 44 | 0.0 | 3.5 | 0.00 | 0.16 | 0.16 | 93 | 1004.1 |
| 20260507022603 | 58 | 345 | 0.0 | 3.5 | 0.00 | 0.16 | 0.16 | 93 | 1004.0 |
| 20260507022552 | 58 | 294 | 0.0 | 3.5 | 0.00 | 0.16 | 0.16 | 93 | 1004.1 |
| 20260507022545 | 58 | 293 | 0.0 | 3.5 | 0.00 | 0.16 | 0.16 | 93 | 1004.1 |
| 20260507022245 | 58 | 255 | 0.9 | 3.5 | 0.00 | 0.16 | 0.16 | 93 | 1003.9 |
| 20260507022212 | 58 | 346 | 0.9 | 3.5 | 0.00 | 0.16 | 0.16 | 93 | 1004.0 |
| 20260507022134 | 58 | 340 | 0.9 | 3.5 | 0.00 | 0.16 | 0.16 | 93 | 1003.9 |
| 20260507022013 | 58 | 255 | 0.9 | 3.5 | 0.00 | 0.16 | 0.16 | 93 | 1003.9 |
| 20260507021907 | 58 | 269 | 0.9 | 3.5 | 0.00 | 0.16 | 0.16 | 93 | 1003.8 |
| 20260507021808 | 58 | 277 | 0.9 | 3.5 | 0.00 | 0.16 | 0.16 | 93 | 1003.8 |
| 20260507021707 | 58 | 277 | 0.9 | 2.6 | 0.00 | 0.16 | 0.16 | 94 | 1003.8 |
| 20260507021608 | 58 | 277 | 0.9 | 2.6 | 0.00 | 0.16 | 0.16 | 94 | 1003.8 |
| 20260507021539 | 58 | 300 | 0.9 | 2.6 | 0.00 | 0.16 | 0.16 | 94 | 1003.8 |
| 20260507021529 | 58 | 299 | 0.9 | 2.6 | 0.00 | 0.16 | 0.16 | 94 | 1003.8 |
| 20260507021522 | 58 | 297 | 0.9 | 2.6 | 0.00 | 0.16 | 0.16 | 94 | 1003.8 |
| 20260507021307 | 58 | 60 | 0.9 | 2.6 | 0.00 | 0.16 | 0.16 | 94 | 1003.7 |
| 20260507021207 | 59 | 46 | 0.0 | 2.6 | 0.00 | 0.16 | 0.16 | 94 | 1003.8 |
| 20260507021109 | 59 | 57 | 0.0 | 2.6 | 0.00 | 0.16 | 0.16 | 94 | 1003.8 |
| 20260507021007 | 59 | 120 | 0.0 | 2.6 | 0.00 | 0.16 | 0.16 | 94 | 1003.8 |
| 20260507020908 | 59 | 108 | 0.0 | 2.6 | 0.00 | 0.16 | 0.16 | 94 | 1003.9 |
| 20260507020808 | 59 | 302 | 0.0 | 1.7 | 0.00 | 0.16 | 0.16 | 94 | 1003.9 |
| 20260507020708 | 59 | 322 | 0.0 | 1.7 | 0.00 | 0.16 | 0.16 | 94 | 1003.8 |
| 20260507020607 | 59 | 291 | 0.9 | 3.5 | 0.00 | 0.16 | 0.16 | 94 | 1003.8 |
| 20260507020516 | 59 | 297 | 0.9 | 5.2 | 0.00 | 0.16 | 0.16 | 94 | 1003.8 |
| 20260507020509 | 59 | 304 | 0.9 | 5.2 | 0.00 | 0.16 | 0.16 | 94 | 1003.8 |
| 20260507020433 | 59 | 240 | 0.9 | 5.2 | 0.00 | 0.16 | 0.16 | 94 | 1003.7 |
| 20260507020423 | 59 | 240 | 0.9 | 5.2 | 0.00 | 0.16 | 0.16 | 94 | 1003.7 |
| 20260507020208 | 59 | 126 | 0.9 | 5.2 | 0.00 | 0.16 | 0.16 | 94 | 1003.7 |
| 20260507020200 | 59 | 123 | 0.9 | 5.2 | 0.00 | 0.16 | 0.16 | 94 | 1003.6 |
| 20260507020154 | 59 | 123 | 0.9 | 5.2 | 0.00 | 0.16 | 0.16 | 94 | 1003.6 |
| 20260507020142 | 59 | 126 | 0.9 | 5.2 | 0.00 | 0.16 | 0.16 | 94 | 1003.7 |
| 20260507020121 | 59 | 124 | 0.9 | 5.2 | 0.00 | 0.16 | 0.16 | 94 | 1003.7 |
| 20260507015707 | 59 | 134 | 0.9 | 5.2 | 0.00 | 0.16 | 0.16 | 94 | 1003.6 |
| 20260507015630 | 59 | 150 | 0.9 | 5.2 | 0.00 | 0.16 | 0.16 | 94 | 1003.6 |
| 20260507015507 | 59 | 120 | 0.9 | 3.5 | 0.00 | 0.16 | 0.16 | 94 | 1003.6 |
| 20260507015409 | 59 | 201 | 0.9 | 3.5 | 0.00 | 0.16 | 0.16 | 94 | 1003.6 |
| 20260507015306 | 59 | 142 | 0.0 | 2.6 | 0.00 | 0.16 | 0.16 | 94 | 1003.6 |
| 20260507015203 | 59 | 156 | 0.0 | 1.7 | 0.00 | 0.16 | 0.16 | 94 | 1003.6 |
| 20260507015113 | 59 | 142 | 0.9 | 1.7 | 0.00 | 0.16 | 0.16 | 94 | 1003.5 |
| 20260507015107 | 59 | 186 | 0.0 | 1.7 | 0.00 | 0.16 | 0.16 | 94 | 1003.6 |
| 20260507015046 | 59 | 186 | 0.9 | 1.7 | 0.00 | 0.16 | 0.16 | 94 | 1003.6 |
| 20260507014919 | 59 | 184 | 0.9 | 1.7 | 0.00 | 0.16 | 0.16 | 94 | 1003.5 |
| 20260507014905 | 59 | 132 | 0.9 | 1.7 | 0.00 | 0.16 | 0.16 | 94 | 1003.5 |
| 20260507014848 | 59 | 132 | 0.9 | 1.7 | 0.00 | 0.16 | 0.16 | 94 | 1003.5 |
| 20260507014504 | 59 | 117 | 0.9 | 1.7 | 0.00 | 0.16 | 0.16 | 94 | 1003.5 |
| 20260507014455 | 59 | 114 | 0.9 | 4.3 | 0.00 | 0.16 | 0.16 | 94 | 1003.4 |
| 20260507014450 | 59 | 178 | 0.9 | 4.3 | 0.00 | 0.16 | 0.16 | 94 | 1003.3 |
| 20260507014436 | 59 | 138 | 0.0 | 1.7 | 0.00 | 0.16 | 0.16 | 94 | 1003.4 |
| 20260507014130 | 59 | 125 | 0.9 | 4.3 | 0.00 | 0.16 | 0.16 | 94 | 1003.4 |
| 20260507014003 | 59 | 169 | 0.9 | 4.3 | 0.00 | 0.16 | 0.16 | 94 | 1003.3 |
| 20260507013931 | 59 | 276 | 0.9 | 4.3 | 0.00 | 0.16 | 0.16 | 94 | 1003.4 |
| 20260507013920 | 59 | 276 | 0.9 | 4.3 | 0.00 | 0.16 | 0.16 | 94 | 1003.4 |
| 20260507013730 | 59 | 282 | 0.9 | 4.3 | 0.00 | 0.16 | 0.16 | 94 | 1003.3 |
| 20260507013718 | 59 | 276 | 0.9 | 4.3 | 0.00 | 0.16 | 0.16 | 94 | 1003.4 |
| 20260507013515 | 59 | 167 | 0.9 | 4.3 | 0.00 | 0.16 | 0.16 | 94 | 1003.3 |
| 20260507013506 | 59 | 165 | 0.9 | 4.3 | 0.00 | 0.16 | 0.16 | 94 | 1003.3 |
| 20260507013401 | 59 | 156 | 0.9 | 4.3 | 0.00 | 0.16 | 0.16 | 94 | 1003.4 |
| 20260507013302 | 59 | 145 | 0.9 | 4.3 | 0.00 | 0.16 | 0.16 | 94 | 1003.4 |
| 20260507013202 | 59 | 193 | 0.9 | 1.7 | 0.00 | 0.16 | 0.16 | 94 | 1003.4 |
| 20260507013100 | 59 | 145 | 0.0 | 1.7 | 0.00 | 0.16 | 0.16 | 94 | 1003.4 |
| 20260507013014 | 59 | 139 | 0.0 | 1.7 | 0.00 | 0.16 | 0.16 | 94 | 1003.4 |
| 20260507013000 | 59 | 142 | 0.0 | 1.7 | 0.00 | 0.16 | 0.16 | 94 | 1003.4 |
| 20260507012859 | 59 | 159 | 0.0 | 1.7 | 0.00 | 0.16 | 0.16 | 94 | 1003.4 |
| 20260507012756 | 59 | 145 | 0.0 | 1.7 | 0.00 | 0.16 | 0.16 | 94 | 1003.4 |
| 20260507012656 | 59 | 122 | 0.0 | 1.7 | 0.00 | 0.16 | 0.16 | 94 | 1003.4 |
| 20260507012554 | 59 | 240 | 0.0 | 1.7 | 0.00 | 0.16 | 0.16 | 94 | 1003.3 |
| 20260507012525 | 59 | 192 | 0.0 | 2.6 | 0.00 | 0.16 | 0.16 | 94 | 1003.4 |
| 20260507012518 | 59 | 240 | 0.0 | 1.7 | 0.00 | 0.16 | 0.16 | 94 | 1003.4 |
| 20260507012509 | 59 | 240 | 0.0 | 1.7 | 0.00 | 0.16 | 0.16 | 94 | 1003.4 |
| 20260507012254 | 59 | 191 | 0.0 | 2.6 | 0.00 | 0.16 | 0.16 | 94 | 1003.4 |
| 20260507012155 | 59 | 191 | 0.0 | 3.5 | 0.00 | 0.16 | 0.16 | 94 | 1003.3 |
| 20260507012051 | 59 | 274 | 0.0 | 3.5 | 0.00 | 0.16 | 0.16 | 94 | 1003.4 |
| 20260507012027 | 59 | 276 | 0.0 | 3.5 | 0.00 | 0.16 | 0.16 | 94 | 1003.4 |
| 20260507012019 | 59 | 274 | 0.0 | 3.5 | 0.00 | 0.16 | 0.16 | 94 | 1003.4 |
| 20260507012011 | 59 | 274 | 0.0 | 3.5 | 0.00 | 0.16 | 0.16 | 94 | 1003.4 |
| 20260507011753 | 59 | 188 | 0.0 | 3.5 | 0.00 | 0.16 | 0.16 | 94 | 1003.4 |
| 20260507011652 | 59 | 188 | 0.0 | 3.5 | 0.00 | 0.16 | 0.16 | 94 | 1003.4 |
| 20260507011623 | 59 | 188 | 0.0 | 3.5 | 0.00 | 0.16 | 0.16 | 94 | 1003.4 |
| 20260507011612 | 59 | 188 | 0.0 | 3.5 | 0.00 | 0.16 | 0.16 | 94 | 1003.4 |
| 20260507011600 | 59 | 189 | 0.0 | 3.5 | 0.00 | 0.16 | 0.16 | 94 | 1003.4 |
| 20260507011423 | 59 | 153 | 0.0 | 3.5 | 0.00 | 0.16 | 0.16 | 94 | 1003.4 |
| 20260507011246 | 59 | 201 | 0.0 | 3.5 | 0.00 | 0.16 | 0.16 | 94 | 1003.4 |
| 20260507011229 | 59 | 309 | 0.9 | 4.3 | 0.00 | 0.16 | 0.16 | 94 | 1003.4 |
| 20260507011216 | 59 | 280 | 0.9 | 2.6 | 0.00 | 0.16 | 0.16 | 94 | 1003.4 |
| 20260507011201 | 59 | 191 | 0.9 | 4.3 | 0.00 | 0.16 | 0.16 | 94 | 1003.4 |
| 20260507011040 | 59 | 188 | 0.9 | 4.3 | 0.00 | 0.16 | 0.16 | 94 | 1003.4 |
| 20260507010758 | 59 | 150 | 0.9 | 4.3 | 0.00 | 0.16 | 0.16 | 94 | 1003.4 |
| 20260507010739 | 59 | 186 | 0.9 | 4.3 | 0.00 | 0.16 | 0.16 | 94 | 1003.4 |
| 20260507010442 | 59 | 145 | 0.9 | 4.3 | 0.00 | 0.16 | 0.16 | 94 | 1003.3 |
| 20260507010341 | 59 | 128 | 0.9 | 4.3 | 0.00 | 0.16 | 0.16 | 94 | 1003.4 |
| 20260507010241 | 59 | 233 | 0.9 | 4.3 | 0.00 | 0.16 | 0.16 | 94 | 1003.4 |
| 20260507010141 | 59 | 270 | 0.9 | 4.3 | 0.00 | 0.16 | 0.16 | 94 | 1003.4 |
| 20260507010045 | 59 | 259 | 0.9 | 2.6 | 0.00 | 0.16 | 0.16 | 94 | 1003.4 |
| 20260507010035 | 59 | 153 | 0.9 | 3.5 | 0.00 | 0.16 | 0.16 | 94 | 1003.3 |
| 20260507010031 | 59 | 248 | 0.9 | 3.5 | 0.00 | 0.16 | 0.16 | 94 | 1003.4 |
| 20260507010022 | 59 | 299 | 0.0 | 2.6 | 0.00 | 0.16 | 0.16 | 94 | 1003.4 |
| 20260507010010 | 59 | 161 | 0.0 | 1.7 | 0.00 | 0.16 | 0.16 | 94 | 1003.4 |
| 20260507005847 | 59 | 150 | 0.0 | 1.7 | 0.00 | 0.16 | 0.16 | 94 | 1003.4 |
| 20260507005831 | 59 | 252 | 0.0 | 2.6 | 0.00 | 0.16 | 0.16 | 94 | 1003.4 |
| 20260507005656 | 59 | 143 | 0.9 | 3.5 | 0.00 | 0.16 | 0.16 | 94 | 1003.4 |
| 20260507005334 | 59 | 122 | 0.9 | 3.5 | 0.00 | 0.16 | 0.16 | 94 | 1003.4 |
| 20260507005232 | 59 | 122 | 0.9 | 3.5 | 0.00 | 0.16 | 0.16 | 94 | 1003.4 |
| 20260507005156 | 59 | 122 | 0.9 | 3.5 | 0.00 | 0.16 | 0.16 | 94 | 1003.4 |
| 20260507005147 | 59 | 122 | 0.9 | 3.5 | 0.00 | 0.16 | 0.16 | 94 | 1003.4 |
| 20260507005009 | 59 | 122 | 0.9 | 3.5 | 0.00 | 0.16 | 0.16 | 94 | 1003.4 |
| 20260507004931 | 59 | 122 | 0.9 | 3.5 | 0.00 | 0.16 | 0.16 | 94 | 1003.4 |
| 20260507004832 | 59 | 120 | 0.9 | 3.5 | 0.00 | 0.16 | 0.16 | 94 | 1003.3 |
| 20260507004730 | 59 | 173 | 0.9 | 3.5 | 0.00 | 0.16 | 0.16 | 94 | 1003.4 |
| 20260507004632 | 59 | 162 | 0.9 | 3.5 | 0.00 | 0.16 | 0.16 | 94 | 1003.3 |
| 20260507004528 | 59 | 212 | 0.9 | 3.5 | 0.00 | 0.16 | 0.16 | 94 | 1003.4 |
| 20260507004510 | 59 | 150 | 0.9 | 3.5 | 0.00 | 0.16 | 0.16 | 94 | 1003.4 |
| 20260507004426 | 59 | 291 | 0.9 | 3.5 | 0.00 | 0.16 | 0.16 | 94 | 1003.4 |
| 20260507004327 | 59 | 200 | 0.9 | 3.5 | 0.00 | 0.16 | 0.16 | 94 | 1003.3 |
| 20260507004227 | 59 | 142 | 0.9 | 3.5 | 0.00 | 0.16 | 0.16 | 94 | 1003.3 |
| 20260507004127 | 59 | 131 | 0.9 | 3.5 | 0.00 | 0.16 | 0.16 | 94 | 1003.3 |
| 20260507004024 | 59 | 179 | 0.9 | 3.5 | 0.00 | 0.16 | 0.16 | 94 | 1003.3 |
| 20260507004009 | 59 | 180 | 0.9 | 3.5 | 0.00 | 0.16 | 0.16 | 94 | 1003.3 |
| 20260507003922 | 59 | 175 | 0.9 | 3.5 | 0.00 | 0.16 | 0.16 | 94 | 1003.3 |
| 20260507003817 | 59 | 156 | 0.9 | 3.5 | 0.00 | 0.16 | 0.16 | 94 | 1003.2 |
| 20260507003718 | 59 | 131 | 0.9 | 3.5 | 0.00 | 0.16 | 0.16 | 94 | 1003.2 |
| 20260507003711 | 59 | 167 | 0.9 | 3.5 | 0.00 | 0.16 | 0.16 | 94 | 1003.2 |
| 20260507003704 | 59 | 167 | 0.9 | 3.5 | 0.00 | 0.16 | 0.16 | 94 | 1003.1 |
| 20260507003652 | 59 | 145 | 0.9 | 3.5 | 0.00 | 0.16 | 0.16 | 94 | 1003.2 |
| 20260507003529 | 59 | 167 | 0.9 | 3.5 | 0.00 | 0.16 | 0.16 | 94 | 1003.2 |
| 20260507003312 | 59 | 58 | 0.9 | 3.5 | 0.00 | 0.16 | 0.16 | 94 | 1003.1 |
| 20260507003211 | 59 | 210 | 0.9 | 3.5 | 0.00 | 0.16 | 0.16 | 94 | 1003.0 |
| 20260507003140 | 59 | 117 | 0.0 | 3.5 | 0.00 | 0.16 | 0.16 | 94 | 1003.1 |
| 20260507003131 | 59 | 120 | 0.9 | 3.5 | 0.00 | 0.16 | 0.16 | 94 | 1003.0 |
| 20260507003006 | 59 | 161 | 0.0 | 3.5 | 0.00 | 0.16 | 0.16 | 94 | 1003.1 |
| 20260507002908 | 59 | 153 | 0.0 | 1.7 | 0.00 | 0.16 | 0.16 | 94 | 1003.0 |
| 20260507002804 | 59 | 132 | 0.0 | 1.7 | 0.00 | 0.16 | 0.16 | 94 | 1003.0 |
| 20260507002705 | 59 | 131 | 0.0 | 1.7 | 0.00 | 0.16 | 0.16 | 94 | 1003.0 |
| 20260507002601 | 59 | 344 | 0.0 | 1.7 | 0.00 | 0.16 | 0.16 | 94 | 1003.0 |
| 20260507002508 | 59 | 230 | 0.0 | 1.7 | 0.00 | 0.16 | 0.16 | 94 | 1003.1 |
| 20260507002501 | 59 | 231 | 0.0 | 1.7 | 0.00 | 0.16 | 0.16 | 94 | 1003.1 |
| 20260507002357 | 59 | 231 | 0.0 | 1.7 | 0.00 | 0.16 | 0.16 | 94 | 1003.1 |
| 20260507002258 | 59 | 190 | 0.0 | 1.7 | 0.00 | 0.16 | 0.16 | 94 | 1003.1 |
| 20260507002157 | 59 | 241 | 0.0 | 2.6 | 0.00 | 0.16 | 0.16 | 94 | 1003.1 |
| 20260507002055 | 59 | 249 | 0.9 | 2.6 | 0.00 | 0.16 | 0.16 | 94 | 1003.1 |
| 20260507002026 | 59 | 247 | 0.9 | 3.5 | 0.00 | 0.16 | 0.16 | 94 | 1003.2 |
| 20260507002016 | 59 | 249 | 0.9 | 2.6 | 0.00 | 0.16 | 0.16 | 94 | 1003.1 |
| 20260507002008 | 59 | 248 | 0.9 | 2.6 | 0.00 | 0.16 | 0.16 | 94 | 1003.1 |
| 20260507001749 | 59 | 274 | 0.9 | 5.2 | 0.00 | 0.16 | 0.16 | 94 | 1003.2 |
| 20260507001647 | 59 | 273 | 0.9 | 5.2 | 0.00 | 0.16 | 0.16 | 94 | 1003.2 |
| 20260507001547 | 59 | 205 | 0.9 | 5.2 | 0.00 | 0.16 | 0.16 | 94 | 1003.2 |
| 20260507001502 | 59 | 197 | 0.9 | 5.2 | 0.00 | 0.16 | 0.16 | 94 | 1003.2 |
| 20260507001446 | 59 | 195 | 0.9 | 5.2 | 0.00 | 0.16 | 0.16 | 94 | 1003.2 |
| 20260507001347 | 59 | 200 | 0.9 | 5.2 | 0.00 | 0.16 | 0.16 | 94 | 1003.2 |
| 20260507001244 | 59 | 271 | 0.9 | 5.2 | 0.00 | 0.16 | 0.16 | 94 | 1003.2 |
| 20260507001142 | 59 | 193 | 0.9 | 5.2 | 0.00 | 0.16 | 0.16 | 94 | 1003.1 |
| 20260507001041 | 59 | 280 | 0.9 | 5.2 | 0.00 | 0.16 | 0.16 | 94 | 1003.1 |
| 20260507001002 | 59 | 252 | 0.9 | 5.2 | 0.00 | 0.16 | 0.16 | 94 | 1003.1 |
| 20260507000940 | 59 | 248 | 0.9 | 5.2 | 0.00 | 0.16 | 0.16 | 94 | 1003.1 |
| 20260507000859 | 59 | 210 | 0.9 | 3.5 | 0.00 | 0.16 | 0.16 | 94 | 1003.1 |
| 20260507000851 | 59 | 139 | 0.0 | 3.5 | 0.00 | 0.16 | 0.16 | 94 | 1003.1 |
| 20260507000633 | 59 | 103 | 0.0 | 3.5 | 0.00 | 0.16 | 0.16 | 94 | 1003.1 |
| 20260507000553 | 59 | 195 | 0.0 | 3.5 | 0.00 | 0.16 | 0.16 | 94 | 1003.0 |
| 20260507000545 | 59 | 186 | 0.0 | 3.5 | 0.00 | 0.16 | 0.16 | 94 | 1003.1 |
| 20260507000532 | 59 | 186 | 0.0 | 3.5 | 0.00 | 0.16 | 0.16 | 94 | 1003.1 |
| 20260507000524 | 59 | 184 | 0.0 | 3.5 | 0.00 | 0.16 | 0.16 | 94 | 1003.1 |
| 20260507000409 | 59 | 201 | 0.9 | 3.5 | 0.00 | 0.16 | 0.16 | 94 | 1003.0 |
| 20260507000358 | 59 | 195 | 0.0 | 3.5 | 0.00 | 0.16 | 0.16 | 94 | 1003.0 |
| 20260507000228 | 59 | 162 | 0.9 | 3.5 | 0.00 | 0.16 | 0.16 | 94 | 1003.0 |
| 20260506235926 | 59 | 201 | 0.9 | 3.5 | 0.00 | 0.16 | 0.16 | 94 | 1003.0 |
| 20260506235849 | 59 | 198 | 0.9 | 3.5 | 0.00 | 0.16 | 0.16 | 94 | 1002.9 |
| 20260506235840 | 59 | 200 | 0.9 | 3.5 | 0.00 | 0.16 | 0.16 | 94 | 1003.0 |
| 20260506235624 | 59 | 184 | 0.9 | 3.5 | 0.00 | 0.16 | 0.16 | 94 | 1003.0 |
| 20260506235523 | 59 | 262 | 0.9 | 3.5 | 0.00 | 0.16 | 0.16 | 94 | 1002.9 |
| 20260506235458 | 59 | 262 | 0.9 | 3.5 | 0.00 | 0.16 | 0.16 | 94 | 1002.9 |
| 20260506235420 | 59 | 273 | 0.9 | 3.5 | 0.00 | 0.16 | 0.16 | 94 | 1002.9 |
| 20260506235321 | 59 | 156 | 0.9 | 3.5 | 0.00 | 0.16 | 0.16 | 94 | 1002.8 |
| 20260506235217 | 59 | 191 | 0.9 | 3.5 | 0.00 | 0.16 | 0.16 | 94 | 1002.9 |
| 20260506235142 | 59 | 274 | 0.9 | 3.5 | 0.00 | 0.16 | 0.16 | 94 | 1002.9 |
| 20260506235132 | 59 | 186 | 0.9 | 3.5 | 0.00 | 0.16 | 0.16 | 94 | 1002.9 |
| 20260506234956 | 59 | 148 | 0.9 | 3.5 | 0.00 | 0.16 | 0.16 | 94 | 1002.9 |
| 20260506234916 | 59 | 150 | 0.9 | 3.5 | 0.00 | 0.16 | 0.16 | 94 | 1002.9 |
| 20260506234813 | 59 | 150 | 0.9 | 3.5 | 0.00 | 0.16 | 0.16 | 94 | 1002.9 |
| 20260506234710 | 59 | 142 | 0.9 | 3.5 | 0.00 | 0.16 | 0.16 | 94 | 1002.9 |
| 20260506234608 | 59 | 180 | 0.9 | 3.5 | 0.00 | 0.16 | 0.16 | 94 | 1003.0 |
| 20260506234506 | 59 | 345 | 0.0 | 2.6 | 0.00 | 0.16 | 0.16 | 94 | 1003.0 |
| 20260506234456 | 59 | 94 | 0.0 | 2.6 | 0.00 | 0.16 | 0.16 | 94 | 1003.0 |
| 20260506234403 | 59 | 207 | 0.0 | 2.6 | 0.00 | 0.16 | 0.16 | 94 | 1003.0 |
| 20260506234259 | 59 | 188 | 0.0 | 2.6 | 0.00 | 0.16 | 0.16 | 94 | 1002.9 |
| 20260506234158 | 59 | 156 | 0.0 | 2.6 | 0.00 | 0.16 | 0.16 | 94 | 1002.9 |
| 20260506234128 | 59 | 150 | 0.0 | 2.6 | 0.00 | 0.16 | 0.16 | 94 | 1002.9 |
| 20260506234116 | 59 | 148 | 0.0 | 2.6 | 0.00 | 0.16 | 0.16 | 94 | 1003.0 |
| 20260506233956 | 59 | 150 | 0.0 | 2.6 | 0.00 | 0.16 | 0.16 | 94 | 1002.9 |
| 20260506233855 | 59 | 240 | 0.0 | 1.7 | 0.00 | 0.16 | 0.16 | 94 | 1002.8 |
| 20260506233754 | 59 | 190 | 0.0 | 1.7 | 0.00 | 0.16 | 0.16 | 94 | 1002.8 |
| 20260506233745 | 59 | 225 | 0.9 | 3.5 | 0.00 | 0.16 | 0.16 | 94 | 1002.8 |
| 20260506233651 | 59 | 190 | 0.0 | 1.7 | 0.00 | 0.16 | 0.16 | 94 | 1002.8 |
| 20260506233641 | 59 | 193 | 0.9 | 3.5 | 0.00 | 0.16 | 0.16 | 94 | 1002.9 |
| 20260506233629 | 59 | 225 | 0.9 | 1.7 | 0.00 | 0.16 | 0.16 | 94 | 1002.8 |
| 20260506233507 | 59 | 225 | 0.9 | 3.5 | 0.00 | 0.16 | 0.16 | 94 | 1002.8 |
| 20260506233252 | 59 | 191 | 0.9 | 3.5 | 0.00 | 0.16 | 0.16 | 94 | 1002.9 |
| 20260506233146 | 59 | 271 | 0.9 | 3.5 | 0.00 | 0.16 | 0.16 | 94 | 1002.9 |
| 20260506233047 | 59 | 264 | 0.9 | 3.5 | 0.00 | 0.16 | 0.16 | 94 | 1003.0 |
| 20260506232943 | 59 | 269 | 0.9 | 3.5 | 0.00 | 0.16 | 0.16 | 94 | 1003.0 |
| 20260506232842 | 59 | 252 | 0.9 | 3.5 | 0.00 | 0.16 | 0.16 | 94 | 1003.0 |
| 20260506232737 | 59 | 150 | 0.9 | 3.5 | 0.00 | 0.16 | 0.16 | 94 | 1003.0 |
| 20260506232636 | 59 | 211 | 0.9 | 3.5 | 0.00 | 0.16 | 0.16 | 94 | 1003.0 |
| 20260506232535 | 59 | 172 | 0.9 | 2.6 | 0.00 | 0.16 | 0.16 | 94 | 1003.0 |
| 20260506232451 | 59 | 161 | 0.9 | 2.6 | 0.00 | 0.16 | 0.16 | 94 | 1003.0 |
| 20260506232437 | 59 | 160 | 0.9 | 3.5 | 0.00 | 0.16 | 0.16 | 94 | 1003.0 |
| 20260506232335 | 59 | 198 | 0.9 | 3.5 | 0.00 | 0.16 | 0.16 | 94 | 1003.0 |
| 20260506232230 | 59 | 163 | 0.9 | 3.5 | 0.00 | 0.16 | 0.16 | 94 | 1003.0 |
| 20260506232130 | 59 | 172 | 0.9 | 3.5 | 0.00 | 0.16 | 0.16 | 94 | 1003.0 |
| 20260506232026 | 59 | 172 | 0.9 | 3.5 | 0.00 | 0.16 | 0.16 | 94 | 1003.0 |
| 20260506231927 | 59 | 172 | 0.9 | 3.5 | 0.00 | 0.16 | 0.16 | 94 | 1003.0 |
| 20260506231850 | 59 | 217 | 0.9 | 3.5 | 0.00 | 0.16 | 0.16 | 94 | 1003.0 |
| 20260506231843 | 59 | 274 | 0.9 | 3.5 | 0.00 | 0.16 | 0.16 | 94 | 1003.0 |
| 20260506231839 | 59 | 117 | 0.9 | 3.5 | 0.00 | 0.16 | 0.16 | 94 | 1003.0 |
| 20260506231831 | 59 | 201 | 0.9 | 3.5 | 0.00 | 0.16 | 0.16 | 94 | 1002.9 |
| 20260506231814 | 59 | 212 | 0.9 | 3.5 | 0.00 | 0.16 | 0.16 | 94 | 1002.9 |
| 20260506231640 | 59 | 271 | 0.9 | 3.5 | 0.00 | 0.16 | 0.16 | 94 | 1003.0 |
| 20260506231321 | 59 | 278 | 0.9 | 3.5 | 0.00 | 0.16 | 0.16 | 94 | 1003.0 |
| 20260506231219 | 59 | 314 | 0.9 | 3.5 | 0.00 | 0.16 | 0.16 | 94 | 1003.0 |
| 20260506231118 | 59 | 145 | 0.9 | 3.5 | 0.00 | 0.16 | 0.16 | 94 | 1002.9 |
| 20260506231034 | 59 | 138 | 1.7 | 3.5 | 0.00 | 0.16 | 0.16 | 94 | 1002.9 |
| 20260506231030 | 59 | 325 | 0.9 | 4.3 | 0.00 | 0.16 | 0.16 | 94 | 1003.0 |
| 20260506231023 | 59 | 263 | 1.7 | 4.3 | 0.00 | 0.16 | 0.16 | 94 | 1002.9 |
| 20260506231016 | 59 | 177 | 0.9 | 3.5 | 0.00 | 0.16 | 0.16 | 94 | 1003.0 |
| 20260506231005 | 59 | 210 | 0.9 | 3.5 | 0.00 | 0.16 | 0.16 | 94 | 1003.0 |
| 20260506230955 | 59 | 145 | 0.9 | 3.5 | 0.00 | 0.16 | 0.16 | 94 | 1003.0 |
| 20260506230829 | 59 | 154 | 0.9 | 3.5 | 0.00 | 0.16 | 0.16 | 94 | 1003.0 |
| 20260506230814 | 59 | 153 | 0.9 | 3.5 | 0.00 | 0.16 | 0.16 | 94 | 1003.0 |
| 20260506230533 | 59 | 167 | 0.9 | 4.3 | 0.00 | 0.16 | 0.16 | 94 | 1003.0 |
| 20260506230204 | 59 | 148 | 1.7 | 5.2 | 0.00 | 0.16 | 0.16 | 94 | 1003.0 |
| 20260506230001 | 59 | 163 | 0.9 | 5.2 | 0.00 | 0.16 | 0.16 | 94 | 1003.1 |
| 20260506225946 | 59 | 207 | 0.9 | 5.2 | 0.00 | 0.16 | 0.16 | 94 | 1003.1 |
| 20260506225901 | 59 | 142 | 0.9 | 5.2 | 0.00 | 0.16 | 0.16 | 94 | 1003.0 |
| 20260506225757 | 59 | 153 | 0.9 | 5.2 | 0.00 | 0.16 | 0.16 | 94 | 1003.1 |
| 20260506225659 | 59 | 238 | 0.9 | 5.2 | 0.00 | 0.16 | 0.16 | 94 | 1003.1 |
| 20260506225555 | 59 | 176 | 0.9 | 5.2 | 0.00 | 0.16 | 0.16 | 94 | 1003.1 |
| 20260506225525 | 59 | 150 | 0.0 | 5.2 | 0.00 | 0.16 | 0.16 | 94 | 1003.1 |
| 20260506225516 | 59 | 150 | 0.9 | 5.2 | 0.00 | 0.16 | 0.16 | 94 | 1003.1 |
| 20260506225508 | 59 | 174 | 0.9 | 5.2 | 0.00 | 0.16 | 0.16 | 94 | 1003.1 |
| 20260506225253 | 59 | 129 | 0.0 | 2.6 | 0.00 | 0.16 | 0.16 | 94 | 1003.2 |
| 20260506225149 | 59 | 174 | 0.9 | 3.5 | 0.00 | 0.16 | 0.16 | 94 | 1003.2 |
| 20260506225119 | 59 | 184 | 0.9 | 3.5 | 0.00 | 0.16 | 0.16 | 94 | 1003.2 |
| 20260506225108 | 59 | 176 | 0.9 | 3.5 | 0.00 | 0.16 | 0.16 | 94 | 1003.1 |
| 20260506224946 | 59 | 184 | 0.9 | 3.5 | 0.00 | 0.16 | 0.16 | 94 | 1003.2 |
| 20260506224843 | 59 | 187 | 0.9 | 3.5 | 0.00 | 0.16 | 0.16 | 94 | 1003.2 |
| 20260506224743 | 59 | 139 | 0.9 | 3.5 | 0.00 | 0.16 | 0.16 | 94 | 1003.2 |
| 20260506224643 | 59 | 271 | 0.9 | 3.5 | 0.00 | 0.16 | 0.16 | 94 | 1003.2 |
| 20260506224541 | 59 | 198 | 0.9 | 3.5 | 0.00 | 0.16 | 0.16 | 94 | 1003.2 |
| 20260506224443 | 59 | 197 | 0.9 | 3.5 | 0.00 | 0.16 | 0.16 | 94 | 1003.1 |
| 20260506224339 | 59 | 197 | 0.9 | 3.5 | 0.01 | 0.16 | 0.16 | 94 | 1003.2 |
| 20260506224236 | 59 | 135 | 0.9 | 3.5 | 0.01 | 0.16 | 0.16 | 94 | 1003.1 |
| 20260506224136 | 59 | 197 | 0.9 | 3.5 | 0.01 | 0.16 | 0.16 | 94 | 1003.2 |
| 20260506224034 | 59 | 195 | 0.9 | 3.5 | 0.01 | 0.16 | 0.16 | 93 | 1003.1 |
| 20260506223934 | 59 | 212 | 0.9 | 3.5 | 0.01 | 0.16 | 0.16 | 93 | 1003.1 |
| 20260506223831 | 59 | 139 | 0.9 | 3.5 | 0.01 | 0.16 | 0.16 | 93 | 1003.1 |
| 20260506223730 | 59 | 142 | 0.9 | 3.5 | 0.01 | 0.16 | 0.16 | 93 | 1003.1 |
| 20260506223627 | 59 | 229 | 0.9 | 3.5 | 0.01 | 0.16 | 0.16 | 93 | 1003.2 |
| 20260506223527 | 59 | 150 | 0.9 | 2.6 | 0.01 | 0.16 | 0.16 | 93 | 1003.2 |
| 20260506223437 | 59 | 145 | 0.9 | 2.6 | 0.01 | 0.16 | 0.16 | 93 | 1003.2 |
| 20260506223427 | 59 | 207 | 0.9 | 2.6 | 0.01 | 0.16 | 0.16 | 93 | 1003.2 |
| 20260506223325 | 59 | 183 | 0.9 | 2.6 | 0.01 | 0.16 | 0.16 | 93 | 1003.2 |
| 20260506223258 | 59 | 274 | 0.9 | 2.6 | 0.01 | 0.16 | 0.16 | 93 | 1003.2 |
| 20260506223135 | 59 | 184 | 0.9 | 2.6 | 0.01 | 0.16 | 0.16 | 93 | 1003.2 |
| 20260506222917 | 59 | 172 | 0.9 | 2.6 | 0.01 | 0.16 | 0.16 | 93 | 1003.2 |
| 20260506222841 | 59 | 252 | 0.9 | 2.6 | 0.02 | 0.16 | 0.16 | 93 | 1003.3 |
| 20260506222832 | 59 | 276 | 0.9 | 2.6 | 0.01 | 0.16 | 0.16 | 93 | 1003.3 |
| 20260506222617 | 59 | 278 | 0.9 | 2.6 | 0.02 | 0.16 | 0.16 | 93 | 1003.3 |
| 20260506222515 | 59 | 294 | 0.9 | 4.3 | 0.02 | 0.16 | 0.16 | 93 | 1003.3 |
| 20260506222436 | 59 | 260 | 0.9 | 4.3 | 0.02 | 0.16 | 0.16 | 93 | 1003.3 |
| 20260506222415 | 59 | 215 | 0.9 | 4.3 | 0.02 | 0.16 | 0.16 | 93 | 1003.3 |
| 20260506222313 | 59 | 215 | 0.9 | 4.3 | 0.02 | 0.16 | 0.16 | 93 | 1003.3 |
| 20260506222213 | 59 | 190 | 0.9 | 4.3 | 0.02 | 0.16 | 0.16 | 93 | 1003.3 |
| 20260506222111 | 59 | 195 | 0.9 | 4.3 | 0.02 | 0.16 | 0.16 | 93 | 1003.2 |
| 20260506222043 | 60 | 115 | 0.9 | 4.3 | 0.02 | 0.16 | 0.16 | 93 | 1003.3 |
| 20260506222034 | 60 | 172 | 0.9 | 4.3 | 0.02 | 0.16 | 0.16 | 93 | 1003.2 |
| 20260506222023 | 60 | 134 | 0.9 | 4.3 | 0.02 | 0.16 | 0.16 | 93 | 1003.2 |
| 20260506221810 | 60 | 226 | 0.9 | 4.3 | 0.02 | 0.16 | 0.16 | 93 | 1003.3 |
| 20260506221800 | 60 | 162 | 0.9 | 4.3 | 0.02 | 0.16 | 0.16 | 93 | 1003.3 |
| 20260506221752 | 60 | 187 | 0.9 | 5.2 | 0.02 | 0.16 | 0.16 | 93 | 1003.3 |
| 20260506221748 | 59 | 156 | 1.7 | 5.2 | 0.02 | 0.16 | 0.16 | 93 | 1003.4 |
| 20260506221739 | 60 | 165 | 0.9 | 4.3 | 0.02 | 0.16 | 0.16 | 93 | 1003.3 |
| 20260506221456 | 60 | 232 | 1.7 | 5.2 | 0.02 | 0.16 | 0.16 | 93 | 1003.4 |
| 20260506221437 | 59 | 189 | 0.9 | 5.2 | 0.02 | 0.16 | 0.16 | 93 | 1003.4 |
| 20260506221103 | 60 | 148 | 1.7 | 5.2 | 0.02 | 0.16 | 0.16 | 93 | 1003.3 |
| 20260506221006 | 60 | 271 | 1.7 | 5.2 | 0.02 | 0.16 | 0.16 | 93 | 1003.4 |
| 20260506220932 | 60 | 195 | 1.7 | 5.2 | 0.02 | 0.16 | 0.16 | 93 | 1003.4 |
| 20260506220904 | 60 | 122 | 1.7 | 5.2 | 0.02 | 0.16 | 0.16 | 93 | 1003.3 |
| 20260506220830 | 60 | 184 | 0.9 | 5.2 | 0.02 | 0.16 | 0.16 | 93 | 1003.3 |
| 20260506220820 | 60 | 150 | 1.7 | 5.2 | 0.02 | 0.16 | 0.16 | 93 | 1003.4 |
| 20260506220603 | 60 | 177 | 0.9 | 5.2 | 0.02 | 0.16 | 0.16 | 93 | 1003.3 |
| 20260506220503 | 60 | 155 | 0.9 | 3.5 | 0.02 | 0.16 | 0.16 | 93 | 1003.4 |
| 20260506220432 | 60 | 143 | 0.9 | 3.5 | 0.02 | 0.16 | 0.16 | 93 | 1003.4 |
| 20260506220359 | 60 | 195 | 0.9 | 3.5 | 0.02 | 0.16 | 0.16 | 93 | 1003.4 |
| 20260506220259 | 60 | 285 | 0.9 | 3.5 | 0.02 | 0.16 | 0.16 | 93 | 1003.4 |
| 20260506220206 | 60 | 203 | 0.9 | 2.6 | 0.03 | 0.16 | 0.16 | 93 | 1003.5 |
| 20260506220157 | 60 | 182 | 0.9 | 3.5 | 0.02 | 0.16 | 0.16 | 93 | 1003.4 |
| 20260506220059 | 60 | 163 | 0.9 | 2.6 | 0.02 | 0.16 | 0.16 | 93 | 1003.5 |
| 20260506220043 | 60 | 169 | 0.9 | 2.6 | 0.02 | 0.16 | 0.16 | 93 | 1003.5 |
| 20260506215857 | 60 | 293 | 0.9 | 2.6 | 0.03 | 0.16 | 0.16 | 93 | 1003.5 |
| 20260506215755 | 60 | 283 | 0.9 | 3.5 | 0.03 | 0.16 | 0.16 | 93 | 1003.4 |
| 20260506215653 | 60 | 170 | 0.9 | 3.5 | 0.03 | 0.16 | 0.16 | 93 | 1003.4 |
| 20260506215618 | 60 | 150 | 0.9 | 3.5 | 0.03 | 0.16 | 0.16 | 93 | 1003.4 |
| 20260506215608 | 60 | 184 | 0.9 | 3.5 | 0.03 | 0.16 | 0.16 | 93 | 1003.4 |
| 20260506215431 | 60 | 150 | 0.9 | 3.5 | 0.03 | 0.16 | 0.16 | 93 | 1003.4 |
| 20260506215359 | 60 | 142 | 0.9 | 3.5 | 0.03 | 0.16 | 0.16 | 93 | 1003.4 |
| 20260506215352 | 60 | 236 | 0.9 | 3.5 | 0.03 | 0.16 | 0.16 | 93 | 1003.4 |
| 20260506215333 | 60 | 200 | 0.9 | 3.5 | 0.03 | 0.16 | 0.16 | 93 | 1003.4 |
| 20260506215210 | 60 | 163 | 0.9 | 3.5 | 0.03 | 0.16 | 0.16 | 93 | 1003.4 |
| 20260506215156 | 60 | 160 | 0.9 | 3.5 | 0.03 | 0.16 | 0.16 | 93 | 1003.5 |
| 20260506214841 | 60 | 217 | 0.9 | 3.5 | 0.03 | 0.16 | 0.16 | 93 | 1003.4 |
| 20260506214740 | 60 | 162 | 0.9 | 2.6 | 0.03 | 0.16 | 0.16 | 93 | 1003.4 |
| 20260506214641 | 60 | 134 | 0.9 | 2.6 | 0.03 | 0.16 | 0.16 | 93 | 1003.4 |
| 20260506214537 | 60 | 182 | 0.9 | 2.6 | 0.03 | 0.16 | 0.16 | 93 | 1003.4 |
| 20260506214425 | 60 | 273 | 0.9 | 2.6 | 0.03 | 0.16 | 0.16 | 93 | 1003.4 |
| 20260506214332 | 60 | 134 | 0.9 | 2.6 | 0.02 | 0.15 | 0.15 | 93 | 1003.4 |
| 20260506214228 | 60 | 92 | 0.9 | 2.6 | 0.02 | 0.15 | 0.15 | 93 | 1003.4 |
| 20260506214129 | 60 | 145 | 0.9 | 2.6 | 0.02 | 0.15 | 0.15 | 93 | 1003.4 |
| 20260506214029 | 60 | 255 | 0.9 | 2.6 | 0.02 | 0.15 | 0.15 | 93 | 1003.4 |
| 20260506213929 | 60 | 136 | 0.9 | 2.6 | 0.02 | 0.15 | 0.15 | 93 | 1003.4 |
| 20260506213822 | 60 | 146 | 0.9 | 2.6 | 0.02 | 0.15 | 0.15 | 93 | 1003.4 |
| 20260506213805 | 60 | 139 | 0.9 | 2.6 | 0.02 | 0.15 | 0.15 | 93 | 1003.4 |
| 20260506213622 | 60 | 215 | 0.9 | 2.6 | 0.02 | 0.15 | 0.15 | 93 | 1003.4 |
| 20260506213543 | 60 | 167 | 0.9 | 2.6 | 0.02 | 0.15 | 0.15 | 93 | 1003.3 |
| 20260506213420 | 60 | 167 | 0.9 | 7.0 | 0.02 | 0.15 | 0.15 | 93 | 1003.4 |
| 20260506213317 | 60 | 153 | 0.9 | 7.0 | 0.02 | 0.15 | 0.15 | 93 | 1003.4 |
| 20260506213217 | 60 | 183 | 1.7 | 7.0 | 0.02 | 0.15 | 0.15 | 93 | 1003.4 |
| 20260506213119 | 60 | 153 | 1.7 | 7.0 | 0.03 | 0.15 | 0.15 | 93 | 1003.4 |
| 20260506213015 | 60 | 150 | 1.7 | 7.0 | 0.03 | 0.15 | 0.15 | 93 | 1003.4 |
| 20260506212914 | 60 | 181 | 1.7 | 7.0 | 0.03 | 0.15 | 0.15 | 93 | 1003.4 |
| 20260506212831 | 60 | 228 | 1.7 | 7.0 | 0.02 | 0.14 | 0.15 | 92 | 1003.4 |
| 20260506212823 | 60 | 219 | 1.7 | 7.0 | 0.03 | 0.15 | 0.15 | 92 | 1003.4 |
| 20260506212633 | 60 | 136 | 1.7 | 6.1 | 0.02 | 0.14 | 0.14 | 92 | 1003.4 |
| 20260506212623 | 60 | 132 | 1.7 | 7.0 | 0.02 | 0.14 | 0.14 | 92 | 1003.4 |
| 20260506212421 | 60 | 150 | 1.7 | 5.2 | 0.02 | 0.14 | 0.14 | 92 | 1003.4 |
| 20260506212406 | 60 | 188 | 1.7 | 6.1 | 0.02 | 0.14 | 0.14 | 92 | 1003.4 |
| 20260506212259 | 60 | 106 | 1.7 | 6.1 | 0.02 | 0.14 | 0.14 | 92 | 1003.4 |
| 20260506212236 | 60 | 60 | 1.7 | 6.1 | 0.02 | 0.14 | 0.14 | 92 | 1003.5 |
| 20260506212201 | 60 | 164 | 1.7 | 6.1 | 0.02 | 0.14 | 0.14 | 92 | 1003.4 |
| 20260506212154 | 60 | 257 | 1.7 | 6.1 | 0.02 | 0.14 | 0.14 | 92 | 1003.5 |
| 20260506212140 | 60 | 159 | 1.7 | 6.1 | 0.02 | 0.14 | 0.14 | 92 | 1003.5 |
| 20260506212123 | 60 | 255 | 1.7 | 6.1 | 0.02 | 0.14 | 0.14 | 92 | 1003.5 |
| 20260506211757 | 60 | 225 | 1.7 | 6.1 | 0.02 | 0.14 | 0.14 | 92 | 1003.5 |
| 20260506211657 | 60 | 117 | 1.7 | 6.1 | 0.02 | 0.14 | 0.14 | 92 | 1003.4 |
| 20260506211558 | 60 | 162 | 1.7 | 6.1 | 0.02 | 0.14 | 0.14 | 92 | 1003.5 |
| 20260506211458 | 60 | 169 | 1.7 | 6.1 | 0.02 | 0.14 | 0.14 | 92 | 1003.5 |
| 20260506211419 | 60 | 210 | 1.7 | 6.1 | 0.02 | 0.14 | 0.14 | 92 | 1003.5 |
| 20260506211358 | 60 | 117 | 1.7 | 8.7 | 0.02 | 0.14 | 0.14 | 92 | 1003.5 |
| 20260506211255 | 60 | 145 | 1.7 | 9.6 | 0.02 | 0.14 | 0.14 | 92 | 1003.6 |
| 20260506211153 | 60 | 226 | 1.7 | 9.6 | 0.02 | 0.14 | 0.14 | 92 | 1003.5 |
| 20260506211053 | 60 | 181 | 1.7 | 9.6 | 0.02 | 0.14 | 0.14 | 92 | 1003.5 |
| 20260506210952 | 60 | 172 | 1.7 | 9.6 | 0.02 | 0.14 | 0.14 | 92 | 1003.6 |
| 20260506210919 | 60 | 128 | 1.7 | 9.6 | 0.02 | 0.14 | 0.14 | 92 | 1003.5 |
| 20260506210851 | 60 | 165 | 1.7 | 9.6 | 0.02 | 0.14 | 0.14 | 92 | 1003.5 |
| 20260506210751 | 60 | 120 | 1.7 | 9.6 | 0.02 | 0.14 | 0.14 | 92 | 1003.5 |
| 20260506210651 | 60 | 117 | 1.7 | 9.6 | 0.02 | 0.14 | 0.14 | 92 | 1003.5 |
| 20260506210551 | 60 | 161 | 1.7 | 9.6 | 0.02 | 0.14 | 0.14 | 92 | 1003.5 |
| 20260506210524 | 61 | 280 | 1.7 | 6.1 | 0.02 | 0.14 | 0.14 | 92 | 1003.6 |
| 20260506210514 | 60 | 142 | 1.7 | 9.6 | 0.02 | 0.14 | 0.14 | 92 | 1003.5 |
| 20260506210502 | 61 | 278 | 1.7 | 9.6 | 0.02 | 0.14 | 0.14 | 92 | 1003.6 |
| 20260506210253 | 61 | 262 | 1.7 | 5.2 | 0.02 | 0.14 | 0.14 | 92 | 1003.5 |
| 20260506210159 | 61 | 117 | 1.7 | 5.2 | 0.01 | 0.13 | 0.13 | 92 | 1003.6 |
| 20260506210149 | 61 | 257 | 1.7 | 5.2 | 0.02 | 0.14 | 0.14 | 92 | 1003.5 |
| 20260506210048 | 61 | 277 | 1.7 | 5.2 | 0.02 | 0.14 | 0.14 | 92 | 1003.5 |
| 20260506210031 | 61 | 203 | 1.7 | 5.2 | 0.01 | 0.13 | 0.13 | 92 | 1003.5 |
| 20260506205847 | 61 | 148 | 1.7 | 5.2 | 0.01 | 0.13 | 0.13 | 92 | 1003.6 |
| 20260506205748 | 61 | 210 | 1.7 | 5.2 | 0.02 | 0.13 | 0.13 | 92 | 1003.6 |
| 20260506205648 | 61 | 150 | 1.7 | 5.2 | 0.02 | 0.13 | 0.13 | 92 | 1003.6 |
| 20260506205632 | 61 | 123 | 1.7 | 5.2 | 0.02 | 0.13 | 0.13 | 92 | 1003.6 |
| 20260506205507 | 61 | 183 | 1.7 | 5.2 | 0.02 | 0.13 | 0.13 | 92 | 1003.6 |
| 20260506205458 | 61 | 159 | 1.7 | 5.2 | 0.02 | 0.13 | 0.13 | 92 | 1003.6 |
| 20260506205324 | 61 | 126 | 1.7 | 5.2 | 0.02 | 0.13 | 0.13 | 92 | 1003.7 |
| 20260506205318 | 61 | 159 | 1.7 | 5.2 | 0.02 | 0.13 | 0.13 | 92 | 1003.7 |
| 20260506205308 | 61 | 201 | 1.7 | 5.2 | 0.02 | 0.13 | 0.13 | 92 | 1003.6 |
| 20260506205253 | 61 | 263 | 1.7 | 5.2 | 0.02 | 0.13 | 0.13 | 92 | 1003.7 |
| 20260506205011 | 61 | 236 | 1.7 | 5.2 | 0.02 | 0.13 | 0.13 | 92 | 1003.7 |
| 20260506204850 | 61 | 273 | 1.7 | 6.1 | 0.02 | 0.13 | 0.13 | 92 | 1003.7 |
| 20260506204632 | 61 | 215 | 1.7 | 6.1 | 0.02 | 0.13 | 0.13 | 92 | 1003.7 |
| 20260506204529 | 61 | 160 | 1.7 | 6.1 | 0.03 | 0.13 | 0.13 | 92 | 1003.7 |
| 20260506204428 | 61 | 173 | 1.7 | 6.1 | 0.03 | 0.13 | 0.13 | 92 | 1003.8 |
| 20260506204415 | 61 | 148 | 1.7 | 6.1 | 0.03 | 0.13 | 0.13 | 92 | 1003.8 |
| 20260506204327 | 61 | 249 | 1.7 | 6.1 | 0.03 | 0.13 | 0.13 | 92 | 1003.7 |
| 20260506204227 | 61 | 137 | 1.7 | 6.1 | 0.03 | 0.13 | 0.13 | 92 | 1003.7 |
| 20260506204126 | 61 | 145 | 1.7 | 6.1 | 0.03 | 0.13 | 0.13 | 92 | 1003.7 |
| 20260506204019 | 61 | 186 | 1.7 | 6.1 | 0.03 | 0.13 | 0.13 | 92 | 1003.7 |
| 20260506203954 | 61 | 139 | 1.7 | 5.2 | 0.03 | 0.13 | 0.13 | 92 | 1003.7 |
| 20260506203944 | 61 | 162 | 1.7 | 6.1 | 0.03 | 0.13 | 0.13 | 92 | 1003.7 |
| 20260506203934 | 61 | 79 | 1.7 | 6.1 | 0.03 | 0.13 | 0.13 | 92 | 1003.7 |
| 20260506203719 | 61 | 194 | 1.7 | 5.2 | 0.03 | 0.13 | 0.13 | 92 | 1003.8 |
| 20260506203642 | 61 | 139 | 1.7 | 5.2 | 0.03 | 0.13 | 0.13 | 92 | 1003.8 |
| 20260506203633 | 61 | 170 | 1.7 | 5.2 | 0.03 | 0.13 | 0.13 | 92 | 1003.8 |
| 20260506203411 | 61 | 167 | 1.7 | 5.2 | 0.03 | 0.13 | 0.13 | 92 | 1003.8 |
| 20260506203312 | 61 | 129 | 1.7 | 5.2 | 0.03 | 0.13 | 0.13 | 92 | 1003.8 |
| 20260506203213 | 61 | 180 | 1.7 | 5.2 | 0.03 | 0.13 | 0.13 | 92 | 1003.8 |
| 20260506203132 | 61 | 44 | 1.7 | 5.2 | 0.02 | 0.12 | 0.12 | 92 | 1003.8 |
| 20260506203123 | 61 | 117 | 1.7 | 5.2 | 0.02 | 0.12 | 0.12 | 92 | 1003.8 |
| 20260506202912 | 62 | 161 | 1.7 | 5.2 | 0.02 | 0.12 | 0.12 | 92 | 1003.8 |
| 20260506202905 | 62 | 160 | 1.7 | 5.2 | 0.02 | 0.12 | 0.12 | 92 | 1003.8 |
| 20260506202806 | 62 | 197 | 1.7 | 5.2 | 0.02 | 0.12 | 0.12 | 92 | 1003.8 |
| 20260506202706 | 62 | 103 | 0.9 | 5.2 | 0.02 | 0.12 | 0.12 | 92 | 1003.8 |
| 20260506202606 | 62 | 186 | 0.9 | 5.2 | 0.02 | 0.12 | 0.12 | 92 | 1003.8 |
| 20260506202501 | 62 | 276 | 0.9 | 5.2 | 0.02 | 0.12 | 0.12 | 92 | 1003.8 |
| 20260506202407 | 62 | 210 | 0.9 | 5.2 | 0.02 | 0.12 | 0.12 | 92 | 1003.8 |
| 20260506202359 | 62 | 240 | 0.9 | 5.2 | 0.02 | 0.12 | 0.12 | 92 | 1003.8 |
| 20260506202257 | 62 | 285 | 0.9 | 5.2 | 0.02 | 0.12 | 0.12 | 92 | 1003.8 |
| 20260506202225 | 62 | 186 | 0.0 | 2.6 | 0.02 | 0.12 | 0.12 | 92 | 1003.8 |
| 20260506202215 | 62 | 264 | 0.9 | 5.2 | 0.02 | 0.12 | 0.12 | 92 | 1003.8 |
| 20260506201955 | 62 | 157 | 0.0 | 1.7 | 0.02 | 0.12 | 0.12 | 92 | 1003.8 |
| 20260506201905 | 62 | 156 | 0.0 | 1.7 | 0.02 | 0.12 | 0.12 | 92 | 1003.9 |
| 20260506201855 | 62 | 156 | 0.0 | 1.7 | 0.02 | 0.12 | 0.12 | 92 | 1003.9 |
| 20260506201757 | 62 | 189 | 0.0 | 1.7 | 0.02 | 0.12 | 0.12 | 92 | 1003.9 |
| 20260506201654 | 62 | 156 | 0.0 | 1.7 | 0.02 | 0.12 | 0.12 | 92 | 1003.8 |
| 20260506201553 | 62 | 156 | 0.0 | 1.7 | 0.02 | 0.12 | 0.12 | 92 | 1003.8 |
| 20260506201515 | 62 | 156 | 0.0 | 1.7 | 0.02 | 0.12 | 0.12 | 92 | 1003.9 |
| 20260506201505 | 62 | 153 | 0.0 | 1.7 | 0.02 | 0.12 | 0.12 | 92 | 1003.8 |
| 20260506201453 | 62 | 156 | 0.0 | 1.7 | 0.02 | 0.12 | 0.12 | 92 | 1003.9 |
| 20260506201243 | 62 | 156 | 0.0 | 2.6 | 0.02 | 0.12 | 0.12 | 92 | 1003.9 |
| 20260506201213 | 62 | 262 | 0.0 | 2.6 | 0.02 | 0.12 | 0.12 | 92 | 1003.9 |
| 20260506201209 | 62 | 276 | 0.9 | 3.5 | 0.02 | 0.12 | 0.12 | 92 | 1003.9 |
| 20260506201200 | 62 | 261 | 0.0 | 2.6 | 0.02 | 0.12 | 0.12 | 92 | 1003.9 |
| 20260506201020 | 62 | 276 | 0.9 | 3.5 | 0.02 | 0.12 | 0.12 | 92 | 1003.9 |
| 20260506200837 | 62 | 122 | 0.9 | 3.5 | 0.02 | 0.12 | 0.12 | 92 | 1003.9 |
| 20260506200754 | 62 | 187 | 0.9 | 4.3 | 0.02 | 0.12 | 0.12 | 91 | 1003.9 |
| 20260506200745 | 62 | 186 | 0.9 | 4.3 | 0.02 | 0.12 | 0.12 | 92 | 1003.9 |
| 20260506200731 | 62 | 187 | 0.9 | 4.3 | 0.02 | 0.12 | 0.12 | 91 | 1003.9 |
| 20260506200609 | 62 | 188 | 0.9 | 4.3 | 0.02 | 0.12 | 0.12 | 91 | 1003.9 |
| 20260506200551 | 62 | 188 | 0.9 | 4.3 | 0.02 | 0.12 | 0.12 | 91 | 1003.9 |
| 20260506200228 | 62 | 101 | 0.9 | 4.3 | 0.02 | 0.12 | 0.12 | 91 | 1003.9 |
| 20260506200127 | 62 | 276 | 0.9 | 4.3 | 0.02 | 0.12 | 0.12 | 91 | 1003.9 |
| 20260506200029 | 62 | 132 | 0.9 | 4.3 | 0.02 | 0.12 | 0.12 | 91 | 1003.9 |
| 20260506195923 | 62 | 154 | 0.9 | 4.3 | 0.02 | 0.12 | 0.12 | 91 | 1004.0 |
| 20260506195902 | 62 | 217 | 0.9 | 4.3 | 0.02 | 0.12 | 0.12 | 91 | 1004.0 |
| 20260506195825 | 62 | 139 | 0.9 | 4.3 | 0.02 | 0.12 | 0.12 | 91 | 1004.0 |
| 20260506195721 | 62 | 146 | 0.9 | 5.2 | 0.01 | 0.11 | 0.11 | 91 | 1004.1 |
| 20260506195623 | 62 | 184 | 0.9 | 5.2 | 0.01 | 0.11 | 0.11 | 91 | 1004.1 |
| 20260506195523 | 62 | 254 | 0.9 | 5.2 | 0.01 | 0.11 | 0.11 | 91 | 1004.1 |
| 20260506195413 | 62 | 257 | 0.9 | 5.2 | 0.01 | 0.11 | 0.11 | 91 | 1004.1 |
| 20260506195402 | 62 | 257 | 0.9 | 5.2 | 0.01 | 0.11 | 0.11 | 91 | 1004.1 |
| 20260506195312 | 62 | 187 | 1.7 | 5.2 | 0.01 | 0.11 | 0.11 | 91 | 1004.1 |
| 20260506195213 | 62 | 169 | 1.7 | 5.2 | 0.01 | 0.11 | 0.11 | 91 | 1004.1 |
| 20260506195115 | 62 | 156 | 0.9 | 5.2 | 0.01 | 0.11 | 0.11 | 91 | 1004.2 |
| 20260506195013 | 62 | 270 | 1.7 | 5.2 | 0.01 | 0.11 | 0.11 | 91 | 1004.1 |
| 20260506194911 | 62 | 259 | 1.7 | 7.0 | 0.02 | 0.11 | 0.11 | 91 | 1004.1 |
| 20260506194901 | 62 | 259 | 1.7 | 7.0 | 0.02 | 0.11 | 0.11 | 91 | 1004.1 |
| 20260506194813 | 62 | 148 | 0.9 | 7.0 | 0.02 | 0.11 | 0.11 | 91 | 1004.2 |
| 20260506194713 | 62 | 183 | 0.9 | 7.0 | 0.02 | 0.11 | 0.11 | 91 | 1004.1 |
| 20260506194612 | 62 | 194 | 0.9 | 7.0 | 0.01 | 0.10 | 0.10 | 91 | 1004.2 |
| 20260506194508 | 62 | 153 | 1.7 | 7.0 | 0.01 | 0.10 | 0.10 | 91 | 1004.2 |
| 20260506194407 | 62 | 177 | 0.9 | 7.0 | 0.01 | 0.10 | 0.10 | 91 | 1004.2 |
| 20260506194359 | 62 | 144 | 0.9 | 7.0 | 0.01 | 0.10 | 0.10 | 91 | 1004.2 |
| 20260506194301 | 62 | 270 | 0.9 | 7.0 | 0.01 | 0.10 | 0.10 | 91 | 1004.2 |
| 20260506194201 | 62 | 137 | 0.9 | 7.0 | 0.01 | 0.10 | 0.10 | 91 | 1004.2 |
| 20260506194100 | 62 | 150 | 0.9 | 7.0 | 0.01 | 0.10 | 0.10 | 91 | 1004.2 |
| 20260506194020 | 62 | 142 | 0.9 | 7.0 | 0.01 | 0.10 | 0.10 | 91 | 1004.2 |
| 20260506194003 | 62 | 127 | 0.9 | 5.2 | 0.01 | 0.10 | 0.10 | 91 | 1004.2 |
| 20260506193755 | 62 | 127 | 0.9 | 5.2 | 0.01 | 0.10 | 0.10 | 91 | 1004.2 |
| 20260506193719 | 62 | 139 | 0.9 | 5.2 | 0.01 | 0.10 | 0.10 | 91 | 1004.2 |
| 20260506193708 | 62 | 153 | 1.7 | 5.2 | 0.01 | 0.10 | 0.10 | 91 | 1004.2 |
| 20260506193453 | 62 | 164 | 0.9 | 4.3 | 0.02 | 0.10 | 0.10 | 91 | 1004.2 |
| 20260506193356 | 62 | 91 | 0.9 | 3.5 | 0.02 | 0.10 | 0.10 | 91 | 1004.2 |
| 20260506193347 | 62 | 79 | 0.9 | 3.5 | 0.02 | 0.10 | 0.10 | 91 | 1004.2 |
| 20260506193249 | 62 | 134 | 0.9 | 3.5 | 0.02 | 0.10 | 0.10 | 91 | 1004.2 |
| 20260506193148 | 62 | 212 | 0.9 | 3.5 | 0.02 | 0.10 | 0.10 | 91 | 1004.2 |
| 20260506193121 | 62 | 278 | 0.9 | 3.5 | 0.02 | 0.10 | 0.10 | 91 | 1004.1 |
| 20260506193045 | 62 | 224 | 0.9 | 3.5 | 0.02 | 0.10 | 0.10 | 91 | 1004.2 |
| 20260506193011 | 62 | 281 | 0.9 | 3.5 | 0.02 | 0.10 | 0.10 | 91 | 1004.2 |
| 20260506192841 | 62 | 278 | 0.9 | 3.5 | 0.02 | 0.10 | 0.10 | 91 | 1004.1 |
| 20260506192741 | 62 | 180 | 0.9 | 3.5 | 0.03 | 0.10 | 0.10 | 91 | 1004.0 |
| 20260506192641 | 62 | 115 | 0.9 | 3.5 | 0.03 | 0.10 | 0.10 | 91 | 1004.0 |
| 20260506192542 | 62 | 170 | 0.9 | 3.5 | 0.03 | 0.10 | 0.10 | 91 | 1004.0 |
| 20260506192502 | 62 | 311 | 0.9 | 3.5 | 0.03 | 0.10 | 0.10 | 91 | 1004.0 |
| 20260506192454 | 62 | 280 | 0.9 | 3.5 | 0.03 | 0.10 | 0.10 | 91 | 1004.1 |
| 20260506192442 | 62 | 312 | 0.9 | 3.5 | 0.03 | 0.10 | 0.10 | 91 | 1004.1 |
| 20260506192232 | 62 | 173 | 0.9 | 3.5 | 0.03 | 0.10 | 0.10 | 91 | 1004.0 |
| 20260506192132 | 62 | 218 | 0.9 | 3.5 | 0.03 | 0.10 | 0.10 | 91 | 1004.1 |
| 20260506192031 | 62 | 252 | 0.9 | 3.5 | 0.04 | 0.10 | 0.10 | 91 | 1004.1 |
| 20260506191931 | 62 | 153 | 0.0 | 3.5 | 0.04 | 0.10 | 0.10 | 91 | 1003.9 |
| 20260506191852 | 62 | 156 | 0.0 | 3.5 | 0.04 | 0.10 | 0.10 | 91 | 1003.9 |
| 20260506191830 | 62 | 148 | 0.0 | 3.5 | 0.04 | 0.10 | 0.10 | 91 | 1003.9 |
| 20260506191730 | 62 | 148 | 0.0 | 3.5 | 0.04 | 0.10 | 0.10 | 91 | 1003.9 |
| 20260506191630 | 62 | 120 | 0.0 | 1.7 | 0.04 | 0.10 | 0.10 | 91 | 1003.8 |
| 20260506191551 | 62 | 104 | 0.0 | 1.7 | 0.05 | 0.10 | 0.10 | 91 | 1003.9 |
| 20260506191543 | 62 | 120 | 0.0 | 1.7 | 0.04 | 0.10 | 0.10 | 91 | 1003.9 |
| 20260506191352 | 62 | 104 | 0.0 | 1.7 | 0.05 | 0.10 | 0.10 | 91 | 1003.9 |
| 20260506191328 | 62 | 204 | 0.0 | 1.7 | 0.05 | 0.10 | 0.10 | 91 | 1003.9 |
| 20260506191227 | 62 | 207 | 0.0 | 1.7 | 0.05 | 0.10 | 0.10 | 91 | 1003.8 |
| 20260506191128 | 62 | 148 | 0.0 | 0.9 | 0.05 | 0.10 | 0.10 | 91 | 1003.7 |
| 20260506191049 | 62 | 137 | 0.0 | 1.7 | 0.05 | 0.10 | 0.10 | 91 | 1003.8 |
| 20260506191040 | 62 | 136 | 0.0 | 1.7 | 0.05 | 0.10 | 0.10 | 91 | 1003.8 |
| 20260506190850 | 62 | 136 | 0.0 | 1.7 | 0.05 | 0.10 | 0.10 | 91 | 1003.8 |
| 20260506190823 | 62 | 136 | 0.0 | 1.7 | 0.06 | 0.10 | 0.10 | 91 | 1003.9 |
| 20260506190737 | 62 | 136 | 0.0 | 1.7 | 0.06 | 0.10 | 0.10 | 91 | 1003.9 |
| 20260506190722 | 62 | 225 | 0.0 | 1.7 | 0.06 | 0.10 | 0.10 | 91 | 1003.9 |
| 20260506190523 | 62 | 193 | 0.0 | 1.7 | 0.06 | 0.10 | 0.10 | 91 | 1003.9 |
| 20260506190504 | 62 | 256 | 0.0 | 1.7 | 0.06 | 0.10 | 0.10 | 91 | 1003.9 |
| 20260506190322 | 62 | 255 | 0.0 | 1.7 | 0.06 | 0.10 | 0.10 | 90 | 1004.0 |
| 20260506190220 | 62 | 255 | 0.0 | 1.7 | 0.07 | 0.10 | 0.10 | 90 | 1004.0 |
| 20260506190121 | 62 | 230 | 0.0 | 1.7 | 0.07 | 0.10 | 0.10 | 90 | 1004.1 |
| 20260506190042 | 62 | 274 | 0.0 | 1.7 | 0.07 | 0.10 | 0.10 | 90 | 1004.1 |
| 20260506190034 | 62 | 273 | 0.0 | 1.7 | 0.07 | 0.10 | 0.10 | 90 | 1004.1 |
| 20260506185846 | 62 | 188 | 0.0 | 1.7 | 0.07 | 0.10 | 0.10 | 90 | 1004.1 |
| 20260506185814 | 62 | 188 | 0.0 | 1.7 | 0.07 | 0.10 | 0.10 | 90 | 1004.1 |
| 20260506185715 | 62 | 188 | 0.0 | 1.7 | 0.08 | 0.10 | 0.10 | 90 | 1004.2 |
| 20260506185612 | 62 | 188 | 0.0 | 1.7 | 0.08 | 0.10 | 0.10 | 90 | 1004.2 |
| 20260506185512 | 62 | 189 | 0.0 | 1.7 | 0.08 | 0.10 | 0.10 | 90 | 1004.2 |
| 20260506185429 | 62 | 142 | 0.0 | 1.7 | 0.08 | 0.10 | 0.10 | 90 | 1004.2 |
| 20260506185407 | 62 | 139 | 0.0 | 1.7 | 0.08 | 0.10 | 0.10 | 90 | 1004.2 |
| 20260506185253 | 62 | 141 | 0.9 | 2.6 | 0.09 | 0.10 | 0.10 | 89 | 1004.2 |
| 20260506185242 | 62 | 142 | 0.0 | 1.7 | 0.09 | 0.10 | 0.10 | 90 | 1004.2 |
| 20260506184905 | 62 | 127 | 0.9 | 3.5 | 0.08 | 0.09 | 0.09 | 89 | 1004.2 |
| 20260506184845 | 62 | 156 | 0.9 | 3.5 | 0.08 | 0.09 | 0.09 | 89 | 1004.2 |
| 20260506184805 | 62 | 139 | 0.9 | 3.5 | 0.08 | 0.09 | 0.09 | 89 | 1004.2 |
| 20260506184707 | 62 | 142 | 0.9 | 3.5 | 0.08 | 0.09 | 0.09 | 89 | 1004.3 |
| 20260506184605 | 62 | 154 | 0.9 | 3.5 | 0.08 | 0.09 | 0.09 | 89 | 1004.3 |
| 20260506184507 | 62 | 186 | 0.9 | 3.5 | 0.08 | 0.09 | 0.09 | 89 | 1004.3 |
| 20260506184406 | 62 | 264 | 0.9 | 3.5 | 0.09 | 0.09 | 0.09 | 89 | 1004.4 |
| 20260506184356 | 62 | 280 | 0.9 | 3.5 | 0.09 | 0.09 | 0.09 | 89 | 1004.4 |
| 20260506184345 | 62 | 160 | 0.9 | 3.5 | 0.09 | 0.09 | 0.09 | 89 | 1004.4 |
| 20260506184224 | 62 | 302 | 0.9 | 3.5 | 0.09 | 0.09 | 0.09 | 89 | 1004.4 |
| 20260506184004 | 62 | 142 | 0.9 | 3.5 | 0.09 | 0.09 | 0.09 | 89 | 1004.4 |
| 20260506183903 | 62 | 154 | 0.9 | 5.2 | 0.09 | 0.09 | 0.09 | 89 | 1004.5 |
| 20260506183840 | 62 | 153 | 0.9 | 5.2 | 0.09 | 0.09 | 0.09 | 89 | 1004.5 |
| 20260506183803 | 62 | 156 | 0.9 | 5.2 | 0.09 | 0.09 | 0.09 | 89 | 1004.5 |
| 20260506183700 | 62 | 146 | 0.9 | 5.2 | 0.09 | 0.09 | 0.09 | 88 | 1004.6 |
| 20260506183602 | 62 | 156 | 0.9 | 5.2 | 0.09 | 0.09 | 0.09 | 88 | 1004.7 |
| 20260506183457 | 62 | 283 | 0.9 | 5.2 | 0.08 | 0.08 | 0.08 | 88 | 1004.7 |
| 20260506183358 | 62 | 148 | 0.0 | 5.2 | 0.08 | 0.08 | 0.08 | 88 | 1004.7 |
| 20260506183333 | 62 | 267 | 0.0 | 5.2 | 0.08 | 0.08 | 0.08 | 88 | 1004.7 |
| 20260506183257 | 62 | 257 | 0.0 | 5.2 | 0.08 | 0.08 | 0.08 | 88 | 1004.7 |
| 20260506183155 | 62 | 235 | 0.0 | 5.2 | 0.08 | 0.08 | 0.08 | 88 | 1004.7 |
| 20260506183052 | 62 | 160 | 0.0 | 5.2 | 0.08 | 0.08 | 0.08 | 88 | 1004.7 |
| 20260506182951 | 62 | 142 | 0.0 | 1.7 | 0.08 | 0.08 | 0.08 | 88 | 1004.7 |
| 20260506182852 | 62 | 159 | 0.0 | 0.9 | 0.08 | 0.08 | 0.08 | 88 | 1004.7 |
| 20260506182828 | 62 | 159 | 0.0 | 0.9 | 0.07 | 0.07 | 0.07 | 88 | 1004.7 |
| 20260506182749 | 62 | 264 | 0.0 | 1.7 | 0.07 | 0.07 | 0.07 | 87 | 1004.7 |
| 20260506182648 | 62 | 269 | 0.0 | 2.6 | 0.07 | 0.07 | 0.07 | 87 | 1004.7 |
| 20260506182545 | 62 | 269 | 0.0 | 2.6 | 0.07 | 0.07 | 0.07 | 87 | 1004.7 |
| 20260506182445 | 62 | 265 | 0.9 | 2.6 | 0.07 | 0.07 | 0.07 | 87 | 1004.8 |
| 20260506182344 | 62 | 128 | 0.9 | 2.6 | 0.07 | 0.07 | 0.07 | 87 | 1004.8 |
| 20260506182327 | 62 | 252 | 0.9 | 2.6 | 0.07 | 0.07 | 0.07 | 87 | 1004.8 |
| 20260506182243 | 62 | 188 | 0.9 | 2.6 | 0.07 | 0.07 | 0.07 | 86 | 1004.8 |
| 20260506182144 | 62 | 151 | 0.9 | 2.6 | 0.07 | 0.07 | 0.07 | 86 | 1004.8 |
| 20260506182035 | 62 | 197 | 0.9 | 2.6 | 0.06 | 0.06 | 0.06 | 86 | 1004.8 |
| 20260506181936 | 63 | 197 | 0.9 | 2.6 | 0.06 | 0.06 | 0.06 | 86 | 1004.8 |
| 20260506181836 | 63 | 198 | 0.9 | 2.6 | 0.06 | 0.06 | 0.06 | 86 | 1004.8 |
| 20260506181828 | 63 | 198 | 0.9 | 2.6 | 0.06 | 0.06 | 0.06 | 86 | 1004.9 |
| 20260506181736 | 63 | 190 | 0.9 | 3.5 | 0.06 | 0.06 | 0.06 | 86 | 1004.9 |
| 20260506181636 | 63 | 156 | 0.9 | 3.5 | 0.06 | 0.06 | 0.06 | 85 | 1005.0 |
| 20260506181531 | 63 | 161 | 0.9 | 3.5 | 0.06 | 0.06 | 0.06 | 85 | 1004.9 |
| 20260506181432 | 63 | 150 | 0.9 | 4.3 | 0.05 | 0.05 | 0.06 | 85 | 1004.9 |
| 20260506181336 | 63 | 158 | 0.9 | 4.3 | 0.05 | 0.05 | 0.05 | 85 | 1005.0 |
| 20260506181327 | 63 | 158 | 0.9 | 4.3 | 0.05 | 0.05 | 0.05 | 85 | 1004.9 |
| 20260506181241 | 63 | 156 | 0.9 | 4.3 | 0.05 | 0.05 | 0.05 | 84 | 1004.9 |
| 20260506181234 | 63 | 167 | 0.9 | 4.3 | 0.05 | 0.05 | 0.05 | 85 | 1005.0 |
| 20260506181215 | 63 | 201 | 0.9 | 4.3 | 0.05 | 0.05 | 0.05 | 84 | 1005.0 |
| 20260506180937 | 63 | 162 | 0.9 | 4.3 | 0.05 | 0.05 | 0.05 | 84 | 1004.9 |
| 20260506180920 | 63 | 137 | 0.9 | 4.3 | 0.04 | 0.04 | 0.05 | 83 | 1004.9 |
| 20260506180913 | 63 | 145 | 0.9 | 4.3 | 0.04 | 0.04 | 0.05 | 83 | 1004.9 |
| 20260506180635 | 63 | 132 | 0.9 | 4.3 | 0.04 | 0.04 | 0.04 | 83 | 1004.9 |
| 20260506180426 | 64 | 120 | 0.9 | 3.5 | 0.03 | 0.03 | 0.03 | 82 | 1005.1 |
| 20260506180419 | 64 | 154 | 0.9 | 3.5 | 0.04 | 0.04 | 0.04 | 83 | 1005.1 |
| 20260506180409 | 64 | 280 | 0.9 | 3.5 | 0.03 | 0.03 | 0.03 | 81 | 1005.0 |
| 20260506180404 | 64 | 153 | 0.9 | 3.5 | 0.03 | 0.03 | 0.03 | 82 | 1005.1 |
| 20260506180359 | 64 | 139 | 0.9 | 3.5 | 0.03 | 0.03 | 0.03 | 82 | 1005.1 |
| 20260506180347 | 64 | 273 | 0.9 | 3.5 | 0.04 | 0.04 | 0.04 | 82 | 1005.1 |
| 20260506180340 | 64 | 272 | 0.9 | 3.5 | 0.04 | 0.04 | 0.04 | 82 | 1005.1 |
| 20260506180326 | 64 | 261 | 0.9 | 3.5 | 0.03 | 0.03 | 0.03 | 82 | 1005.1 |
| 20260506180034 | 64 | 138 | 0.9 | 3.5 | 0.03 | 0.03 | 0.03 | 82 | 1004.9 |
| 20260506175735 | 65 | 114 | 0.9 | 3.5 | 0.02 | 0.02 | 0.02 | 81 | 1005.1 |
| 20260506175727 | 64 | 114 | 0.9 | 3.5 | 0.02 | 0.02 | 0.03 | 81 | 1005.1 |
| 20260506175534 | 65 | 264 | 0.9 | 3.5 | 0.02 | 0.02 | 0.02 | 79 | 1005.2 |
| 20260506175524 | 65 | 145 | 0.9 | 3.5 | 0.02 | 0.02 | 0.02 | 80 | 1005.2 |
| 20260506175328 | 65 | 153 | 0.9 | 3.5 | 0.02 | 0.02 | 0.02 | 78 | 1005.2 |
| 20260506175310 | 65 | 160 | 0.0 | 3.5 | 0.02 | 0.02 | 0.02 | 78 | 1005.2 |
| 20260506175207 | 65 | 136 | 0.9 | 1.7 | 0.01 | 0.01 | 0.02 | 77 | 1005.2 |
| 20260506175104 | 65 | 136 | 0.9 | 2.6 | 0.01 | 0.01 | 0.01 | 77 | 1005.2 |
| 20260506175005 | 65 | 123 | 0.9 | 2.6 | 0.01 | 0.01 | 0.01 | 77 | 1005.3 |
| 20260506174903 | 66 | 103 | 0.9 | 3.5 | 0.01 | 0.01 | 0.01 | 77 | 1005.3 |
| 20260506174827 | 66 | 137 | 0.9 | 3.5 | 0.01 | 0.01 | 0.01 | 76 | 1005.3 |
| 20260506174802 | 66 | 165 | 0.9 | 3.5 | 0.01 | 0.01 | 0.01 | 76 | 1005.3 |
| 20260506174702 | 66 | 280 | 0.9 | 3.5 | 0.01 | 0.01 | 0.01 | 76 | 1005.3 |
| 20260506174600 | 66 | 208 | 0.9 | 3.5 | 0.01 | 0.01 | 0.01 | 75 | 1005.2 |
| 20260506174520 | 67 | 128 | 1.7 | 7.0 | 0.00 | 0.00 | 0.00 | 74 | 1005.2 |
| 20260506174509 | 66 | 238 | 1.7 | 7.0 | 0.00 | 0.00 | 0.00 | 74 | 1005.2 |
| 20260506174329 | 67 | 123 | 1.7 | 7.0 | 0.00 | 0.00 | 0.00 | 74 | 1005.2 |
| 20260506174322 | 67 | 163 | 1.7 | 7.0 | 0.00 | 0.00 | 0.00 | 72 | 1005.2 |
| 20260506174311 | 67 | 120 | 1.7 | 7.0 | 0.00 | 0.00 | 0.00 | 73 | 1005.2 |
| 20260506174058 | 67 | 156 | 2.6 | 7.0 | 0.00 | 0.00 | 0.00 | 71 | 1005.2 |
| 20260506174049 | 67 | 111 | 2.6 | 7.0 | 0.00 | 0.00 | 0.00 | 70 | 1005.2 |
| 20260506174043 | 68 | 98 | 2.6 | 7.0 | 0.00 | 0.00 | 0.00 | 69 | 1005.2 |
| 20260506174029 | 67 | 186 | 1.7 | 7.0 | 0.00 | 0.00 | 0.00 | 71 | 1005.2 |
| 20260506173901 | 68 | 112 | 2.6 | 7.0 | 0.00 | 0.00 | 0.00 | 70 | 1005.2 |
| 20260506173648 | 68 | 283 | 2.6 | 7.0 | 0.00 | 0.00 | 0.00 | 69 | 1005.2 |
| 20260506173556 | 68 | 235 | 2.6 | 8.7 | 0.00 | 0.00 | 0.00 | 68 | 1005.1 |
| 20260506173546 | 68 | 243 | 2.6 | 7.0 | 0.00 | 0.00 | 0.00 | 68 | 1005.2 |
| 20260506173452 | 68 | 142 | 2.6 | 7.0 | 0.00 | 0.00 | 0.00 | 68 | 1005.2 |
| 20260506173436 | 68 | 143 | 2.6 | 8.7 | 0.00 | 0.00 | 0.00 | 68 | 1005.1 |
| 20260506173242 | 69 | 135 | 2.6 | 8.7 | 0.00 | 0.00 | 0.00 | 68 | 1005.1 |
| 20260506173142 | 69 | 85 | 2.6 | 8.7 | 0.00 | 0.00 | 0.00 | 67 | 1005.0 |
| 20260506173042 | 69 | 165 | 1.7 | 8.7 | 0.00 | 0.00 | 0.00 | 67 | 1005.1 |
| 20260506172936 | 69 | 191 | 2.6 | 8.7 | 0.00 | 0.00 | 0.00 | 67 | 1005.0 |
| 20260506172836 | 69 | 279 | 1.7 | 8.7 | 0.00 | 0.00 | 0.00 | 66 | 1005.0 |
| 20260506172827 | 69 | 273 | 1.7 | 8.7 | 0.00 | 0.00 | 0.00 | 66 | 1005.0 |
| 20260506172736 | 69 | 142 | 1.7 | 8.7 | 0.00 | 0.00 | 0.00 | 65 | 1005.0 |
| 20260506172637 | 69 | 120 | 2.6 | 12.2 | 0.00 | 0.00 | 0.00 | 65 | 1004.9 |
| 20260506172535 | 69 | 271 | 1.7 | 12.2 | 0.00 | 0.00 | 0.00 | 64 | 1004.8 |
| 20260506172430 | 70 | 159 | 1.7 | 12.2 | 0.00 | 0.00 | 0.00 | 65 | 1004.9 |
| 20260506172334 | 70 | 101 | 1.7 | 12.2 | 0.00 | 0.00 | 0.00 | 64 | 1004.9 |
| 20260506172325 | 70 | 101 | 1.7 | 12.2 | 0.00 | 0.00 | 0.00 | 64 | 1004.8 |
| 20260506172233 | 70 | 295 | 1.7 | 12.2 | 0.00 | 0.00 | 0.00 | 64 | 1004.8 |
| 20260506172131 | 70 | 134 | 1.7 | 12.2 | 0.00 | 0.00 | 0.00 | 64 | 1004.7 |
| 20260506172031 | 70 | 164 | 1.7 | 12.2 | 0.00 | 0.00 | 0.00 | 64 | 1004.7 |
| 20260506172004 | 70 | 273 | 1.7 | 12.2 | 0.00 | 0.00 | 0.00 | 63 | 1004.6 |
| 20260506171952 | 70 | 270 | 1.7 | 12.2 | 0.00 | 0.00 | 0.00 | 63 | 1004.7 |
| 20260506171828 | 70 | 273 | 1.7 | 12.2 | 0.00 | 0.00 | 0.00 | 63 | 1004.6 |
| 20260506171728 | 70 | 176 | 1.7 | 12.2 | 0.00 | 0.00 | 0.00 | 63 | 1004.7 |
| 20260506171654 | 70 | 323 | 1.7 | 7.0 | 0.00 | 0.00 | 0.00 | 63 | 1004.6 |
| 20260506171645 | 70 | 50 | 1.7 | 7.0 | 0.00 | 0.00 | 0.00 | 62 | 1004.7 |
| 20260506171428 | 70 | 134 | 1.7 | 7.0 | 0.00 | 0.00 | 0.00 | 63 | 1004.7 |
| 20260506171333 | 70 | 146 | 1.7 | 7.0 | 0.00 | 0.00 | 0.00 | 63 | 1004.7 |
| 20260506171327 | 70 | 145 | 1.7 | 7.0 | 0.00 | 0.00 | 0.00 | 63 | 1004.7 |
| 20260506171228 | 70 | 276 | 1.7 | 7.0 | 0.00 | 0.00 | 0.00 | 62 | 1004.6 |
| 20260506171128 | 70 | 277 | 1.7 | 9.6 | 0.00 | 0.00 | 0.00 | 63 | 1004.6 |
| 20260506171029 | 70 | 281 | 1.7 | 9.6 | 0.00 | 0.00 | 0.00 | 63 | 1004.5 |
| 20260506170928 | 70 | 108 | 1.7 | 9.6 | 0.00 | 0.00 | 0.00 | 62 | 1004.6 |
| 20260506170829 | 70 | 340 | 2.6 | 9.6 | 0.00 | 0.00 | 0.00 | 62 | 1004.7 |
| 20260506170753 | 70 | 299 | 2.6 | 9.6 | 0.00 | 0.00 | 0.00 | 63 | 1004.7 |
| 20260506170743 | 70 | 52 | 2.6 | 9.6 | 0.00 | 0.00 | 0.00 | 62 | 1004.6 |
| 20260506170527 | 70 | 283 | 2.6 | 9.6 | 0.00 | 0.00 | 0.00 | 62 | 1004.7 |
| 20260506170428 | 70 | 201 | 2.6 | 9.6 | 0.00 | 0.00 | 0.00 | 62 | 1004.6 |
| 20260506170354 | 70 | 271 | 2.6 | 9.6 | 0.00 | 0.00 | 0.00 | 62 | 1004.6 |
| 20260506170341 | 70 | 157 | 2.6 | 9.6 | 0.00 | 0.00 | 0.00 | 62 | 1004.7 |
| 20260506170149 | 70 | 142 | 2.6 | 8.7 | 0.00 | 0.00 | 0.00 | 63 | 1004.7 |
| 20260506170137 | 70 | 240 | 2.6 | 8.7 | 0.00 | 0.00 | 0.00 | 62 | 1004.7 |
| 20260506165921 | 70 | 112 | 2.6 | 8.7 | 0.00 | 0.00 | 0.00 | 63 | 1004.7 |
| 20260506165828 | 70 | 210 | 2.6 | 8.7 | 0.00 | 0.00 | 0.00 | 64 | 1004.8 |
| 20260506165821 | 70 | 142 | 2.6 | 8.7 | 0.00 | 0.00 | 0.00 | 64 | 1004.8 |
| 20260506165717 | 70 | 263 | 2.6 | 8.7 | 0.00 | 0.00 | 0.00 | 63 | 1004.7 |
| 20260506165618 | 70 | 198 | 2.6 | 8.7 | 0.00 | 0.00 | 0.00 | 63 | 1004.7 |
| 20260506165515 | 70 | 285 | 1.7 | 8.7 | 0.00 | 0.00 | 0.00 | 63 | 1004.7 |
| 20260506165415 | 70 | 278 | 1.7 | 8.7 | 0.00 | 0.00 | 0.00 | 63 | 1004.8 |
| 20260506165325 | 70 | 186 | 1.7 | 8.7 | 0.00 | 0.00 | 0.00 | 63 | 1004.7 |
| 20260506165315 | 70 | 197 | 1.7 | 8.7 | 0.00 | 0.00 | 0.00 | 63 | 1004.7 |
| 20260506165213 | 70 | 136 | 1.7 | 8.7 | 0.00 | 0.00 | 0.00 | 64 | 1004.8 |
| 20260506165153 | 70 | 304 | 1.7 | 8.7 | 0.00 | 0.00 | 0.00 | 63 | 1004.8 |
| 20260506165030 | 70 | 260 | 1.7 | 8.7 | 0.00 | 0.00 | 0.00 | 63 | 1004.7 |
| 20260506164826 | 70 | 139 | 0.9 | 6.1 | 0.00 | 0.00 | 0.00 | 64 | 1004.8 |
| 20260506164809 | 70 | 276 | 0.9 | 6.1 | 0.00 | 0.00 | 0.00 | 64 | 1004.8 |
| 20260506164709 | 70 | 120 | 0.9 | 3.5 | 0.00 | 0.00 | 0.00 | 66 | 1004.9 |
| 20260506164607 | 70 | 259 | 0.9 | 5.2 | 0.00 | 0.00 | 0.00 | 65 | 1004.8 |
| 20260506164553 | 70 | 135 | 0.9 | 5.2 | 0.00 | 0.00 | 0.00 | 65 | 1004.9 |
| 20260506164505 | 70 | 271 | 0.9 | 5.2 | 0.00 | 0.00 | 0.00 | 65 | 1004.8 |
| 20260506164438 | 70 | 108 | 0.9 | 5.2 | 0.00 | 0.00 | 0.00 | 65 | 1004.8 |
| 20260506164305 | 70 | 162 | 0.9 | 5.2 | 0.00 | 0.00 | 0.00 | 65 | 1004.9 |
| 20260506164226 | 70 | 103 | 0.9 | 5.2 | 0.00 | 0.00 | 0.00 | 65 | 1004.8 |
| 20260506164057 | 70 | 269 | 0.9 | 5.2 | 0.00 | 0.00 | 0.00 | 65 | 1004.8 |
| 20260506164011 | 70 | 136 | 0.9 | 5.2 | 0.00 | 0.00 | 0.00 | 65 | 1004.8 |
| 20260506163956 | 70 | 132 | 0.9 | 5.2 | 0.00 | 0.00 | 0.00 | 65 | 1004.8 |
| 20260506163834 | 70 | 139 | 0.9 | 5.2 | 0.00 | 0.00 | 0.00 | 65 | 1004.9 |
| 20260506163710 | 70 | 188 | 0.9 | 5.2 | 0.00 | 0.00 | 0.00 | 65 | 1004.9 |
| 20260506163453 | 70 | 148 | 1.7 | 6.1 | 0.00 | 0.00 | 0.00 | 65 | 1004.8 |
| 20260506163440 | 70 | 128 | 1.7 | 6.1 | 0.00 | 0.00 | 0.00 | 65 | 1005.0 |
| 20260506163433 | 70 | 167 | 1.7 | 6.1 | 0.00 | 0.00 | 0.00 | 65 | 1005.0 |
| 20260506163422 | 70 | 136 | 1.7 | 6.1 | 0.00 | 0.00 | 0.00 | 65 | 1004.9 |
| 20260506163412 | 70 | 136 | 1.7 | 6.1 | 0.00 | 0.00 | 0.00 | 65 | 1005.0 |
| 20260506163043 | 70 | 159 | 1.7 | 6.1 | 0.00 | 0.00 | 0.00 | 64 | 1004.9 |
| 20260506162943 | 70 | 222 | 1.7 | 6.1 | 0.00 | 0.00 | 0.00 | 64 | 1005.0 |
| 20260506162843 | 70 | 139 | 1.7 | 6.1 | 0.00 | 0.00 | 0.00 | 64 | 1005.0 |
| 20260506162826 | 70 | 127 | 1.7 | 6.1 | 0.00 | 0.00 | 0.00 | 64 | 1005.1 |
| 20260506162743 | 70 | 176 | 1.7 | 6.1 | 0.00 | 0.00 | 0.00 | 64 | 1005.1 |
| 20260506162709 | 70 | 169 | 1.7 | 5.2 | 0.00 | 0.00 | 0.00 | 64 | 1005.1 |
| 20260506162658 | 70 | 139 | 1.7 | 6.1 | 0.00 | 0.00 | 0.00 | 64 | 1005.1 |
| 20260506162442 | 70 | 163 | 1.7 | 5.2 | 0.00 | 0.00 | 0.00 | 64 | 1005.1 |
| 20260506162341 | 70 | 170 | 1.7 | 5.2 | 0.00 | 0.00 | 0.00 | 65 | 1005.2 |
| 20260506162328 | 70 | 267 | 1.7 | 4.3 | 0.00 | 0.00 | 0.00 | 65 | 1005.1 |
| 20260506162238 | 70 | 145 | 1.7 | 4.3 | 0.00 | 0.00 | 0.00 | 65 | 1005.1 |
| 20260506162133 | 70 | 231 | 1.7 | 6.1 | 0.00 | 0.00 | 0.00 | 65 | 1005.2 |
| 20260506162033 | 70 | 172 | 1.7 | 7.0 | 0.00 | 0.00 | 0.00 | 65 | 1005.2 |
| 20260506162004 | 70 | 148 | 2.6 | 7.0 | 0.00 | 0.00 | 0.00 | 65 | 1005.2 |
| 20260506161954 | 70 | 139 | 2.6 | 7.0 | 0.00 | 0.00 | 0.00 | 65 | 1005.1 |
| 20260506161826 | 70 | 148 | 2.6 | 7.0 | 0.00 | 0.00 | 0.00 | 65 | 1005.2 |
| 20260506161730 | 70 | 150 | 1.7 | 7.0 | 0.00 | 0.00 | 0.00 | 64 | 1005.1 |
| 20260506161626 | 70 | 276 | 1.7 | 7.0 | 0.00 | 0.00 | 0.00 | 64 | 1005.1 |
| 20260506161525 | 70 | 162 | 1.7 | 7.0 | 0.00 | 0.00 | 0.00 | 65 | 1005.1 |
| 20260506161448 | 70 | 150 | 1.7 | 7.0 | 0.00 | 0.00 | 0.00 | 65 | 1005.2 |
| 20260506161432 | 70 | 136 | 1.7 | 7.0 | 0.00 | 0.00 | 0.00 | 64 | 1005.2 |
| 20260506161226 | 70 | 172 | 1.7 | 7.0 | 0.00 | 0.00 | 0.00 | 65 | 1005.2 |
| 20260506161117 | 70 | 129 | 1.7 | 7.0 | 0.00 | 0.00 | 0.00 | 65 | 1005.2 |
| 20260506161058 | 70 | 276 | 1.7 | 3.5 | 0.00 | 0.00 | 0.00 | 65 | 1005.3 |
| 20260506161029 | 70 | 170 | 1.7 | 6.1 | 0.00 | 0.00 | 0.00 | 65 | 1005.3 |
| 20260506161002 | 70 | 131 | 1.7 | 3.5 | 0.00 | 0.00 | 0.00 | 65 | 1005.3 |
| 20260506160818 | 70 | 200 | 1.7 | 3.5 | 0.00 | 0.00 | 0.00 | 65 | 1005.3 |
| 20260506160716 | 70 | 191 | 1.7 | 3.5 | 0.00 | 0.00 | 0.00 | 66 | 1005.4 |
| 20260506160610 | 70 | 290 | 1.7 | 4.3 | 0.00 | 0.00 | 0.00 | 66 | 1005.4 |
| 20260506160511 | 70 | 257 | 1.7 | 4.3 | 0.00 | 0.00 | 0.00 | 66 | 1005.4 |
| 20260506160412 | 70 | 281 | 1.7 | 4.3 | 0.00 | 0.00 | 0.00 | 66 | 1005.4 |
| 20260506160325 | 70 | 153 | 1.7 | 5.2 | 0.00 | 0.00 | 0.00 | 67 | 1005.4 |
| 20260506160311 | 70 | 153 | 1.7 | 6.1 | 0.00 | 0.00 | 0.00 | 67 | 1005.4 |
| 20260506160211 | 70 | 114 | 1.7 | 6.1 | 0.00 | 0.00 | 0.00 | 66 | 1005.4 |
| 20260506160105 | 70 | 198 | 1.7 | 6.1 | 0.00 | 0.00 | 0.00 | 66 | 1005.5 |
| 20260506160005 | 69 | 167 | 0.9 | 6.1 | 0.00 | 0.00 | 0.00 | 66 | 1005.5 |
| 20260506155905 | 69 | 271 | 1.7 | 6.1 | 0.00 | 0.00 | 0.00 | 66 | 1005.5 |
| 20260506155806 | 69 | 271 | 1.7 | 6.1 | 0.00 | 0.00 | 0.00 | 66 | 1005.6 |
| 20260506155706 | 69 | 271 | 1.7 | 6.1 | 0.00 | 0.00 | 0.00 | 66 | 1005.6 |
| 20260506155606 | 69 | 163 | 1.7 | 6.1 | 0.00 | 0.00 | 0.00 | 66 | 1005.6 |
| 20260506155505 | 69 | 192 | 1.7 | 6.1 | 0.00 | 0.00 | 0.00 | 66 | 1005.6 |
| 20260506155405 | 69 | 254 | 1.7 | 6.1 | 0.00 | 0.00 | 0.00 | 67 | 1005.7 |
| 20260506155332 | 69 | 65 | 1.7 | 6.1 | 0.00 | 0.00 | 0.00 | 66 | 1005.8 |
| 20260506155326 | 69 | 276 | 1.7 | 6.1 | 0.00 | 0.00 | 0.00 | 67 | 1005.7 |
| 20260506155316 | 69 | 278 | 1.7 | 6.1 | 0.00 | 0.00 | 0.00 | 67 | 1005.7 |
| 20260506155055 | 69 | 141 | 1.7 | 6.1 | 0.00 | 0.00 | 0.00 | 66 | 1005.8 |
| 20260506154955 | 69 | 127 | 0.9 | 6.1 | 0.00 | 0.00 | 0.00 | 66 | 1005.8 |
| 20260506154855 | 69 | 136 | 0.9 | 6.1 | 0.00 | 0.00 | 0.00 | 66 | 1005.8 |
| 20260506154828 | 69 | 195 | 0.9 | 5.2 | 0.00 | 0.00 | 0.00 | 67 | 1005.8 |
| 20260506154808 | 69 | 122 | 0.9 | 4.3 | 0.00 | 0.00 | 0.00 | 67 | 1005.8 |
| 20260506154759 | 69 | 181 | 0.9 | 4.3 | 0.00 | 0.00 | 0.00 | 67 | 1005.8 |
| 20260506154743 | 69 | 135 | 0.9 | 4.3 | 0.00 | 0.00 | 0.00 | 67 | 1005.9 |
| 20260506154504 | 69 | 181 | 0.9 | 3.5 | 0.00 | 0.00 | 0.00 | 67 | 1005.9 |
| 20260506154325 | 69 | 170 | 0.9 | 3.5 | 0.00 | 0.00 | 0.00 | 68 | 1006.0 |
| 20260506154249 | 69 | 106 | 0.9 | 3.5 | 0.00 | 0.00 | 0.00 | 68 | 1006.0 |
| 20260506154147 | 69 | 135 | 0.9 | 3.5 | 0.00 | 0.00 | 0.00 | 68 | 1006.0 |
| 20260506154046 | 69 | 132 | 0.9 | 3.5 | 0.00 | 0.00 | 0.00 | 68 | 1006.0 |
| 20260506154011 | 69 | 131 | 1.7 | 4.3 | 0.00 | 0.00 | 0.00 | 68 | 1006.0 |
| 20260506154002 | 69 | 132 | 0.9 | 3.5 | 0.00 | 0.00 | 0.00 | 68 | 1006.0 |
| 20260506153820 | 69 | 131 | 1.7 | 4.3 | 0.00 | 0.00 | 0.00 | 68 | 1006.0 |
| 20260506153743 | 69 | 131 | 1.7 | 6.1 | 0.00 | 0.00 | 0.00 | 68 | 1006.0 |
| 20260506153640 | 69 | 159 | 1.7 | 6.1 | 0.00 | 0.00 | 0.00 | 67 | 1006.0 |
| 20260506153535 | 69 | 170 | 1.7 | 6.1 | 0.00 | 0.00 | 0.00 | 68 | 1006.0 |
| 20260506153436 | 69 | 151 | 1.7 | 6.1 | 0.00 | 0.00 | 0.00 | 68 | 1006.0 |
| 20260506153336 | 69 | 140 | 1.7 | 6.1 | 0.00 | 0.00 | 0.00 | 68 | 1006.1 |
| 20260506153320 | 69 | 169 | 1.7 | 6.1 | 0.00 | 0.00 | 0.00 | 68 | 1006.0 |
| 20260506153307 | 69 | 125 | 1.7 | 6.1 | 0.00 | 0.00 | 0.00 | 68 | 1006.0 |
| 20260506153143 | 69 | 222 | 1.7 | 6.1 | 0.00 | 0.00 | 0.00 | 68 | 1006.0 |
| 20260506152928 | 69 | 214 | 1.7 | 6.1 | 0.00 | 0.00 | 0.00 | 68 | 1006.0 |
| 20260506152827 | 69 | 175 | 1.7 | 6.1 | 0.00 | 0.00 | 0.00 | 68 | 1006.1 |
| 20260506152820 | 69 | 174 | 1.7 | 6.1 | 0.00 | 0.00 | 0.00 | 68 | 1006.1 |
| 20260506152727 | 69 | 120 | 1.7 | 3.5 | 0.00 | 0.00 | 0.00 | 68 | 1006.1 |
| 20260506152649 | 69 | 157 | 1.7 | 5.2 | 0.00 | 0.00 | 0.00 | 68 | 1006.2 |
| 20260506152639 | 69 | 184 | 1.7 | 4.3 | 0.00 | 0.00 | 0.00 | 68 | 1006.2 |
| 20260506152423 | 69 | 129 | 1.7 | 5.2 | 0.00 | 0.00 | 0.00 | 68 | 1006.2 |
| 20260506152356 | 69 | 274 | 1.7 | 5.2 | 0.00 | 0.00 | 0.00 | 68 | 1006.3 |
| 20260506152346 | 69 | 142 | 1.7 | 5.2 | 0.00 | 0.00 | 0.00 | 68 | 1006.3 |
| 20260506152338 | 69 | 141 | 1.7 | 5.2 | 0.00 | 0.00 | 0.00 | 68 | 1006.3 |
| 20260506152122 | 69 | 231 | 1.7 | 5.2 | 0.00 | 0.00 | 0.00 | 68 | 1006.2 |
| 20260506152102 | 69 | 148 | 1.7 | 5.2 | 0.00 | 0.00 | 0.00 | 68 | 1006.3 |
| 20260506151939 | 69 | 193 | 1.7 | 5.2 | 0.00 | 0.00 | 0.00 | 68 | 1006.3 |
| 20260506151921 | 69 | 166 | 1.7 | 5.2 | 0.00 | 0.00 | 0.00 | 68 | 1006.4 |
| 20260506151717 | 69 | 153 | 1.7 | 6.1 | 0.00 | 0.00 | 0.00 | 68 | 1006.4 |
| 20260506151613 | 69 | 142 | 1.7 | 6.1 | 0.00 | 0.00 | 0.00 | 68 | 1006.3 |
| 20260506151507 | 69 | 145 | 1.7 | 6.1 | 0.00 | 0.00 | 0.00 | 68 | 1006.3 |
| 20260506151408 | 69 | 193 | 1.7 | 6.1 | 0.00 | 0.00 | 0.00 | 68 | 1006.4 |
| 20260506151353 | 69 | 222 | 1.7 | 10.4 | 0.00 | 0.00 | 0.00 | 68 | 1006.4 |
| 20260506151346 | 69 | 280 | 1.7 | 10.4 | 0.00 | 0.00 | 0.00 | 68 | 1006.4 |
| 20260506151225 | 69 | 151 | 1.7 | 10.4 | 0.00 | 0.00 | 0.00 | 68 | 1006.4 |
| 20260506151000 | 69 | 156 | 1.7 | 10.4 | 0.00 | 0.00 | 0.00 | 67 | 1006.4 |
| 20260506150901 | 69 | 159 | 1.7 | 10.4 | 0.00 | 0.00 | 0.00 | 68 | 1006.4 |
| 20260506150816 | 69 | 188 | 1.7 | 10.4 | 0.00 | 0.00 | 0.00 | 68 | 1006.5 |
| 20260506150801 | 69 | 276 | 1.7 | 10.4 | 0.00 | 0.00 | 0.00 | 68 | 1006.5 |
| 20260506150721 | 69 | 160 | 1.7 | 10.4 | 0.00 | 0.00 | 0.00 | 68 | 1006.5 |
| 20260506150705 | 69 | 129 | 1.7 | 10.4 | 0.00 | 0.00 | 0.00 | 68 | 1006.5 |
| 20260506150552 | 69 | 198 | 1.7 | 4.3 | 0.00 | 0.00 | 0.00 | 68 | 1006.5 |
| 20260506150538 | 69 | 142 | 1.7 | 10.4 | 0.00 | 0.00 | 0.00 | 68 | 1006.6 |
| 20260506150409 | 69 | 229 | 1.7 | 4.3 | 0.00 | 0.00 | 0.00 | 68 | 1006.5 |
| 20260506150157 | 69 | 172 | 1.7 | 4.3 | 0.00 | 0.00 | 0.00 | 68 | 1006.5 |
| 20260506150119 | 69 | 153 | 1.7 | 4.3 | 0.00 | 0.00 | 0.00 | 69 | 1006.4 |
| 20260506150110 | 69 | 148 | 1.7 | 4.3 | 0.00 | 0.00 | 0.00 | 68 | 1006.4 |
| 20260506145853 | 69 | 308 | 1.7 | 4.3 | 0.00 | 0.00 | 0.00 | 69 | 1006.4 |
| 20260506145815 | 69 | 269 | 1.7 | 5.2 | 0.00 | 0.00 | 0.00 | 69 | 1006.4 |
| 20260506145756 | 69 | 274 | 1.7 | 5.2 | 0.00 | 0.00 | 0.00 | 69 | 1006.4 |
| 20260506145736 | 68 | 229 | 1.7 | 7.0 | 0.00 | 0.00 | 0.00 | 68 | 1006.2 |
| 20260506145725 | 69 | 237 | 1.7 | 5.2 | 0.00 | 0.00 | 0.00 | 68 | 1006.3 |
| 20260506145602 | 69 | 276 | 1.7 | 5.2 | 0.00 | 0.00 | 0.00 | 68 | 1006.2 |
| 20260506145429 | 68 | 179 | 1.7 | 7.0 | 0.00 | 0.00 | 0.00 | 69 | 1006.1 |
| 20260506145310 | 68 | 149 | 1.7 | 7.0 | 0.00 | 0.00 | 0.00 | 69 | 1006.1 |
| 20260506145301 | 68 | 148 | 1.7 | 7.0 | 0.00 | 0.00 | 0.00 | 69 | 1006.1 |
| 20260506145044 | 68 | 153 | 1.7 | 7.0 | 0.00 | 0.00 | 0.00 | 69 | 1006.1 |
| 20260506144939 | 68 | 142 | 1.7 | 7.0 | 0.00 | 0.00 | 0.00 | 69 | 1006.2 |
| 20260506144837 | 68 | 128 | 1.7 | 7.0 | 0.00 | 0.00 | 0.00 | 69 | 1006.3 |
| 20260506144816 | 68 | 159 | 1.7 | 7.0 | 0.00 | 0.00 | 0.00 | 69 | 1006.3 |
| 20260506144737 | 68 | 282 | 1.7 | 7.0 | 0.00 | 0.00 | 0.00 | 69 | 1006.3 |
| 20260506144639 | 68 | 134 | 1.7 | 7.0 | 0.00 | 0.00 | 0.00 | 69 | 1006.4 |
| 20260506144549 | 68 | 218 | 1.7 | 6.1 | 0.00 | 0.00 | 0.00 | 70 | 1006.5 |
| 20260506144538 | 68 | 157 | 1.7 | 7.0 | 0.00 | 0.00 | 0.00 | 69 | 1006.4 |
| 20260506144442 | 68 | 226 | 1.7 | 6.1 | 0.00 | 0.00 | 0.00 | 69 | 1006.5 |
| 20260506144425 | 68 | 179 | 1.7 | 6.1 | 0.00 | 0.00 | 0.00 | 70 | 1006.5 |
| 20260506144231 | 68 | 183 | 1.7 | 6.1 | 0.00 | 0.00 | 0.00 | 69 | 1006.4 |
| 20260506144131 | 68 | 150 | 1.7 | 6.1 | 0.00 | 0.00 | 0.00 | 70 | 1006.4 |
| 20260506144033 | 68 | 136 | 1.7 | 5.2 | 0.00 | 0.00 | 0.00 | 70 | 1006.4 |
| 20260506143925 | 68 | 266 | 1.7 | 5.2 | 0.00 | 0.00 | 0.00 | 70 | 1006.4 |
| 20260506143816 | 68 | 156 | 1.7 | 5.2 | 0.00 | 0.00 | 0.00 | 69 | 1006.3 |
| 20260506143725 | 68 | 203 | 1.7 | 5.2 | 0.00 | 0.00 | 0.00 | 70 | 1006.3 |
| 20260506143627 | 68 | 130 | 1.7 | 5.2 | 0.00 | 0.00 | 0.00 | 69 | 1006.3 |
| 20260506143526 | 68 | 150 | 1.7 | 5.2 | 0.00 | 0.00 | 0.00 | 70 | 1006.3 |
| 20260506143424 | 68 | 142 | 1.7 | 5.2 | 0.00 | 0.00 | 0.00 | 69 | 1006.3 |
| 20260506143325 | 68 | 147 | 1.7 | 5.2 | 0.00 | 0.00 | 0.00 | 70 | 1006.4 |
| 20260506143315 | 68 | 142 | 1.7 | 5.2 | 0.00 | 0.00 | 0.00 | 70 | 1006.4 |
| 20260506143250 | 68 | 151 | 1.7 | 5.2 | 0.00 | 0.00 | 0.00 | 71 | 1006.3 |
| 20260506143240 | 68 | 150 | 1.7 | 5.2 | 0.00 | 0.00 | 0.00 | 71 | 1006.4 |
| 20260506143020 | 68 | 204 | 1.7 | 7.0 | 0.00 | 0.00 | 0.00 | 70 | 1006.3 |
| 20260506142916 | 68 | 246 | 1.7 | 7.0 | 0.00 | 0.00 | 0.00 | 71 | 1006.3 |
| 20260506142821 | 68 | 179 | 1.7 | 7.0 | 0.00 | 0.00 | 0.00 | 71 | 1006.3 |
| 20260506142816 | 68 | 192 | 1.7 | 7.0 | 0.00 | 0.00 | 0.00 | 71 | 1006.3 |
| 20260506142715 | 67 | 249 | 1.7 | 7.0 | 0.00 | 0.00 | 0.00 | 71 | 1006.3 |
| 20260506142615 | 67 | 299 | 1.7 | 7.0 | 0.00 | 0.00 | 0.00 | 71 | 1006.3 |
| 20260506142514 | 67 | 179 | 1.7 | 7.0 | 0.00 | 0.00 | 0.00 | 72 | 1006.3 |
| 20260506142410 | 67 | 132 | 1.7 | 7.0 | 0.00 | 0.00 | 0.00 | 71 | 1006.3 |
| 20260506142343 | 67 | 145 | 0.9 | 7.0 | 0.00 | 0.00 | 0.00 | 71 | 1006.3 |
| 20260506142328 | 67 | 276 | 0.9 | 7.0 | 0.00 | 0.00 | 0.00 | 72 | 1006.3 |
| 20260506142110 | 67 | 274 | 0.9 | 7.0 | 0.00 | 0.00 | 0.00 | 71 | 1006.2 |
| 20260506142008 | 67 | 280 | 0.9 | 5.2 | 0.00 | 0.00 | 0.00 | 72 | 1006.3 |
| 20260506141903 | 67 | 215 | 0.9 | 5.2 | 0.00 | 0.00 | 0.00 | 71 | 1006.3 |
| 20260506141815 | 67 | 200 | 0.9 | 5.2 | 0.00 | 0.00 | 0.00 | 71 | 1006.2 |
| 20260506141804 | 67 | 198 | 0.9 | 5.2 | 0.00 | 0.00 | 0.00 | 71 | 1006.2 |
| 20260506141703 | 67 | 149 | 0.9 | 5.2 | 0.00 | 0.00 | 0.00 | 72 | 1006.2 |
| 20260506141606 | 67 | 136 | 0.9 | 5.2 | 0.00 | 0.00 | 0.00 | 72 | 1006.2 |
| 20260506141502 | 67 | 211 | 0.9 | 5.2 | 0.00 | 0.00 | 0.00 | 72 | 1006.3 |
| 20260506141353 | 67 | 156 | 0.9 | 3.5 | 0.00 | 0.00 | 0.00 | 72 | 1006.2 |
| 20260506141316 | 67 | 139 | 0.9 | 3.5 | 0.00 | 0.00 | 0.00 | 72 | 1006.3 |
| 20260506141253 | 67 | 194 | 0.9 | 3.5 | 0.00 | 0.00 | 0.00 | 72 | 1006.3 |
| 20260506141153 | 67 | 153 | 0.9 | 3.5 | 0.00 | 0.00 | 0.00 | 72 | 1006.3 |
| 20260506141054 | 67 | 139 | 0.9 | 3.5 | 0.00 | 0.00 | 0.00 | 72 | 1006.3 |
| 20260506141023 | 67 | 187 | 0.9 | 3.5 | 0.00 | 0.00 | 0.00 | 72 | 1006.3 |
| 20260506141018 | 67 | 153 | 0.9 | 4.3 | 0.00 | 0.00 | 0.00 | 73 | 1006.3 |
| 20260506141011 | 66 | 150 | 0.9 | 4.3 | 0.00 | 0.00 | 0.00 | 73 | 1006.3 |
| 20260506141002 | 67 | 160 | 0.9 | 3.5 | 0.00 | 0.00 | 0.00 | 72 | 1006.3 |
| 20260506140943 | 67 | 156 | 0.9 | 3.5 | 0.00 | 0.00 | 0.00 | 72 | 1006.3 |
| 20260506140931 | 67 | 165 | 0.9 | 3.5 | 0.00 | 0.00 | 0.00 | 72 | 1006.3 |
| 20260506140447 | 66 | 149 | 0.9 | 4.3 | 0.00 | 0.00 | 0.00 | 73 | 1006.2 |
| 20260506140342 | 66 | 203 | 0.9 | 4.3 | 0.00 | 0.00 | 0.00 | 73 | 1006.2 |
| 20260506140303 | 66 | 153 | 0.9 | 4.3 | 0.00 | 0.00 | 0.00 | 73 | 1006.1 |
| 20260506140242 | 66 | 153 | 0.9 | 4.3 | 0.00 | 0.00 | 0.00 | 73 | 1006.1 |
| 20260506140141 | 66 | 204 | 0.9 | 4.3 | 0.00 | 0.00 | 0.00 | 73 | 1006.0 |
| 20260506140041 | 66 | 179 | 1.7 | 5.2 | 0.00 | 0.00 | 0.00 | 73 | 1006.0 |
| 20260506135942 | 66 | 184 | 1.7 | 5.2 | 0.00 | 0.00 | 0.00 | 73 | 1006.0 |
| 20260506135842 | 66 | 108 | 1.7 | 5.2 | 0.00 | 0.00 | 0.00 | 73 | 1006.0 |
| 20260506135759 | 66 | 187 | 1.7 | 5.2 | 0.00 | 0.00 | 0.00 | 73 | 1006.0 |
| 20260506135741 | 66 | 235 | 1.7 | 5.2 | 0.00 | 0.00 | 0.00 | 73 | 1006.0 |
| 20260506135641 | 66 | 338 | 1.7 | 5.2 | 0.00 | 0.00 | 0.00 | 74 | 1006.0 |
| 20260506135538 | 66 | 152 | 1.7 | 5.2 | 0.00 | 0.00 | 0.00 | 73 | 1006.0 |
| 20260506135436 | 66 | 139 | 1.7 | 5.2 | 0.00 | 0.00 | 0.00 | 73 | 1006.1 |
| 20260506135331 | 66 | 179 | 1.7 | 5.2 | 0.00 | 0.00 | 0.00 | 73 | 1006.1 |
| 20260506135252 | 66 | 156 | 1.7 | 5.2 | 0.00 | 0.00 | 0.00 | 73 | 1006.1 |
| 20260506135232 | 66 | 146 | 1.7 | 5.2 | 0.00 | 0.00 | 0.00 | 73 | 1006.1 |
| 20260506135132 | 66 | 173 | 1.7 | 5.2 | 0.00 | 0.00 | 0.00 | 74 | 1006.1 |
| 20260506135031 | 65 | 291 | 1.7 | 5.2 | 0.00 | 0.00 | 0.00 | 74 | 1006.1 |
| 20260506135006 | 65 | 141 | 1.7 | 5.2 | 0.00 | 0.00 | 0.00 | 74 | 1006.2 |
| 20260506134928 | 65 | 148 | 1.7 | 5.2 | 0.00 | 0.00 | 0.00 | 74 | 1006.2 |
| 20260506134900 | 65 | 156 | 1.7 | 5.2 | 0.00 | 0.00 | 0.00 | 74 | 1006.2 |
| 20260506134724 | 65 | 215 | 0.9 | 5.2 | 0.00 | 0.00 | 0.00 | 75 | 1006.3 |
| 20260506134623 | 65 | 156 | 0.9 | 4.3 | 0.00 | 0.00 | 0.00 | 75 | 1006.3 |
| 20260506134524 | 65 | 158 | 0.9 | 4.3 | 0.00 | 0.00 | 0.00 | 74 | 1006.3 |
| 20260506134424 | 65 | 124 | 0.9 | 4.3 | 0.00 | 0.00 | 0.00 | 74 | 1006.3 |
| 20260506134318 | 65 | 222 | 0.9 | 4.3 | 0.00 | 0.00 | 0.00 | 74 | 1006.3 |
| 20260506134241 | 65 | 276 | 0.9 | 6.1 | 0.00 | 0.00 | 0.00 | 74 | 1006.3 |
| 20260506134218 | 65 | 195 | 0.9 | 6.1 | 0.00 | 0.00 | 0.00 | 74 | 1006.4 |
| 20260506134117 | 65 | 189 | 0.9 | 6.1 | 0.00 | 0.00 | 0.00 | 74 | 1006.4 |
| 20260506134017 | 65 | 197 | 0.9 | 6.1 | 0.00 | 0.00 | 0.00 | 75 | 1006.4 |
| 20260506133918 | 65 | 194 | 0.9 | 6.1 | 0.00 | 0.00 | 0.00 | 75 | 1006.4 |
| 20260506133811 | 65 | 162 | 0.9 | 6.1 | 0.00 | 0.00 | 0.00 | 75 | 1006.4 |
| 20260506133711 | 65 | 212 | 0.9 | 6.1 | 0.00 | 0.00 | 0.00 | 75 | 1006.5 |
| 20260506133611 | 65 | 283 | 0.9 | 6.1 | 0.00 | 0.00 | 0.00 | 75 | 1006.5 |
| 20260506133511 | 65 | 150 | 1.7 | 6.1 | 0.00 | 0.00 | 0.00 | 75 | 1006.4 |
| 20260506133440 | 65 | 86 | 0.9 | 6.1 | 0.00 | 0.00 | 0.00 | 75 | 1006.5 |
| 20260506133428 | 65 | 191 | 1.7 | 6.1 | 0.00 | 0.00 | 0.00 | 75 | 1006.4 |
| 20260506133228 | 65 | 197 | 0.9 | 4.3 | 0.00 | 0.00 | 0.00 | 75 | 1006.5 |
| 20260506133210 | 65 | 201 | 0.9 | 4.3 | 0.00 | 0.00 | 0.00 | 75 | 1006.5 |
| 20260506133110 | 65 | 193 | 0.9 | 4.3 | 0.00 | 0.00 | 0.00 | 75 | 1006.5 |
| 20260506133009 | 65 | 148 | 0.9 | 4.3 | 0.00 | 0.00 | 0.00 | 75 | 1006.5 |
| 20260506132951 | 65 | 184 | 0.9 | 4.3 | 0.00 | 0.00 | 0.00 | 75 | 1006.5 |
| 20260506132906 | 65 | 139 | 0.9 | 4.3 | 0.00 | 0.00 | 0.00 | 75 | 1006.5 |
| 20260506132839 | 65 | 153 | 0.9 | 4.3 | 0.00 | 0.00 | 0.00 | 75 | 1006.5 |
| 20260506132659 | 65 | 198 | 0.9 | 4.3 | 0.00 | 0.00 | 0.00 | 75 | 1006.5 |
| 20260506132626 | 65 | 153 | 0.9 | 5.2 | 0.00 | 0.00 | 0.00 | 76 | 1006.4 |
| 20260506132616 | 65 | 163 | 0.9 | 5.2 | 0.00 | 0.00 | 0.00 | 76 | 1006.4 |
| 20260506132359 | 64 | 210 | 0.9 | 5.2 | 0.00 | 0.00 | 0.00 | 76 | 1006.5 |
| 20260506132259 | 64 | 187 | 0.9 | 5.2 | 0.00 | 0.00 | 0.00 | 76 | 1006.4 |
| 20260506132227 | 64 | 186 | 0.9 | 5.2 | 0.00 | 0.00 | 0.00 | 76 | 1006.5 |
| 20260506132202 | 64 | 168 | 0.9 | 5.2 | 0.00 | 0.00 | 0.00 | 76 | 1006.5 |
| 20260506132057 | 64 | 131 | 0.9 | 5.2 | 0.00 | 0.00 | 0.00 | 76 | 1006.5 |
| 20260506131955 | 64 | 153 | 0.9 | 5.2 | 0.00 | 0.00 | 0.00 | 76 | 1006.6 |
| 20260506131854 | 64 | 333 | 0.9 | 5.2 | 0.00 | 0.00 | 0.00 | 76 | 1006.6 |
| 20260506131749 | 64 | 180 | 0.9 | 5.2 | 0.00 | 0.00 | 0.00 | 76 | 1006.6 |
| 20260506131723 | 64 | 191 | 0.9 | 5.2 | 0.00 | 0.00 | 0.00 | 76 | 1006.7 |
| 20260506131647 | 64 | 231 | 0.9 | 5.2 | 0.00 | 0.00 | 0.00 | 76 | 1006.7 |
| 20260506131548 | 64 | 172 | 0.9 | 3.5 | 0.00 | 0.00 | 0.00 | 76 | 1006.6 |
| 20260506131522 | 64 | 139 | 0.9 | 3.5 | 0.00 | 0.00 | 0.00 | 76 | 1006.7 |
| 20260506131514 | 64 | 136 | 0.9 | 3.5 | 0.00 | 0.00 | 0.00 | 76 | 1006.6 |
| 20260506131506 | 64 | 128 | 0.9 | 3.5 | 0.00 | 0.00 | 0.00 | 76 | 1006.6 |
| 20260506131451 | 64 | 148 | 0.9 | 3.5 | 0.00 | 0.00 | 0.00 | 76 | 1006.6 |
| 20260506131208 | 64 | 210 | 0.9 | 3.5 | 0.00 | 0.00 | 0.00 | 76 | 1006.6 |
| 20260506131158 | 64 | 132 | 0.9 | 3.5 | 0.00 | 0.00 | 0.00 | 76 | 1006.6 |
| 20260506130942 | 64 | 148 | 0.9 | 3.5 | 0.00 | 0.00 | 0.00 | 76 | 1006.7 |
| 20260506130842 | 64 | 142 | 0.9 | 2.6 | 0.00 | 0.00 | 0.00 | 77 | 1006.7 |
| 20260506130741 | 64 | 179 | 0.9 | 1.7 | 0.00 | 0.00 | 0.00 | 77 | 1006.8 |
| 20260506130721 | 64 | 148 | 0.9 | 1.7 | 0.00 | 0.00 | 0.00 | 76 | 1006.7 |
| 20260506130640 | 64 | 136 | 0.9 | 1.7 | 0.00 | 0.00 | 0.00 | 76 | 1006.7 |
| 20260506130539 | 64 | 69 | 0.9 | 4.3 | 0.00 | 0.00 | 0.00 | 77 | 1006.7 |
| 20260506130438 | 64 | 150 | 0.9 | 4.3 | 0.00 | 0.00 | 0.00 | 77 | 1006.7 |
| 20260506130358 | 64 | 139 | 0.9 | 4.3 | 0.00 | 0.00 | 0.00 | 77 | 1006.7 |
| 20260506130348 | 64 | 154 | 0.9 | 4.3 | 0.00 | 0.00 | 0.00 | 77 | 1006.7 |
| 20260506130220 | 64 | 136 | 0.9 | 4.3 | 0.00 | 0.00 | 0.00 | 77 | 1006.7 |
| 20260506130131 | 64 | 169 | 0.9 | 4.3 | 0.00 | 0.00 | 0.00 | 77 | 1006.7 |
| 20260506130032 | 64 | 169 | 0.9 | 4.3 | 0.00 | 0.00 | 0.00 | 77 | 1006.7 |
| 20260506130021 | 64 | 188 | 0.9 | 4.3 | 0.00 | 0.00 | 0.00 | 77 | 1006.7 |
| 20260506130013 | 64 | 148 | 0.9 | 4.3 | 0.00 | 0.00 | 0.00 | 77 | 1006.7 |
| 20260506130002 | 64 | 169 | 0.9 | 4.3 | 0.00 | 0.00 | 0.00 | 77 | 1006.7 |
| 20260506125721 | 64 | 148 | 0.9 | 4.3 | 0.00 | 0.00 | 0.00 | 77 | 1006.7 |
| 20260506125622 | 64 | 157 | 0.9 | 4.3 | 0.00 | 0.00 | 0.00 | 77 | 1006.7 |
| 20260506125550 | 63 | 145 | 0.9 | 4.3 | 0.00 | 0.00 | 0.00 | 77 | 1006.7 |
| 20260506125540 | 64 | 150 | 0.9 | 4.3 | 0.00 | 0.00 | 0.00 | 77 | 1006.6 |
| 20260506125354 | 63 | 152 | 1.7 | 6.1 | 0.00 | 0.00 | 0.00 | 77 | 1006.7 |
| 20260506125344 | 63 | 143 | 0.9 | 6.1 | 0.00 | 0.00 | 0.00 | 77 | 1006.7 |
| 20260506125329 | 63 | 150 | 1.7 | 6.1 | 0.00 | 0.00 | 0.00 | 77 | 1006.7 |
| 20260506125119 | 63 | 181 | 1.7 | 6.1 | 0.00 | 0.00 | 0.00 | 77 | 1006.7 |
| 20260506125017 | 63 | 270 | 1.7 | 6.1 | 0.00 | 0.00 | 0.00 | 77 | 1006.7 |
| 20260506124918 | 63 | 284 | 1.7 | 6.1 | 0.00 | 0.00 | 0.00 | 77 | 1006.7 |
| 20260506124816 | 63 | 193 | 1.7 | 6.1 | 0.00 | 0.00 | 0.00 | 77 | 1006.7 |
| 20260506124722 | 63 | 221 | 1.7 | 6.1 | 0.00 | 0.00 | 0.00 | 77 | 1006.7 |
| 20260506124713 | 63 | 220 | 1.7 | 6.1 | 0.00 | 0.00 | 0.00 | 77 | 1006.7 |
| 20260506124613 | 63 | 195 | 1.7 | 6.1 | 0.00 | 0.00 | 0.00 | 77 | 1006.7 |
| 20260506124511 | 63 | 160 | 1.7 | 6.1 | 0.00 | 0.00 | 0.00 | 77 | 1006.7 |
| 20260506124413 | 63 | 143 | 1.7 | 6.1 | 0.00 | 0.00 | 0.00 | 77 | 1006.7 |
| 20260506124331 | 63 | 156 | 1.7 | 4.3 | 0.00 | 0.00 | 0.00 | 77 | 1006.7 |
| 20260506124317 | 63 | 186 | 0.9 | 4.3 | 0.00 | 0.00 | 0.00 | 77 | 1006.7 |
| 20260506124130 | 63 | 191 | 0.9 | 4.3 | 0.00 | 0.00 | 0.00 | 77 | 1006.7 |
| 20260506124122 | 63 | 232 | 0.9 | 4.3 | 0.00 | 0.00 | 0.00 | 77 | 1006.7 |
| 20260506123906 | 63 | 142 | 0.9 | 4.3 | 0.00 | 0.00 | 0.00 | 78 | 1006.7 |
| 20260506123804 | 63 | 235 | 0.9 | 4.3 | 0.00 | 0.00 | 0.00 | 78 | 1006.7 |
| 20260506123717 | 63 | 212 | 0.9 | 4.3 | 0.00 | 0.00 | 0.00 | 78 | 1006.7 |
| 20260506123659 | 63 | 226 | 0.9 | 4.3 | 0.00 | 0.00 | 0.00 | 78 | 1006.7 |
| 20260506123559 | 63 | 278 | 0.9 | 4.3 | 0.00 | 0.00 | 0.00 | 78 | 1006.8 |
| 20260506123500 | 63 | 167 | 0.9 | 4.3 | 0.00 | 0.00 | 0.00 | 78 | 1006.7 |
| 20260506123434 | 63 | 143 | 0.9 | 4.3 | 0.00 | 0.00 | 0.00 | 78 | 1006.7 |
| 20260506123313 | 62 | 194 | 0.9 | 4.3 | 0.00 | 0.00 | 0.00 | 79 | 1006.8 |
| 20260506123306 | 63 | 195 | 0.9 | 4.3 | 0.00 | 0.00 | 0.00 | 78 | 1006.7 |
| 20260506123251 | 63 | 86 | 0.9 | 4.3 | 0.00 | 0.00 | 0.00 | 78 | 1006.7 |
| 20260506123243 | 63 | 87 | 0.9 | 4.3 | 0.00 | 0.00 | 0.00 | 78 | 1006.7 |
| 20260506123111 | 62 | 274 | 0.9 | 4.3 | 0.00 | 0.00 | 0.00 | 78 | 1006.7 |
| 20260506122841 | 62 | 257 | 0.9 | 2.6 | 0.00 | 0.00 | 0.00 | 79 | 1006.7 |
| 20260506122827 | 62 | 236 | 0.9 | 2.6 | 0.00 | 0.00 | 0.00 | 79 | 1006.7 |
| 20260506122816 | 62 | 136 | 0.9 | 2.6 | 0.00 | 0.00 | 0.00 | 79 | 1006.7 |
| 20260506122447 | 62 | 151 | 0.9 | 3.5 | 0.00 | 0.00 | 0.00 | 79 | 1006.7 |
| 20260506122348 | 62 | 223 | 0.9 | 4.3 | 0.00 | 0.00 | 0.00 | 79 | 1006.6 |
| 20260506122247 | 62 | 200 | 0.9 | 4.3 | 0.00 | 0.00 | 0.00 | 79 | 1006.6 |
| 20260506122215 | 62 | 147 | 0.9 | 4.3 | 0.00 | 0.00 | 0.00 | 79 | 1006.6 |
| 20260506122209 | 62 | 156 | 0.9 | 4.3 | 0.00 | 0.00 | 0.00 | 79 | 1006.5 |
| 20260506122158 | 62 | 145 | 0.9 | 4.3 | 0.00 | 0.00 | 0.00 | 79 | 1006.6 |
| 20260506122010 | 62 | 170 | 0.9 | 4.3 | 0.00 | 0.00 | 0.00 | 79 | 1006.6 |
| 20260506121958 | 62 | 153 | 0.9 | 4.3 | 0.00 | 0.00 | 0.00 | 79 | 1006.6 |
| 20260506121741 | 62 | 146 | 0.9 | 4.3 | 0.00 | 0.00 | 0.00 | 79 | 1006.6 |
| 20260506121714 | 62 | 145 | 0.9 | 4.3 | 0.00 | 0.00 | 0.00 | 79 | 1006.6 |
| 20260506121640 | 62 | 134 | 0.9 | 4.3 | 0.00 | 0.00 | 0.00 | 79 | 1006.6 |
| 20260506121557 | 62 | 172 | 0.9 | 4.3 | 0.00 | 0.00 | 0.00 | 79 | 1006.6 |
| 20260506121540 | 62 | 131 | 0.9 | 4.3 | 0.00 | 0.00 | 0.00 | 79 | 1006.6 |
| 20260506121342 | 62 | 142 | 0.9 | 4.3 | 0.00 | 0.00 | 0.00 | 79 | 1006.6 |
| 20260506121326 | 62 | 169 | 0.9 | 4.3 | 0.00 | 0.00 | 0.00 | 79 | 1006.7 |
| 20260506121135 | 62 | 153 | 0.9 | 4.3 | 0.00 | 0.00 | 0.00 | 79 | 1006.7 |
| 20260506121035 | 62 | 166 | 0.9 | 4.3 | 0.00 | 0.00 | 0.00 | 79 | 1006.7 |
| 20260506120936 | 62 | 291 | 0.9 | 4.3 | 0.00 | 0.00 | 0.00 | 79 | 1006.8 |
| 20260506120835 | 62 | 210 | 0.9 | 4.3 | 0.00 | 0.00 | 0.00 | 79 | 1006.8 |
| 20260506120735 | 62 | 270 | 0.9 | 4.3 | 0.00 | 0.00 | 0.00 | 79 | 1006.8 |
| 20260506120714 | 62 | 291 | 0.9 | 4.3 | 0.00 | 0.00 | 0.00 | 79 | 1006.9 |
| 20260506120702 | 62 | 273 | 0.9 | 4.3 | 0.00 | 0.00 | 0.00 | 79 | 1006.9 |
| 20260506120652 | 62 | 248 | 0.9 | 4.3 | 0.00 | 0.00 | 0.00 | 79 | 1006.9 |
| 20260506120524 | 62 | 136 | 0.9 | 4.3 | 0.00 | 0.00 | 0.00 | 79 | 1006.9 |
| 20260506120520 | 61 | 282 | 0.9 | 4.3 | 0.00 | 0.00 | 0.00 | 80 | 1006.9 |
| 20260506120508 | 62 | 277 | 0.9 | 4.3 | 0.00 | 0.00 | 0.00 | 79 | 1007.0 |
| 20260506120214 | 61 | 136 | 0.9 | 4.3 | 0.00 | 0.00 | 0.00 | 80 | 1006.9 |
| 20260506120135 | 61 | 153 | 0.9 | 4.3 | 0.00 | 0.00 | 0.00 | 80 | 1006.9 |
| 20260506120033 | 61 | 249 | 0.9 | 4.3 | 0.00 | 0.00 | 0.00 | 80 | 1006.9 |
| 20260506115933 | 61 | 217 | 0.9 | 4.3 | 0.00 | 0.00 | 0.00 | 80 | 1006.9 |
| 20260506115833 | 61 | 151 | 0.9 | 4.3 | 0.00 | 0.00 | 0.00 | 79 | 1006.8 |
| 20260506115733 | 61 | 256 | 0.9 | 4.3 | 0.00 | 0.00 | 0.00 | 80 | 1006.9 |
| 20260506115715 | 61 | 291 | 0.9 | 4.3 | 0.00 | 0.00 | 0.00 | 80 | 1006.9 |
| 20260506115634 | 61 | 159 | 0.9 | 4.3 | 0.00 | 0.00 | 0.00 | 80 | 1006.9 |
| 20260506115534 | 61 | 188 | 0.9 | 4.3 | 0.00 | 0.00 | 0.00 | 80 | 1006.9 |
| 20260506115427 | 61 | 117 | 0.9 | 4.3 | 0.00 | 0.00 | 0.00 | 80 | 1006.9 |
| 20260506115327 | 61 | 159 | 0.9 | 5.2 | 0.00 | 0.00 | 0.00 | 80 | 1006.9 |
| 20260506115227 | 61 | 264 | 0.9 | 5.2 | 0.00 | 0.00 | 0.00 | 80 | 1006.9 |
| 20260506115208 | 61 | 197 | 0.9 | 5.2 | 0.00 | 0.00 | 0.00 | 80 | 1006.9 |
| 20260506115128 | 61 | 139 | 0.9 | 5.2 | 0.00 | 0.00 | 0.00 | 80 | 1006.9 |
| 20260506115108 | 61 | 157 | 0.9 | 5.2 | 0.00 | 0.00 | 0.00 | 80 | 1006.9 |
| 20260506114945 | 61 | 288 | 0.9 | 5.2 | 0.00 | 0.00 | 0.00 | 80 | 1006.9 |
| 20260506114728 | 61 | 163 | 0.9 | 5.2 | 0.00 | 0.00 | 0.00 | 80 | 1006.9 |
| 20260506114702 | 61 | 162 | 0.9 | 5.2 | 0.00 | 0.00 | 0.00 | 80 | 1006.9 |
| 20260506114625 | 61 | 131 | 0.9 | 5.2 | 0.00 | 0.00 | 0.00 | 80 | 1007.0 |
| 20260506114603 | 60 | 142 | 0.9 | 5.2 | 0.00 | 0.00 | 0.00 | 81 | 1007.0 |
| 20260506114438 | 60 | 195 | 0.9 | 5.2 | 0.00 | 0.00 | 0.00 | 81 | 1007.0 |
| 20260506114223 | 60 | 143 | 0.9 | 4.3 | 0.00 | 0.00 | 0.00 | 81 | 1007.2 |
| 20260506114157 | 60 | 148 | 0.9 | 4.3 | 0.00 | 0.00 | 0.00 | 81 | 1007.2 |
| 20260506114121 | 60 | 131 | 0.9 | 4.3 | 0.00 | 0.00 | 0.00 | 80 | 1007.2 |
| 20260506114022 | 60 | 193 | 0.9 | 4.3 | 0.00 | 0.00 | 0.00 | 80 | 1007.2 |
| 20260506113922 | 60 | 134 | 0.9 | 4.3 | 0.00 | 0.00 | 0.00 | 80 | 1007.2 |
| 20260506113849 | 60 | 145 | 0.9 | 4.3 | 0.00 | 0.00 | 0.00 | 80 | 1007.1 |
| 20260506113839 | 60 | 134 | 0.9 | 4.3 | 0.00 | 0.00 | 0.00 | 80 | 1007.1 |
| 20260506113649 | 60 | 101 | 0.9 | 4.3 | 0.00 | 0.00 | 0.00 | 80 | 1007.1 |
| 20260506113623 | 60 | 245 | 1.7 | 4.3 | 0.00 | 0.00 | 0.00 | 80 | 1007.1 |
| 20260506113522 | 60 | 103 | 1.7 | 4.3 | 0.00 | 0.00 | 0.00 | 80 | 1007.1 |
| 20260506113422 | 60 | 150 | 0.9 | 4.3 | 0.00 | 0.00 | 0.00 | 80 | 1007.1 |
| 20260506113320 | 60 | 87 | 1.7 | 4.3 | 0.00 | 0.00 | 0.00 | 80 | 1007.2 |
| 20260506113219 | 60 | 222 | 0.9 | 4.3 | 0.00 | 0.00 | 0.00 | 80 | 1007.2 |
| 20260506113143 | 60 | 163 | 0.9 | 4.3 | 0.00 | 0.00 | 0.00 | 80 | 1007.2 |
| 20260506113119 | 60 | 148 | 0.9 | 4.3 | 0.00 | 0.00 | 0.00 | 80 | 1007.2 |
| 20260506113018 | 60 | 179 | 0.9 | 4.3 | 0.00 | 0.00 | 0.00 | 80 | 1007.2 |
| 20260506112920 | 60 | 79 | 0.9 | 4.3 | 0.00 | 0.00 | 0.00 | 80 | 1007.2 |
| 20260506112818 | 60 | 181 | 0.9 | 4.3 | 0.00 | 0.00 | 0.00 | 81 | 1007.2 |
| 20260506112718 | 60 | 193 | 0.9 | 4.3 | 0.00 | 0.00 | 0.00 | 81 | 1007.1 |
| 20260506112635 | 60 | 153 | 0.9 | 4.3 | 0.00 | 0.00 | 0.00 | 81 | 1007.1 |
| 20260506112616 | 60 | 165 | 0.9 | 4.3 | 0.00 | 0.00 | 0.00 | 81 | 1007.1 |
| 20260506112514 | 60 | 159 | 0.9 | 4.3 | 0.00 | 0.00 | 0.00 | 81 | 1007.1 |
| 20260506112415 | 60 | 117 | 0.9 | 3.5 | 0.00 | 0.00 | 0.00 | 81 | 1007.1 |
| 20260506112312 | 60 | 231 | 0.9 | 3.5 | 0.00 | 0.00 | 0.00 | 81 | 1007.2 |
| 20260506112213 | 60 | 150 | 0.9 | 3.5 | 0.00 | 0.00 | 0.00 | 81 | 1007.2 |
| 20260506112145 | 60 | 132 | 0.9 | 3.5 | 0.00 | 0.00 | 0.00 | 81 | 1007.3 |
| 20260506112127 | 60 | 150 | 0.9 | 3.5 | 0.00 | 0.00 | 0.00 | 81 | 1007.2 |
| 20260506111910 | 60 | 117 | 1.7 | 3.5 | 0.00 | 0.00 | 0.00 | 81 | 1007.2 |
| 20260506111842 | 60 | 163 | 1.7 | 4.3 | 0.00 | 0.00 | 0.00 | 81 | 1007.2 |
| 20260506111808 | 60 | 129 | 1.7 | 4.3 | 0.00 | 0.00 | 0.00 | 81 | 1007.3 |
| 20260506111737 | 60 | 134 | 1.7 | 4.3 | 0.00 | 0.00 | 0.00 | 81 | 1007.3 |
| 20260506111606 | 60 | 217 | 1.7 | 4.3 | 0.00 | 0.00 | 0.00 | 81 | 1007.2 |
| 20260506111505 | 60 | 270 | 1.7 | 4.3 | 0.00 | 0.00 | 0.00 | 81 | 1007.3 |
| 20260506111406 | 60 | 142 | 0.9 | 4.3 | 0.00 | 0.00 | 0.00 | 81 | 1007.2 |
| 20260506111350 | 60 | 188 | 0.9 | 4.3 | 0.00 | 0.00 | 0.00 | 81 | 1007.2 |
| 20260506111231 | 60 | 150 | 0.9 | 3.5 | 0.00 | 0.00 | 0.00 | 81 | 1007.2 |
| 20260506111221 | 60 | 145 | 0.9 | 4.3 | 0.00 | 0.00 | 0.00 | 81 | 1007.2 |
| 20260506111209 | 60 | 165 | 0.9 | 4.3 | 0.00 | 0.00 | 0.00 | 81 | 1007.2 |
| 20260506111159 | 60 | 156 | 0.9 | 4.3 | 0.00 | 0.00 | 0.00 | 81 | 1007.2 |
| 20260506111040 | 60 | 157 | 1.7 | 4.3 | 0.00 | 0.00 | 0.00 | 81 | 1007.2 |
| 20260506111023 | 60 | 139 | 0.9 | 4.3 | 0.00 | 0.00 | 0.00 | 81 | 1007.2 |
| 20260506110631 | 60 | 181 | 0.9 | 3.5 | 0.00 | 0.00 | 0.00 | 81 | 1007.1 |
| 20260506110623 | 60 | 190 | 0.9 | 3.5 | 0.00 | 0.00 | 0.00 | 81 | 1007.1 |
| 20260506110250 | 60 | 155 | 0.9 | 3.5 | 0.00 | 0.00 | 0.00 | 82 | 1007.1 |
| 20260506110143 | 60 | 159 | 0.9 | 4.3 | 0.00 | 0.00 | 0.00 | 81 | 1007.1 |
| 20260506110105 | 59 | 201 | 0.9 | 4.3 | 0.00 | 0.00 | 0.00 | 81 | 1007.1 |
| 20260506110043 | 59 | 145 | 0.9 | 4.3 | 0.00 | 0.00 | 0.00 | 81 | 1007.1 |
| 20260506105944 | 59 | 201 | 0.9 | 4.3 | 0.00 | 0.00 | 0.00 | 82 | 1007.0 |
| 20260506105843 | 59 | 125 | 0.9 | 4.3 | 0.00 | 0.00 | 0.00 | 82 | 1007.1 |
| 20260506105744 | 59 | 302 | 0.9 | 4.3 | 0.00 | 0.00 | 0.00 | 82 | 1007.1 |
| 20260506105637 | 59 | 176 | 0.9 | 4.3 | 0.00 | 0.00 | 0.00 | 82 | 1007.2 |
| 20260506105559 | 59 | 137 | 0.9 | 4.3 | 0.00 | 0.00 | 0.00 | 82 | 1007.2 |
| 20260506105537 | 59 | 145 | 0.9 | 4.3 | 0.00 | 0.00 | 0.00 | 82 | 1007.2 |
| 20260506105439 | 59 | 172 | 0.9 | 4.3 | 0.00 | 0.00 | 0.00 | 82 | 1007.2 |
| 20260506105337 | 59 | 257 | 0.9 | 4.3 | 0.00 | 0.00 | 0.00 | 82 | 1007.2 |
| 20260506105238 | 59 | 169 | 0.9 | 4.3 | 0.00 | 0.00 | 0.00 | 82 | 1007.2 |
| 20260506105134 | 59 | 188 | 0.9 | 4.3 | 0.00 | 0.00 | 0.00 | 82 | 1007.1 |
| 20260506105120 | 59 | 209 | 0.9 | 4.3 | 0.00 | 0.00 | 0.00 | 82 | 1007.2 |
| 20260506105112 | 59 | 210 | 0.9 | 4.3 | 0.00 | 0.00 | 0.00 | 82 | 1007.2 |
| 20260506104948 | 59 | 280 | 0.9 | 4.3 | 0.00 | 0.00 | 0.00 | 82 | 1007.2 |
| 20260506104732 | 59 | 186 | 0.9 | 4.3 | 0.00 | 0.00 | 0.00 | 82 | 1007.1 |
| 20260506104628 | 59 | 219 | 0.0 | 4.3 | 0.00 | 0.00 | 0.00 | 82 | 1007.2 |
| 20260506104604 | 59 | 215 | 0.0 | 2.6 | 0.00 | 0.00 | 0.00 | 82 | 1007.2 |
| 20260506104555 | 59 | 245 | 0.0 | 3.5 | 0.00 | 0.00 | 0.00 | 82 | 1007.2 |
| 20260506104545 | 59 | 243 | 0.0 | 3.5 | 0.00 | 0.00 | 0.00 | 82 | 1007.2 |
| 20260506104329 | 59 | 194 | 0.0 | 2.6 | 0.00 | 0.00 | 0.00 | 82 | 1007.1 |
| 20260506104227 | 59 | 181 | 0.0 | 2.6 | 0.00 | 0.00 | 0.00 | 82 | 1007.1 |
| 20260506104128 | 59 | 201 | 0.0 | 2.6 | 0.00 | 0.00 | 0.00 | 82 | 1007.2 |
| 20260506104042 | 59 | 200 | 0.0 | 2.6 | 0.00 | 0.00 | 0.00 | 82 | 1007.2 |
| 20260506104027 | 59 | 156 | 0.0 | 2.6 | 0.00 | 0.00 | 0.00 | 82 | 1007.2 |
| 20260506103925 | 59 | 157 | 0.0 | 2.6 | 0.00 | 0.00 | 0.00 | 82 | 1007.2 |
| 20260506103825 | 59 | 149 | 0.0 | 2.6 | 0.00 | 0.00 | 0.00 | 82 | 1007.2 |
| 20260506103725 | 59 | 138 | 0.0 | 2.6 | 0.00 | 0.00 | 0.00 | 82 | 1007.3 |
| 20260506103626 | 59 | 170 | 0.0 | 1.7 | 0.00 | 0.00 | 0.00 | 82 | 1007.3 |
| 20260506103536 | 59 | 182 | 0.0 | 1.7 | 0.00 | 0.00 | 0.00 | 82 | 1007.3 |
| 20260506103527 | 59 | 184 | 0.0 | 1.7 | 0.00 | 0.00 | 0.00 | 82 | 1007.3 |
| 20260506103451 | 59 | 172 | 0.0 | 1.7 | 0.00 | 0.00 | 0.00 | 82 | 1007.2 |
| 20260506103441 | 59 | 139 | 0.0 | 1.7 | 0.00 | 0.00 | 0.00 | 82 | 1007.3 |
| 20260506103225 | 59 | 162 | 0.9 | 1.7 | 0.00 | 0.00 | 0.00 | 82 | 1007.2 |
| 20260506103124 | 59 | 189 | 0.9 | 3.5 | 0.00 | 0.00 | 0.00 | 82 | 1007.2 |
| 20260506103024 | 59 | 145 | 0.9 | 3.5 | 0.00 | 0.00 | 0.00 | 82 | 1007.2 |
| 20260506102954 | 59 | 297 | 0.9 | 3.5 | 0.00 | 0.00 | 0.00 | 82 | 1007.2 |
| 20260506102944 | 59 | 142 | 0.9 | 3.5 | 0.00 | 0.00 | 0.00 | 82 | 1007.2 |
| 20260506102929 | 59 | 294 | 0.9 | 3.5 | 0.00 | 0.00 | 0.00 | 82 | 1007.2 |
| 20260506102646 | 59 | 191 | 0.9 | 3.5 | 0.00 | 0.00 | 0.00 | 82 | 1007.1 |
| 20260506102631 | 59 | 252 | 0.9 | 3.5 | 0.00 | 0.00 | 0.00 | 82 | 1007.0 |
| 20260506102444 | 59 | 128 | 0.9 | 3.5 | 0.00 | 0.00 | 0.00 | 82 | 1007.0 |
| 20260506102434 | 59 | 217 | 0.9 | 3.5 | 0.00 | 0.00 | 0.00 | 82 | 1007.1 |
| 20260506102217 | 59 | 230 | 0.9 | 3.5 | 0.00 | 0.00 | 0.00 | 82 | 1007.0 |
| 20260506102118 | 59 | 221 | 0.9 | 3.5 | 0.00 | 0.00 | 0.00 | 82 | 1007.0 |
| 20260506102017 | 59 | 269 | 0.9 | 3.5 | 0.00 | 0.00 | 0.00 | 82 | 1006.9 |
| 20260506101912 | 59 | 194 | 0.9 | 3.5 | 0.00 | 0.00 | 0.00 | 82 | 1007.0 |
| 20260506101813 | 59 | 233 | 0.9 | 3.5 | 0.00 | 0.00 | 0.00 | 82 | 1007.0 |
| 20260506101711 | 59 | 245 | 0.9 | 3.5 | 0.00 | 0.00 | 0.00 | 82 | 1007.0 |
| 20260506101611 | 59 | 243 | 0.9 | 3.5 | 0.00 | 0.00 | 0.00 | 82 | 1007.0 |
| 20260506101539 | 59 | 188 | 0.0 | 3.5 | 0.00 | 0.00 | 0.00 | 82 | 1007.0 |
| 20260506101532 | 59 | 172 | 0.9 | 3.5 | 0.00 | 0.00 | 0.00 | 82 | 1007.0 |
| 20260506101524 | 59 | 165 | 0.0 | 3.5 | 0.00 | 0.00 | 0.00 | 82 | 1007.0 |
| 20260506101304 | 58 | 198 | 0.0 | 3.5 | 0.00 | 0.00 | 0.00 | 82 | 1007.0 |
| 20260506101205 | 58 | 263 | 0.0 | 3.5 | 0.00 | 0.00 | 0.00 | 82 | 1007.0 |
| 20260506101105 | 58 | 188 | 0.0 | 3.5 | 0.00 | 0.00 | 0.00 | 82 | 1006.9 |
| 20260506101029 | 58 | 198 | 0.0 | 3.5 | 0.00 | 0.00 | 0.00 | 82 | 1006.9 |
| 20260506101006 | 58 | 219 | 0.0 | 3.5 | 0.00 | 0.00 | 0.00 | 82 | 1006.9 |
| 20260506100931 | 58 | 142 | 0.0 | 3.5 | 0.00 | 0.00 | 0.00 | 82 | 1007.0 |
| 20260506100920 | 58 | 184 | 0.0 | 3.5 | 0.00 | 0.00 | 0.00 | 82 | 1006.9 |
| 20260506100705 | 58 | 142 | 0.0 | 3.5 | 0.00 | 0.00 | 0.00 | 82 | 1007.0 |
| 20260506100602 | 58 | 174 | 0.0 | 3.5 | 0.00 | 0.00 | 0.00 | 82 | 1007.0 |
| 20260506100527 | 58 | 174 | 0.0 | 3.5 | 0.00 | 0.00 | 0.00 | 82 | 1007.1 |
| 20260506100459 | 58 | 184 | 0.0 | 3.5 | 0.00 | 0.00 | 0.00 | 82 | 1007.1 |
| 20260506100353 | 58 | 260 | 0.0 | 3.5 | 0.00 | 0.00 | 0.00 | 82 | 1007.1 |
| 20260506100254 | 58 | 171 | 0.9 | 3.5 | 0.00 | 0.00 | 0.00 | 82 | 1007.1 |
| 20260506100153 | 58 | 271 | 0.0 | 3.5 | 0.00 | 0.00 | 0.00 | 82 | 1007.0 |
| 20260506100054 | 58 | 195 | 0.0 | 3.5 | 0.00 | 0.00 | 0.00 | 82 | 1007.0 |
| 20260506100026 | 58 | 194 | 0.0 | 3.5 | 0.00 | 0.00 | 0.00 | 82 | 1007.0 |
| 20260506095952 | 58 | 165 | 0.9 | 3.5 | 0.00 | 0.00 | 0.00 | 82 | 1007.0 |
| 20260506095846 | 58 | 163 | 0.9 | 3.5 | 0.00 | 0.00 | 0.00 | 82 | 1006.9 |
| 20260506095823 | 58 | 145 | 0.9 | 3.5 | 0.00 | 0.00 | 0.00 | 82 | 1007.0 |
| 20260506095819 | 58 | 153 | 0.9 | 3.5 | 0.00 | 0.00 | 0.00 | 82 | 1007.1 |
| 20260506095807 | 58 | 169 | 0.0 | 3.5 | 0.00 | 0.00 | 0.00 | 82 | 1006.9 |
| 20260506095752 | 58 | 212 | 0.0 | 3.5 | 0.00 | 0.00 | 0.00 | 82 | 1007.0 |
| 20260506095505 | 58 | 206 | 0.0 | 2.6 | 0.00 | 0.00 | 0.00 | 81 | 1007.1 |
| 20260506095455 | 58 | 154 | 0.9 | 3.5 | 0.00 | 0.00 | 0.00 | 81 | 1007.1 |
| 20260506095307 | 58 | 126 | 0.0 | 2.6 | 0.00 | 0.00 | 0.00 | 81 | 1007.2 |
| 20260506095256 | 58 | 257 | 0.0 | 2.6 | 0.00 | 0.00 | 0.00 | 81 | 1007.1 |
| 20260506095039 | 58 | 126 | 0.0 | 2.6 | 0.00 | 0.00 | 0.00 | 81 | 1007.1 |
| 20260506095026 | 58 | 252 | 0.0 | 2.6 | 0.00 | 0.00 | 0.00 | 81 | 1007.1 |
| 20260506094940 | 58 | 201 | 0.0 | 2.6 | 0.00 | 0.00 | 0.00 | 81 | 1007.1 |
| 20260506094858 | 59 | 215 | 0.0 | 2.6 | 0.00 | 0.00 | 0.00 | 81 | 1007.1 |
| 20260506094848 | 58 | 205 | 0.0 | 2.6 | 0.00 | 0.00 | 0.00 | 81 | 1007.1 |
| 20260506094705 | 59 | 148 | 0.0 | 2.6 | 0.00 | 0.00 | 0.00 | 81 | 1007.0 |
| 20260506094701 | 59 | 148 | 0.0 | 2.6 | 0.00 | 0.00 | 0.00 | 81 | 1007.0 |
| 20260506094651 | 59 | 219 | 0.0 | 2.6 | 0.00 | 0.00 | 0.00 | 81 | 1007.0 |
| 20260506094638 | 59 | 148 | 0.0 | 2.6 | 0.00 | 0.00 | 0.00 | 81 | 1007.1 |
| 20260506094631 | 59 | 148 | 0.0 | 2.6 | 0.00 | 0.00 | 0.00 | 81 | 1007.0 |
| 20260506094228 | 59 | 145 | 0.0 | 2.6 | 0.00 | 0.00 | 0.00 | 81 | 1007.0 |
| 20260506094148 | 59 | 169 | 0.0 | 2.6 | 0.00 | 0.00 | 0.00 | 81 | 1007.0 |
| 20260506094132 | 59 | 156 | 0.0 | 2.6 | 0.00 | 0.00 | 0.00 | 81 | 1007.0 |
| 20260506093950 | 59 | 153 | 0.0 | 2.6 | 0.00 | 0.00 | 0.00 | 81 | 1007.0 |
| 20260506093942 | 59 | 195 | 0.0 | 2.6 | 0.00 | 0.00 | 0.00 | 81 | 1007.0 |
| 20260506093721 | 59 | 154 | 0.0 | 2.6 | 0.00 | 0.00 | 0.00 | 81 | 1006.9 |
| 20260506093621 | 59 | 145 | 0.0 | 2.6 | 0.00 | 0.00 | 0.00 | 81 | 1007.0 |
| 20260506093528 | 59 | 174 | 0.0 | 3.5 | 0.00 | 0.00 | 0.00 | 81 | 1006.9 |
| 20260506093522 | 59 | 176 | 0.0 | 3.5 | 0.00 | 0.00 | 0.00 | 81 | 1006.9 |
| 20260506093422 | 59 | 127 | 0.0 | 3.5 | 0.00 | 0.00 | 0.00 | 81 | 1007.0 |
| 20260506093319 | 59 | 150 | 0.9 | 3.5 | 0.00 | 0.00 | 0.00 | 81 | 1007.0 |
| 20260506093217 | 59 | 137 | 0.9 | 3.5 | 0.00 | 0.00 | 0.00 | 81 | 1007.0 |
| 20260506093138 | 59 | 155 | 0.9 | 3.5 | 0.00 | 0.00 | 0.00 | 81 | 1007.0 |
| 20260506093124 | 59 | 174 | 0.9 | 3.5 | 0.00 | 0.00 | 0.00 | 81 | 1007.0 |
| 20260506092915 | 59 | 156 | 0.9 | 3.5 | 0.00 | 0.00 | 0.00 | 81 | 1006.9 |
| 20260506092809 | 59 | 156 | 0.9 | 3.5 | 0.00 | 0.00 | 0.00 | 81 | 1006.9 |
| 20260506092752 | 58 | 134 | 0.9 | 3.5 | 0.00 | 0.00 | 0.00 | 81 | 1006.8 |
| 20260506092710 | 59 | 179 | 0.9 | 3.5 | 0.00 | 0.00 | 0.00 | 81 | 1006.9 |
| 20260506092640 | 58 | 187 | 0.9 | 3.5 | 0.00 | 0.00 | 0.00 | 81 | 1006.8 |
| 20260506092509 | 58 | 111 | 0.9 | 3.5 | 0.00 | 0.00 | 0.00 | 81 | 1006.8 |
| 20260506092408 | 58 | 153 | 0.9 | 3.5 | 0.00 | 0.00 | 0.00 | 81 | 1006.8 |
| 20260506092309 | 58 | 173 | 0.9 | 3.5 | 0.00 | 0.00 | 0.00 | 81 | 1006.8 |
| 20260506092206 | 58 | 159 | 0.9 | 2.6 | 0.00 | 0.00 | 0.00 | 81 | 1006.8 |
| 20260506092107 | 58 | 153 | 0.0 | 2.6 | 0.00 | 0.00 | 0.00 | 81 | 1006.8 |
| 20260506092024 | 58 | 159 | 0.0 | 2.6 | 0.00 | 0.00 | 0.00 | 81 | 1006.9 |
| 20260506092003 | 58 | 191 | 0.0 | 2.6 | 0.00 | 0.00 | 0.00 | 81 | 1006.9 |
| 20260506091902 | 58 | 156 | 0.0 | 2.6 | 0.00 | 0.00 | 0.00 | 81 | 1006.9 |
| 20260506091801 | 58 | 158 | 0.0 | 2.6 | 0.00 | 0.00 | 0.00 | 81 | 1007.0 |
| 20260506091700 | 58 | 153 | 0.0 | 1.7 | 0.00 | 0.00 | 0.00 | 81 | 1007.0 |
| 20260506091600 | 58 | 153 | 0.0 | 1.7 | 0.00 | 0.00 | 0.00 | 81 | 1007.0 |
| 20260506091525 | 58 | 174 | 0.0 | 1.7 | 0.00 | 0.00 | 0.00 | 81 | 1007.1 |
| 20260506091456 | 58 | 274 | 0.0 | 1.7 | 0.00 | 0.00 | 0.00 | 81 | 1007.1 |
| 20260506091356 | 58 | 153 | 0.0 | 1.7 | 0.00 | 0.00 | 0.00 | 81 | 1007.0 |
| 20260506091255 | 58 | 153 | 0.0 | 1.7 | 0.00 | 0.00 | 0.00 | 81 | 1007.0 |
| 20260506091154 | 58 | 156 | 0.0 | 1.7 | 0.00 | 0.00 | 0.00 | 81 | 1007.0 |
| 20260506091055 | 58 | 186 | 0.0 | 1.7 | 0.00 | 0.00 | 0.00 | 81 | 1007.0 |
| 20260506091022 | 58 | 186 | 0.0 | 1.7 | 0.00 | 0.00 | 0.00 | 81 | 1007.0 |
| 20260506090952 | 58 | 187 | 0.0 | 1.7 | 0.00 | 0.00 | 0.00 | 81 | 1007.0 |
| 20260506090850 | 58 | 189 | 0.0 | 1.7 | 0.00 | 0.00 | 0.00 | 81 | 1006.9 |
| 20260506090745 | 58 | 212 | 0.0 | 1.7 | 0.00 | 0.00 | 0.00 | 81 | 1006.9 |
| 20260506090645 | 58 | 150 | 0.0 | 1.7 | 0.00 | 0.00 | 0.00 | 81 | 1006.8 |
| 20260506090539 | 58 | 193 | 0.0 | 1.7 | 0.00 | 0.00 | 0.00 | 81 | 1006.8 |
| 20260506090533 | 58 | 226 | 0.0 | 1.7 | 0.00 | 0.00 | 0.00 | 81 | 1006.8 |
| 20260506090526 | 58 | 165 | 0.0 | 1.7 | 0.00 | 0.00 | 0.00 | 81 | 1006.8 |
| 20260506090514 | 58 | 165 | 0.0 | 1.7 | 0.00 | 0.00 | 0.00 | 81 | 1006.8 |
| 20260506090139 | 58 | 188 | 0.0 | 1.7 | 0.00 | 0.00 | 0.00 | 81 | 1006.8 |
| 20260506090040 | 58 | 167 | 0.0 | 1.7 | 0.00 | 0.00 | 0.00 | 81 | 1006.8 |
| 20260506090016 | 58 | 156 | 0.0 | 1.7 | 0.00 | 0.00 | 0.00 | 81 | 1006.8 |
| 20260506085938 | 58 | 155 | 0.0 | 1.7 | 0.00 | 0.00 | 0.00 | 81 | 1006.8 |
| 20260506085908 | 58 | 129 | 0.0 | 1.7 | 0.00 | 0.00 | 0.00 | 81 | 1006.9 |
| 20260506085745 | 58 | 174 | 0.9 | 1.7 | 0.00 | 0.00 | 0.00 | 81 | 1006.9 |
| 20260506085732 | 58 | 145 | 0.9 | 1.7 | 0.00 | 0.00 | 0.00 | 81 | 1006.9 |
| 20260506085607 | 58 | 197 | 0.9 | 2.6 | 0.00 | 0.00 | 0.00 | 81 | 1006.9 |
| 20260506085447 | 58 | 198 | 0.9 | 2.6 | 0.00 | 0.00 | 0.00 | 80 | 1006.9 |
| 20260506085229 | 58 | 193 | 0.9 | 2.6 | 0.00 | 0.00 | 0.00 | 80 | 1006.9 |
| 20260506085128 | 58 | 193 | 0.9 | 2.6 | 0.00 | 0.00 | 0.00 | 80 | 1006.9 |
| 20260506085027 | 58 | 150 | 0.9 | 2.6 | 0.00 | 0.00 | 0.00 | 80 | 1006.9 |
| 20260506085004 | 58 | 148 | 0.9 | 2.6 | 0.00 | 0.00 | 0.00 | 81 | 1006.9 |
| 20260506084949 | 58 | 184 | 0.0 | 2.6 | 0.00 | 0.00 | 0.00 | 81 | 1006.9 |
| 20260506084941 | 58 | 194 | 0.9 | 2.6 | 0.00 | 0.00 | 0.00 | 81 | 1006.9 |
| 20260506084731 | 58 | 165 | 0.0 | 2.6 | 0.00 | 0.00 | 0.00 | 81 | 1007.0 |
| 20260506084723 | 58 | 127 | 0.0 | 2.6 | 0.00 | 0.00 | 0.00 | 81 | 1007.0 |
| 20260506084626 | 58 | 228 | 0.0 | 2.6 | 0.00 | 0.00 | 0.00 | 81 | 1007.0 |
| 20260506084610 | 58 | 201 | 0.0 | 2.6 | 0.00 | 0.00 | 0.00 | 81 | 1007.0 |
| 20260506084419 | 58 | 153 | 0.0 | 2.6 | 0.00 | 0.00 | 0.00 | 81 | 1007.0 |
| 20260506084359 | 58 | 162 | 0.0 | 2.6 | 0.00 | 0.00 | 0.00 | 81 | 1007.0 |
| 20260506084241 | 58 | 223 | 0.0 | 1.7 | 0.00 | 0.00 | 0.00 | 81 | 1007.0 |
| 20260506084231 | 58 | 215 | 0.0 | 2.6 | 0.00 | 0.00 | 0.00 | 81 | 1007.1 |
| 20260506084218 | 58 | 214 | 0.0 | 1.7 | 0.00 | 0.00 | 0.00 | 81 | 1007.0 |
| 20260506083910 | 58 | 263 | 0.0 | 1.7 | 0.00 | 0.00 | 0.00 | 81 | 1007.0 |
| 20260506083810 | 58 | 222 | 0.0 | 1.7 | 0.00 | 0.00 | 0.00 | 81 | 1007.0 |
| 20260506083712 | 57 | 191 | 0.0 | 0.9 | 0.00 | 0.00 | 0.00 | 80 | 1007.0 |
| 20260506083703 | 57 | 222 | 0.0 | 1.7 | 0.00 | 0.00 | 0.00 | 81 | 1007.0 |
| 20260506083612 | 57 | 180 | 0.0 | 0.9 | 0.00 | 0.00 | 0.00 | 81 | 1007.0 |
| 20260506083556 | 57 | 243 | 0.0 | 0.9 | 0.00 | 0.00 | 0.00 | 80 | 1007.0 |
| 20260506083403 | 57 | 187 | 0.0 | 1.7 | 0.00 | 0.00 | 0.00 | 80 | 1007.0 |
| 20260506083320 | 58 | 200 | 0.0 | 1.7 | 0.00 | 0.00 | 0.00 | 80 | 1007.0 |
| 20260506083156 | 58 | 148 | 0.0 | 1.7 | 0.00 | 0.00 | 0.00 | 80 | 1007.0 |
| 20260506083105 | 58 | 148 | 0.0 | 1.7 | 0.00 | 0.00 | 0.00 | 80 | 1007.0 |
| 20260506083048 | 58 | 145 | 0.0 | 1.7 | 0.00 | 0.00 | 0.00 | 80 | 1007.0 |
| 20260506082858 | 58 | 148 | 0.0 | 1.7 | 0.00 | 0.00 | 0.00 | 80 | 1007.0 |
| 20260506082758 | 57 | 145 | 0.0 | 1.7 | 0.00 | 0.00 | 0.00 | 81 | 1007.0 |
| 20260506082658 | 57 | 159 | 0.0 | 1.7 | 0.00 | 0.00 | 0.00 | 81 | 1007.0 |
| 20260506082555 | 57 | 147 | 0.0 | 1.7 | 0.00 | 0.00 | 0.00 | 81 | 1007.0 |
| 20260506082456 | 57 | 212 | 0.0 | 1.7 | 0.00 | 0.00 | 0.00 | 81 | 1007.0 |
| 20260506082433 | 57 | 181 | 0.0 | 1.7 | 0.00 | 0.00 | 0.00 | 81 | 1007.0 |
| 20260506082353 | 57 | 162 | 0.0 | 1.7 | 0.00 | 0.00 | 0.00 | 81 | 1007.0 |
| 20260506082252 | 57 | 198 | 0.0 | 1.7 | 0.00 | 0.00 | 0.00 | 81 | 1007.0 |
| 20260506082149 | 57 | 210 | 0.0 | 1.7 | 0.00 | 0.00 | 0.00 | 81 | 1007.0 |
| 20260506082049 | 57 | 156 | 0.0 | 1.7 | 0.00 | 0.00 | 0.00 | 81 | 1007.0 |
| 20260506081947 | 57 | 178 | 0.0 | 0.9 | 0.00 | 0.00 | 0.00 | 81 | 1007.0 |
| 20260506081925 | 57 | 177 | 0.0 | 0.9 | 0.00 | 0.00 | 0.00 | 81 | 1007.0 |
| 20260506081849 | 57 | 178 | 0.0 | 0.9 | 0.00 | 0.00 | 0.00 | 81 | 1007.0 |
| 20260506081810 | 57 | 136 | 0.0 | 0.9 | 0.00 | 0.00 | 0.00 | 80 | 1007.0 |
| 20260506081802 | 57 | 215 | 0.0 | 0.0 | 0.00 | 0.00 | 0.00 | 80 | 1007.0 |
| 20260506081758 | 57 | 215 | 0.0 | 0.0 | 0.00 | 0.00 | 0.00 | 80 | 1007.0 |
| 20260506081750 | 57 | 139 | 0.0 | 0.9 | 0.00 | 0.00 | 0.00 | 81 | 1007.0 |
| 20260506081733 | 57 | 138 | 0.0 | 0.9 | 0.00 | 0.00 | 0.00 | 81 | 1007.0 |
| 20260506081452 | 57 | 215 | 0.0 | 0.0 | 0.00 | 0.00 | 0.00 | 80 | 1007.0 |
| 20260506081240 | 57 | 215 | 0.0 | 0.0 | 0.00 | 0.00 | 0.00 | 80 | 1007.0 |
| 20260506081135 | 57 | 215 | 0.0 | 0.0 | 0.00 | 0.00 | 0.00 | 80 | 1006.9 |
| 20260506081037 | 57 | 215 | 0.0 | 0.0 | 0.00 | 0.00 | 0.00 | 80 | 1006.9 |
| 20260506081011 | 57 | 215 | 0.0 | 0.0 | 0.00 | 0.00 | 0.00 | 80 | 1007.0 |
| 20260506080850 | 57 | 215 | 0.0 | 0.0 | 0.00 | 0.00 | 0.00 | 80 | 1007.0 |
| 20260506080718 | 57 | 215 | 0.0 | 0.0 | 0.00 | 0.00 | 0.00 | 80 | 1007.0 |
| 20260506080711 | 57 | 215 | 0.0 | 0.0 | 0.00 | 0.00 | 0.00 | 80 | 1007.0 |
| 20260506080700 | 57 | 215 | 0.0 | 0.0 | 0.00 | 0.00 | 0.00 | 80 | 1006.9 |
| 20260506080407 | 57 | 215 | 0.0 | 0.0 | 0.00 | 0.00 | 0.00 | 80 | 1007.0 |
| 20260506080328 | 57 | 215 | 0.0 | 0.0 | 0.00 | 0.00 | 0.00 | 80 | 1007.0 |
| 20260506080228 | 57 | 215 | 0.0 | 0.0 | 0.00 | 0.00 | 0.00 | 80 | 1006.9 |
| 20260506080124 | 57 | 216 | 0.0 | 0.0 | 0.00 | 0.00 | 0.00 | 79 | 1007.0 |
| 20260506073518 | 58 | 215 | 0.0 | 0.9 | 0.00 | 0.00 | 0.00 | 77 | 1006.9 |
| 20260506073508 | 58 | 215 | 0.0 | 0.9 | 0.00 | 0.00 | 0.00 | 77 | 1006.9 |
| 20260506073332 | 58 | 215 | 0.0 | 0.9 | 0.00 | 0.00 | 0.00 | 77 | 1006.9 |
| 20260506073251 | 58 | 215 | 0.0 | 0.9 | 0.00 | 0.00 | 0.00 | 77 | 1006.9 |
| 20260506073152 | 58 | 215 | 0.0 | 0.9 | 0.00 | 0.00 | 0.00 | 77 | 1006.9 |
| 20260506073142 | 58 | 215 | 0.0 | 0.0 | 0.00 | 0.00 | 0.00 | 77 | 1006.9 |
| 20260506073058 | 58 | 214 | 0.0 | 0.9 | 0.00 | 0.00 | 0.00 | 77 | 1006.9 |
| 20260506073041 | 58 | 215 | 0.0 | 0.0 | 0.00 | 0.00 | 0.00 | 77 | 1006.9 |
| 20260506073023 | 58 | 215 | 0.0 | 0.0 | 0.00 | 0.00 | 0.00 | 77 | 1006.9 |
| 20260506072756 | 58 | 215 | 0.0 | 0.9 | 0.00 | 0.00 | 0.00 | 77 | 1006.9 |
| 20260506072739 | 58 | 217 | 0.0 | 0.9 | 0.00 | 0.00 | 0.00 | 77 | 1006.9 |
| 20260506072616 | 58 | 217 | 0.0 | 0.9 | 0.00 | 0.00 | 0.00 | 77 | 1006.8 |
| 20260506072320 | 58 | 217 | 0.0 | 0.9 | 0.00 | 0.00 | 0.00 | 77 | 1006.8 |
| 20260506072241 | 58 | 217 | 0.0 | 0.9 | 0.00 | 0.00 | 0.00 | 77 | 1006.8 |
| 20260506072140 | 58 | 217 | 0.0 | 0.9 | 0.00 | 0.00 | 0.00 | 77 | 1006.8 |
| 20260506072035 | 58 | 217 | 0.0 | 0.9 | 0.00 | 0.00 | 0.00 | 77 | 1006.8 |
| 20260506071933 | 58 | 238 | 0.0 | 0.9 | 0.00 | 0.00 | 0.00 | 77 | 1006.8 |
| 20260506071833 | 58 | 238 | 0.0 | 0.9 | 0.00 | 0.00 | 0.00 | 77 | 1006.7 |
| 20260506071814 | 58 | 238 | 0.0 | 0.9 | 0.00 | 0.00 | 0.00 | 77 | 1006.8 |
| 20260506071759 | 58 | 238 | 0.0 | 0.9 | 0.00 | 0.00 | 0.00 | 77 | 1006.7 |
| 20260506071749 | 58 | 238 | 0.0 | 0.9 | 0.00 | 0.00 | 0.00 | 77 | 1006.8 |
| 20260506071529 | 58 | 238 | 0.0 | 0.9 | 0.00 | 0.00 | 0.00 | 77 | 1006.6 |
| 20260506071428 | 58 | 238 | 0.0 | 0.9 | 0.00 | 0.00 | 0.00 | 77 | 1006.7 |
| 20260506071308 | 58 | 238 | 0.0 | 0.9 | 0.00 | 0.00 | 0.00 | 77 | 1006.7 |
| 20260506071227 | 58 | 238 | 0.0 | 0.9 | 0.00 | 0.00 | 0.00 | 76 | 1006.7 |
| 20260506071128 | 58 | 237 | 0.0 | 0.0 | 0.00 | 0.00 | 0.00 | 76 | 1006.7 |
| 20260506071049 | 58 | 238 | 0.0 | 0.0 | 0.00 | 0.00 | 0.00 | 76 | 1006.7 |
| 20260506071038 | 58 | 238 | 0.0 | 0.0 | 0.00 | 0.00 | 0.00 | 76 | 1006.7 |